<?xml version='1.0' encoding='UTF-8'?><gpx version="1.1" creator="JPX - https://github.com/jenetics/jpx" xmlns="http://www.topografix.com/GPX/1/1"><trk><trkseg><trkpt lat="45.40893437998839" lon="10.539036326684432"><ele>128.99999999999997</ele><time>2026-04-06T07:54:51.998Z</time></trkpt><trkpt lat="45.409004912795815" lon="10.539069291434798"><ele>129.0</ele><time>2026-04-06T07:54:53.998Z</time></trkpt><trkpt lat="45.40906996178327" lon="10.539098754185172"><ele>129.0</ele><time>2026-04-06T07:54:55.996Z</time></trkpt><trkpt lat="45.40914043102939" lon="10.539111027552694"><ele>129.0</ele><time>2026-04-06T07:54:57.997Z</time></trkpt><trkpt lat="45.40920444426814" lon="10.539124611402487"><ele>129.0</ele><time>2026-04-06T07:54:59.996Z</time></trkpt><trkpt lat="45.40927205482371" lon="10.53915248374159"><ele>128.99999999999997</ele><time>2026-04-06T07:55:02Z</time></trkpt><trkpt lat="45.409348014819116" lon="10.539183793682861"><ele>129.0</ele><time>2026-04-06T07:55:03.997Z</time></trkpt><trkpt lat="45.40943040406533" lon="10.539195730753715"><ele>129.0</ele><time>2026-04-06T07:55:06Z</time></trkpt><trkpt lat="45.409510323737045" lon="10.539208867736724"><ele>129.0</ele><time>2026-04-06T07:55:07.997Z</time></trkpt><trkpt lat="45.40959747954586" lon="10.539225643433237"><ele>129.0</ele><time>2026-04-06T07:55:09.999Z</time></trkpt><trkpt lat="45.40968601054082" lon="10.539239511338863"><ele>129.0</ele><time>2026-04-06T07:55:11.998Z</time></trkpt><trkpt lat="45.4097826429688" lon="10.53925262216057"><ele>129.0</ele><time>2026-04-06T07:55:13.997Z</time></trkpt><trkpt lat="45.409885998829104" lon="10.539268637738262"><ele>129.8</ele><time>2026-04-06T07:55:15.997Z</time></trkpt><trkpt lat="45.40999281069361" lon="10.539291211429438"><ele>130.60000000000002</ele><time>2026-04-06T07:55:17.998Z</time></trkpt><trkpt lat="45.410098007693186" lon="10.539308029641228"><ele>131.4</ele><time>2026-04-06T07:55:19.999Z</time></trkpt><trkpt lat="45.4101995677212" lon="10.539329447570294"><ele>132.20000000000002</ele><time>2026-04-06T07:55:22.003Z</time></trkpt><trkpt lat="45.41029809860571" lon="10.539351161818434"><ele>133.0</ele><time>2026-04-06T07:55:23.998Z</time></trkpt><trkpt lat="45.41040069753281" lon="10.539376368124868"><ele>131.8</ele><time>2026-04-06T07:55:25.999Z</time></trkpt><trkpt lat="45.410516403572146" lon="10.539414891546373"><ele>130.60000000000002</ele><time>2026-04-06T07:55:27.997Z</time></trkpt><trkpt lat="45.41057783648362" lon="10.539440562857816"><ele>129.39999999999998</ele><time>2026-04-06T07:55:29.003Z</time></trkpt><trkpt lat="45.410639331420725" lon="10.539466398138982"><ele>128.2</ele><time>2026-04-06T07:55:30Z</time></trkpt><trkpt lat="45.410771006277415" lon="10.539518143045205"><ele>127.0</ele><time>2026-04-06T07:55:31.999Z</time></trkpt><trkpt lat="45.410835454989275" lon="10.539539294915382"><ele>128.0</ele><time>2026-04-06T07:55:32.997Z</time></trkpt><trkpt lat="45.41090287316013" lon="10.539561138475873"><ele>129.0</ele><time>2026-04-06T07:55:33.999Z</time></trkpt><trkpt lat="45.41097077166911" lon="10.539589602841856"><ele>130.0</ele><time>2026-04-06T07:55:34.999Z</time></trkpt><trkpt lat="45.41103819452609" lon="10.539619105463666"><ele>131.0</ele><time>2026-04-06T07:55:36Z</time></trkpt><trkpt lat="45.411107345286595" lon="10.539647397033757"><ele>132.0</ele><time>2026-04-06T07:55:37.001Z</time></trkpt><trkpt lat="45.41117459246677" lon="10.539672430588178"><ele>133.0</ele><time>2026-04-06T07:55:38.002Z</time></trkpt><trkpt lat="45.41124407589427" lon="10.539707435805076"><ele>134.0</ele><time>2026-04-06T07:55:39Z</time></trkpt><trkpt lat="45.4113079439582" lon="10.53974655248768"><ele>132.5</ele><time>2026-04-06T07:55:40.002Z</time></trkpt><trkpt lat="45.411368129085226" lon="10.539805096840855"><ele>131.0</ele><time>2026-04-06T07:55:40.999Z</time></trkpt><trkpt lat="45.411423970876676" lon="10.539885988683759"><ele>129.5</ele><time>2026-04-06T07:55:41.998Z</time></trkpt><trkpt lat="45.41146854813873" lon="10.539979556633467"><ele>128.0</ele><time>2026-04-06T07:55:42.997Z</time></trkpt><trkpt lat="45.411513837216845" lon="10.540089739898693"><ele>126.49999999999999</ele><time>2026-04-06T07:55:43.996Z</time></trkpt><trkpt lat="45.411555110994236" lon="10.54018988159195"><ele>125.0</ele><time>2026-04-06T07:55:44.996Z</time></trkpt><trkpt lat="45.41159301415987" lon="10.540289698004063"><ele>125.0</ele><time>2026-04-06T07:55:45.997Z</time></trkpt><trkpt lat="45.411637290747805" lon="10.540378045275283"><ele>125.0</ele><time>2026-04-06T07:55:46.997Z</time></trkpt><trkpt lat="45.41167881688311" lon="10.540466155411803"><ele>125.0</ele><time>2026-04-06T07:55:47.999Z</time></trkpt><trkpt lat="45.41172094528596" lon="10.540549820958782"><ele>125.0</ele><time>2026-04-06T07:55:48.998Z</time></trkpt><trkpt lat="45.411766152778966" lon="10.540627578332069"><ele>125.0</ele><time>2026-04-06T07:55:50.005Z</time></trkpt><trkpt lat="45.41181033403297" lon="10.540703327723287"><ele>125.0</ele><time>2026-04-06T07:55:51.003Z</time></trkpt><trkpt lat="45.411852160540874" lon="10.540779624151954"><ele>125.0</ele><time>2026-04-06T07:55:52.001Z</time></trkpt><trkpt lat="45.41189511261996" lon="10.540854655581821"><ele>125.33333333333333</ele><time>2026-04-06T07:55:52.997Z</time></trkpt><trkpt lat="45.4119434941386" lon="10.54092235122253"><ele>125.66666666666666</ele><time>2026-04-06T07:55:54.001Z</time></trkpt><trkpt lat="45.41199344292135" lon="10.540977921431589"><ele>126.0</ele><time>2026-04-06T07:55:54.999Z</time></trkpt><trkpt lat="45.41210207170058" lon="10.541077942141976"><ele>126.33333333333334</ele><time>2026-04-06T07:55:56.995Z</time></trkpt><trkpt lat="45.412178559451675" lon="10.541198710763792"><ele>126.66666666666667</ele><time>2026-04-06T07:55:59.004Z</time></trkpt><trkpt lat="45.412144250719834" lon="10.541286165305587"><ele>127.0</ele><time>2026-04-06T07:55:59.976Z</time></trkpt><trkpt lat="45.412091250640195" lon="10.541347502688383"><ele>127.0</ele><time>2026-04-06T07:56:00.978Z</time></trkpt><trkpt lat="45.412014500034054" lon="10.541484094014324"><ele>126.99999999999999</ele><time>2026-04-06T07:56:02.981Z</time></trkpt><trkpt lat="45.411932177146575" lon="10.541626490785754"><ele>126.99999999999999</ele><time>2026-04-06T07:56:04.983Z</time></trkpt><trkpt lat="45.41188561200542" lon="10.541694162640049"><ele>127.0</ele><time>2026-04-06T07:56:05.984Z</time></trkpt><trkpt lat="45.41184052656221" lon="10.541770749005929"><ele>127.0</ele><time>2026-04-06T07:56:06.985Z</time></trkpt><trkpt lat="45.41179878702101" lon="10.541843160517931"><ele>127.0</ele><time>2026-04-06T07:56:07.986Z</time></trkpt><trkpt lat="45.41175798582491" lon="10.541919756326147"><ele>127.0</ele><time>2026-04-06T07:56:08.987Z</time></trkpt><trkpt lat="45.41171864807823" lon="10.541998112342458"><ele>127.0</ele><time>2026-04-06T07:56:09.988Z</time></trkpt><trkpt lat="45.41168238990716" lon="10.54207960429321"><ele>127.0</ele><time>2026-04-06T07:56:10.989Z</time></trkpt><trkpt lat="45.41164367163246" lon="10.542162962989718"><ele>127.0</ele><time>2026-04-06T07:56:11.99Z</time></trkpt><trkpt lat="45.41160177396408" lon="10.542246869156127"><ele>127.0</ele><time>2026-04-06T07:56:12.991Z</time></trkpt><trkpt lat="45.41155942125348" lon="10.542330549783966"><ele>127.0</ele><time>2026-04-06T07:56:13.991Z</time></trkpt><trkpt lat="45.41151808382967" lon="10.542418684207489"><ele>126.83333333333334</ele><time>2026-04-06T07:56:14.992Z</time></trkpt><trkpt lat="45.41147636878522" lon="10.542509190584296"><ele>126.66666666666667</ele><time>2026-04-06T07:56:15.992Z</time></trkpt><trkpt lat="45.41143313327707" lon="10.542602896680629"><ele>126.5</ele><time>2026-04-06T07:56:16.993Z</time></trkpt><trkpt lat="45.41139020172523" lon="10.542697501672711"><ele>126.33333333333334</ele><time>2026-04-06T07:56:17.993Z</time></trkpt><trkpt lat="45.41134832126698" lon="10.5427943114704"><ele>126.16666666666667</ele><time>2026-04-06T07:56:18.994Z</time></trkpt><trkpt lat="45.41130509060314" lon="10.54289110630118"><ele>126.0</ele><time>2026-04-06T07:56:19.994Z</time></trkpt><trkpt lat="45.41125992517788" lon="10.542986529462093"><ele>125.0</ele><time>2026-04-06T07:56:20.995Z</time></trkpt><trkpt lat="45.41121419551927" lon="10.543082345041476"><ele>124.0</ele><time>2026-04-06T07:56:21.995Z</time></trkpt><trkpt lat="45.411174977841405" lon="10.543183659355552"><ele>123.0</ele><time>2026-04-06T07:56:22.995Z</time></trkpt><trkpt lat="45.411141774338134" lon="10.543290775135864"><ele>122.0</ele><time>2026-04-06T07:56:23.996Z</time></trkpt><trkpt lat="45.411111432350005" lon="10.543396291788039"><ele>121.0</ele><time>2026-04-06T07:56:24.996Z</time></trkpt><trkpt lat="45.41108427403617" lon="10.543502281741063"><ele>120.0</ele><time>2026-04-06T07:56:25.996Z</time></trkpt><trkpt lat="45.411067530405816" lon="10.543613039444308"><ele>120.28571428571429</ele><time>2026-04-06T07:56:26.997Z</time></trkpt><trkpt lat="45.411047873938635" lon="10.543720527397099"><ele>120.57142857142856</ele><time>2026-04-06T07:56:27.997Z</time></trkpt><trkpt lat="45.41102454288468" lon="10.5438220431388"><ele>120.85714285714285</ele><time>2026-04-06T07:56:28.997Z</time></trkpt><trkpt lat="45.41102762630011" lon="10.543914067931237"><ele>121.14285714285714</ele><time>2026-04-06T07:56:29.997Z</time></trkpt><trkpt lat="45.41106671422759" lon="10.543992069813465"><ele>121.42857142857142</ele><time>2026-04-06T07:56:30.998Z</time></trkpt><trkpt lat="45.411118414532794" lon="10.54404659222299"><ele>121.7142857142857</ele><time>2026-04-06T07:56:31.998Z</time></trkpt><trkpt lat="45.411180502954714" lon="10.544066904300898"><ele>121.99999999999999</ele><time>2026-04-06T07:56:32.998Z</time></trkpt><trkpt lat="45.41129288328105" lon="10.544048064467932"><ele>122.25</ele><time>2026-04-06T07:56:34.998Z</time></trkpt><trkpt lat="45.4114025079216" lon="10.544075910846747"><ele>122.5</ele><time>2026-04-06T07:56:36.999Z</time></trkpt><trkpt lat="45.41151312952311" lon="10.544107127723178"><ele>122.75</ele><time>2026-04-06T07:56:38.999Z</time></trkpt><trkpt lat="45.41162315894887" lon="10.544156287023638"><ele>123.0</ele><time>2026-04-06T07:56:40.999Z</time></trkpt><trkpt lat="45.41173757307548" lon="10.544208992281863"><ele>123.0</ele><time>2026-04-06T07:56:42.999Z</time></trkpt><trkpt lat="45.41185036950946" lon="10.544259911494912"><ele>123.0</ele><time>2026-04-06T07:56:44.999Z</time></trkpt><trkpt lat="45.41195655868022" lon="10.54431839066379"><ele>123.0</ele><time>2026-04-06T07:56:47Z</time></trkpt><trkpt lat="45.41205720938443" lon="10.544398518894903"><ele>123.0</ele><time>2026-04-06T07:56:49Z</time></trkpt><trkpt lat="45.41216327478064" lon="10.544446331236884"><ele>124.25</ele><time>2026-04-06T07:56:51Z</time></trkpt><trkpt lat="45.412275358433014" lon="10.544471877350903"><ele>125.5</ele><time>2026-04-06T07:56:53Z</time></trkpt><trkpt lat="45.41238756897161" lon="10.544469651505464"><ele>126.75</ele><time>2026-04-06T07:56:55Z</time></trkpt><trkpt lat="45.41249837320339" lon="10.544454064845025"><ele>128.0</ele><time>2026-04-06T07:56:57Z</time></trkpt><trkpt lat="45.4126084465396" lon="10.544417595600898"><ele>128.0</ele><time>2026-04-06T07:56:59Z</time></trkpt><trkpt lat="45.41272208375517" lon="10.544385508116534"><ele>128.0</ele><time>2026-04-06T07:57:01Z</time></trkpt><trkpt lat="45.41283788111552" lon="10.544368907559594"><ele>128.0</ele><time>2026-04-06T07:57:03Z</time></trkpt><trkpt lat="45.41295647265683" lon="10.544346824577149"><ele>128.0</ele><time>2026-04-06T07:57:05Z</time></trkpt><trkpt lat="45.41307784216277" lon="10.54433166937111"><ele>127.80000000000001</ele><time>2026-04-06T07:57:07Z</time></trkpt><trkpt lat="45.41319086989915" lon="10.54431251954226"><ele>127.60000000000001</ele><time>2026-04-06T07:57:09Z</time></trkpt><trkpt lat="45.41329964860553" lon="10.544280082473874"><ele>127.39999999999999</ele><time>2026-04-06T07:57:11Z</time></trkpt><trkpt lat="45.41339979000906" lon="10.544268293703718"><ele>127.19999999999999</ele><time>2026-04-06T07:57:13.001Z</time></trkpt><trkpt lat="45.41350464221684" lon="10.544270152365986"><ele>127.0</ele><time>2026-04-06T07:57:15.001Z</time></trkpt><trkpt lat="45.413622304901864" lon="10.544278609785499"><ele>127.00000000000001</ele><time>2026-04-06T07:57:17.001Z</time></trkpt><trkpt lat="45.41368607269815" lon="10.54428368218082"><ele>127.0</ele><time>2026-04-06T07:57:18.001Z</time></trkpt><trkpt lat="45.41380936303196" lon="10.5442918763743"><ele>127.0</ele><time>2026-04-06T07:57:20.001Z</time></trkpt><trkpt lat="45.41387703383983" lon="10.544295095582449"><ele>127.0</ele><time>2026-04-06T07:57:21.001Z</time></trkpt><trkpt lat="45.41394275130349" lon="10.544292644353467"><ele>127.00000000000001</ele><time>2026-04-06T07:57:22.001Z</time></trkpt><trkpt lat="45.41400961766085" lon="10.54429338300899"><ele>127.0</ele><time>2026-04-06T07:57:23.001Z</time></trkpt><trkpt lat="45.41407771432456" lon="10.544291801480572"><ele>126.57142857142858</ele><time>2026-04-06T07:57:24.001Z</time></trkpt><trkpt lat="45.41414750861547" lon="10.544287203355792"><ele>126.14285714285714</ele><time>2026-04-06T07:57:25.001Z</time></trkpt><trkpt lat="45.414219428717054" lon="10.544283999381847"><ele>125.71428571428572</ele><time>2026-04-06T07:57:26.001Z</time></trkpt><trkpt lat="45.414292790505385" lon="10.544280057384038"><ele>125.28571428571429</ele><time>2026-04-06T07:57:27.001Z</time></trkpt><trkpt lat="45.41436838626266" lon="10.544275075853585"><ele>124.85714285714286</ele><time>2026-04-06T07:57:28.001Z</time></trkpt><trkpt lat="45.414442822511894" lon="10.544269976585593"><ele>124.42857142857143</ele><time>2026-04-06T07:57:29.001Z</time></trkpt><trkpt lat="45.414516709771384" lon="10.54426871046278"><ele>124.0</ele><time>2026-04-06T07:57:30.001Z</time></trkpt><trkpt lat="45.41458948002652" lon="10.544255707279097"><ele>123.33333333333334</ele><time>2026-04-06T07:57:31.001Z</time></trkpt><trkpt lat="45.41466050352458" lon="10.54424324898532"><ele>122.66666666666667</ele><time>2026-04-06T07:57:32.001Z</time></trkpt><trkpt lat="45.414735959938476" lon="10.544241581766054"><ele>122.0</ele><time>2026-04-06T07:57:33.001Z</time></trkpt><trkpt lat="45.41481463023433" lon="10.54423290477131"><ele>121.33333333333334</ele><time>2026-04-06T07:57:34.001Z</time></trkpt><trkpt lat="45.41489122025663" lon="10.544219583645932"><ele>120.66666666666667</ele><time>2026-04-06T07:57:35.001Z</time></trkpt><trkpt lat="45.414971002874815" lon="10.544213450970389"><ele>120.0</ele><time>2026-04-06T07:57:36.001Z</time></trkpt><trkpt lat="45.415052650886125" lon="10.544220764498883"><ele>120.0</ele><time>2026-04-06T07:57:37.001Z</time></trkpt><trkpt lat="45.415130721373316" lon="10.54423647402059"><ele>120.0</ele><time>2026-04-06T07:57:38.001Z</time></trkpt><trkpt lat="45.41520727493987" lon="10.544258885851157"><ele>120.0</ele><time>2026-04-06T07:57:39.001Z</time></trkpt><trkpt lat="45.41528122380843" lon="10.544298094797876"><ele>120.0</ele><time>2026-04-06T07:57:40.001Z</time></trkpt><trkpt lat="45.41536199366231" lon="10.544330741836639"><ele>120.0</ele><time>2026-04-06T07:57:41.001Z</time></trkpt><trkpt lat="45.41544278169636" lon="10.544333039643012"><ele>120.0</ele><time>2026-04-06T07:57:42.001Z</time></trkpt><trkpt lat="45.4155249069331" lon="10.544327397834014"><ele>119.0</ele><time>2026-04-06T07:57:43.001Z</time></trkpt><trkpt lat="45.41560558855287" lon="10.544299474192997"><ele>118.0</ele><time>2026-04-06T07:57:44.001Z</time></trkpt><trkpt lat="45.415685687340535" lon="10.544257444934425"><ele>117.0</ele><time>2026-04-06T07:57:45.001Z</time></trkpt><trkpt lat="45.41576910242295" lon="10.544224753900634"><ele>116.0</ele><time>2026-04-06T07:57:46.001Z</time></trkpt><trkpt lat="45.415852277937965" lon="10.544203116161622"><ele>115.0</ele><time>2026-04-06T07:57:47.001Z</time></trkpt><trkpt lat="45.415929148313836" lon="10.54418525550151"><ele>114.0</ele><time>2026-04-06T07:57:48.001Z</time></trkpt><trkpt lat="45.41600460088862" lon="10.544163316621908"><ele>114.0</ele><time>2026-04-06T07:57:49.001Z</time></trkpt><trkpt lat="45.4160795902169" lon="10.544145618490745"><ele>113.99999999999999</ele><time>2026-04-06T07:57:50.001Z</time></trkpt><trkpt lat="45.416154597654305" lon="10.544132194838838"><ele>114.0</ele><time>2026-04-06T07:57:51.001Z</time></trkpt><trkpt lat="45.41622883036314" lon="10.544114009494471"><ele>114.0</ele><time>2026-04-06T07:57:52.001Z</time></trkpt><trkpt lat="45.41630315150584" lon="10.544096068203888"><ele>113.99999999999999</ele><time>2026-04-06T07:57:53.001Z</time></trkpt><trkpt lat="45.416375364819686" lon="10.544076580185097"><ele>114.0</ele><time>2026-04-06T07:57:54.001Z</time></trkpt><trkpt lat="45.41644139510933" lon="10.544048908442502"><ele>114.0</ele><time>2026-04-06T07:57:55.001Z</time></trkpt><trkpt lat="45.41651071416091" lon="10.544018240185961"><ele>113.28571428571428</ele><time>2026-04-06T07:57:56.001Z</time></trkpt><trkpt lat="45.416579913312425" lon="10.54399365104487"><ele>112.57142857142856</ele><time>2026-04-06T07:57:57.001Z</time></trkpt><trkpt lat="45.41664793336118" lon="10.543967436537349"><ele>111.85714285714286</ele><time>2026-04-06T07:57:58.001Z</time></trkpt><trkpt lat="45.41671509375479" lon="10.543936927853522"><ele>111.14285714285714</ele><time>2026-04-06T07:57:59.001Z</time></trkpt><trkpt lat="45.41677903624555" lon="10.543900328544511"><ele>110.42857142857143</ele><time>2026-04-06T07:58:00.001Z</time></trkpt><trkpt lat="45.416836695739704" lon="10.543860046390945"><ele>109.71428571428572</ele><time>2026-04-06T07:58:01.001Z</time></trkpt><trkpt lat="45.416894007314575" lon="10.543804372047832"><ele>109.0</ele><time>2026-04-06T07:58:02.001Z</time></trkpt><trkpt lat="45.416951012501286" lon="10.543751562380413"><ele>108.80000000000001</ele><time>2026-04-06T07:58:03.001Z</time></trkpt><trkpt lat="45.41700571000153" lon="10.54370395406486"><ele>108.60000000000001</ele><time>2026-04-06T07:58:04.001Z</time></trkpt><trkpt lat="45.41710536959343" lon="10.543607719807188"><ele>108.4</ele><time>2026-04-06T07:58:06.001Z</time></trkpt><trkpt lat="45.41718593832851" lon="10.543482438949992"><ele>108.2</ele><time>2026-04-06T07:58:08.001Z</time></trkpt><trkpt lat="45.41722533230133" lon="10.543410338854285"><ele>108.0</ele><time>2026-04-06T07:58:09.001Z</time></trkpt><trkpt lat="45.417291984158005" lon="10.54327551352206"><ele>108.0</ele><time>2026-04-06T07:58:11.001Z</time></trkpt><trkpt lat="45.41736298595665" lon="10.543135312161821"><ele>108.0</ele><time>2026-04-06T07:58:13.001Z</time></trkpt><trkpt lat="45.4174248585929" lon="10.542999546586541"><ele>108.0</ele><time>2026-04-06T07:58:15Z</time></trkpt><trkpt lat="45.41749406555377" lon="10.542858183769075"><ele>108.0</ele><time>2026-04-06T07:58:17Z</time></trkpt><trkpt lat="45.41756894356469" lon="10.542720156579126"><ele>108.2</ele><time>2026-04-06T07:58:19Z</time></trkpt><trkpt lat="45.41764280515276" lon="10.542583833186416"><ele>108.4</ele><time>2026-04-06T07:58:21Z</time></trkpt><trkpt lat="45.41768125452866" lon="10.542509001327142"><ele>108.60000000000001</ele><time>2026-04-06T07:58:22Z</time></trkpt><trkpt lat="45.417744510371755" lon="10.542366290102171"><ele>108.80000000000001</ele><time>2026-04-06T07:58:24Z</time></trkpt><trkpt lat="45.41781221320008" lon="10.542223641923501"><ele>109.0</ele><time>2026-04-06T07:58:26Z</time></trkpt><trkpt lat="45.417875544947485" lon="10.542082417492104"><ele>109.0</ele><time>2026-04-06T07:58:28Z</time></trkpt><trkpt lat="45.4179389003943" lon="10.541941380002982"><ele>109.0</ele><time>2026-04-06T07:58:30Z</time></trkpt><trkpt lat="45.418007433318" lon="10.541801745758722"><ele>109.0</ele><time>2026-04-06T07:58:32Z</time></trkpt><trkpt lat="45.41807889086245" lon="10.541665576373285"><ele>109.0</ele><time>2026-04-06T07:58:34Z</time></trkpt><trkpt lat="45.418150008607974" lon="10.541524509316913"><ele>109.0</ele><time>2026-04-06T07:58:36Z</time></trkpt><trkpt lat="45.4182360874476" lon="10.541402434240151"><ele>109.0</ele><time>2026-04-06T07:58:38Z</time></trkpt><trkpt lat="45.418327755455074" lon="10.541286123483268"><ele>109.0</ele><time>2026-04-06T07:58:40Z</time></trkpt><trkpt lat="45.41838365118051" lon="10.541235845403431"><ele>109.0</ele><time>2026-04-06T07:58:41Z</time></trkpt><trkpt lat="45.41848153389913" lon="10.541139029407327"><ele>109.0</ele><time>2026-04-06T07:58:43Z</time></trkpt><trkpt lat="45.418580103008956" lon="10.541046185614558"><ele>109.80000000000001</ele><time>2026-04-06T07:58:45Z</time></trkpt><trkpt lat="45.41867797369037" lon="10.54095085724371"><ele>110.60000000000001</ele><time>2026-04-06T07:58:47Z</time></trkpt><trkpt lat="45.418778847692785" lon="10.540848565601253"><ele>111.4</ele><time>2026-04-06T07:58:49Z</time></trkpt><trkpt lat="45.41883135487286" lon="10.540796496162052"><ele>112.2</ele><time>2026-04-06T07:58:50Z</time></trkpt><trkpt lat="45.418927694846445" lon="10.540699696346039"><ele>113.0</ele><time>2026-04-06T07:58:52Z</time></trkpt><trkpt lat="45.41898158030467" lon="10.540653193844667"><ele>113.0</ele><time>2026-04-06T07:58:53Z</time></trkpt><trkpt lat="45.4190892425677" lon="10.540566970630909"><ele>113.0</ele><time>2026-04-06T07:58:55Z</time></trkpt><trkpt lat="45.419195108903295" lon="10.540492844506112"><ele>113.0</ele><time>2026-04-06T07:58:57Z</time></trkpt><trkpt lat="45.4193110072849" lon="10.540434348376262"><ele>113.0</ele><time>2026-04-06T07:58:59Z</time></trkpt><trkpt lat="45.41942197169671" lon="10.540384584047503"><ele>113.5</ele><time>2026-04-06T07:59:01Z</time></trkpt><trkpt lat="45.41953241824229" lon="10.540335209772762"><ele>114.0</ele><time>2026-04-06T07:59:03Z</time></trkpt><trkpt lat="45.419647659546634" lon="10.540273395778282"><ele>114.5</ele><time>2026-04-06T07:59:05Z</time></trkpt><trkpt lat="45.41975949318519" lon="10.540210307650392"><ele>115.0</ele><time>2026-04-06T07:59:07Z</time></trkpt><trkpt lat="45.419863694157144" lon="10.54013163353316"><ele>115.2</ele><time>2026-04-06T07:59:09Z</time></trkpt><trkpt lat="45.41996047782944" lon="10.540057315876343"><ele>115.4</ele><time>2026-04-06T07:59:11Z</time></trkpt><trkpt lat="45.42005225955782" lon="10.539983835845883"><ele>115.6</ele><time>2026-04-06T07:59:13Z</time></trkpt><trkpt lat="45.420146703266035" lon="10.539907288509895"><ele>115.8</ele><time>2026-04-06T07:59:15Z</time></trkpt><trkpt lat="45.420230760612306" lon="10.539823116868247"><ele>116.0</ele><time>2026-04-06T07:59:17Z</time></trkpt><trkpt lat="45.420314861153166" lon="10.539730344089648"><ele>116.0</ele><time>2026-04-06T07:59:19Z</time></trkpt><trkpt lat="45.420393009669155" lon="10.539631401783621"><ele>116.0</ele><time>2026-04-06T07:59:21Z</time></trkpt><trkpt lat="45.42045934946708" lon="10.539533969637107"><ele>116.0</ele><time>2026-04-06T07:59:23Z</time></trkpt><trkpt lat="45.42053024299759" lon="10.539448180014832"><ele>116.0</ele><time>2026-04-06T07:59:25Z</time></trkpt><trkpt lat="45.420621820456" lon="10.539398098953384"><ele>116.0</ele><time>2026-04-06T07:59:27Z</time></trkpt><trkpt lat="45.420704119874735" lon="10.53935140455796"><ele>117.0</ele><time>2026-04-06T07:59:29Z</time></trkpt><trkpt lat="45.420797322829294" lon="10.539303053125876"><ele>118.0</ele><time>2026-04-06T07:59:31Z</time></trkpt><trkpt lat="45.420896778071686" lon="10.539256148196996"><ele>119.0</ele><time>2026-04-06T07:59:33Z</time></trkpt><trkpt lat="45.42100178398039" lon="10.539212176716708"><ele>120.0</ele><time>2026-04-06T07:59:35Z</time></trkpt><trkpt lat="45.42110626652376" lon="10.53916522448228"><ele>121.0</ele><time>2026-04-06T07:59:37Z</time></trkpt><trkpt lat="45.421217439654555" lon="10.53912222088764"><ele>120.5</ele><time>2026-04-06T07:59:39Z</time></trkpt><trkpt lat="45.42132699441663" lon="10.5390804107348"><ele>120.0</ele><time>2026-04-06T07:59:41Z</time></trkpt><trkpt lat="45.4214351047722" lon="10.539035007388732"><ele>119.5</ele><time>2026-04-06T07:59:43Z</time></trkpt><trkpt lat="45.421546205980896" lon="10.538980164276506"><ele>119.0</ele><time>2026-04-06T07:59:45Z</time></trkpt><trkpt lat="45.421651035799464" lon="10.538926030407728"><ele>119.0</ele><time>2026-04-06T07:59:47Z</time></trkpt><trkpt lat="45.42175697411503" lon="10.538870805679107"><ele>119.0</ele><time>2026-04-06T07:59:49Z</time></trkpt><trkpt lat="45.42186164292334" lon="10.53880917101324"><ele>119.0</ele><time>2026-04-06T07:59:51Z</time></trkpt><trkpt lat="45.42196151839779" lon="10.538750242406945"><ele>119.0</ele><time>2026-04-06T07:59:53Z</time></trkpt><trkpt lat="45.42206069678153" lon="10.538679755697865"><ele>119.0</ele><time>2026-04-06T07:59:55Z</time></trkpt><trkpt lat="45.42217840489161" lon="10.538616477315943"><ele>119.83333333333333</ele><time>2026-04-06T07:59:57Z</time></trkpt><trkpt lat="45.42223759596663" lon="10.53858219985463"><ele>120.66666666666666</ele><time>2026-04-06T07:59:58Z</time></trkpt><trkpt lat="45.422299213838194" lon="10.53854896759443"><ele>121.5</ele><time>2026-04-06T07:59:59Z</time></trkpt><trkpt lat="45.42235891415134" lon="10.538515412273057"><ele>122.33333333333334</ele><time>2026-04-06T08:00:00Z</time></trkpt><trkpt lat="45.42241965183379" lon="10.53847751990233"><ele>123.16666666666667</ele><time>2026-04-06T08:00:01Z</time></trkpt><trkpt lat="45.42248176409169" lon="10.538433355682628"><ele>124.0</ele><time>2026-04-06T08:00:02Z</time></trkpt><trkpt lat="45.4226004901453" lon="10.53836962475814"><ele>124.00000000000001</ele><time>2026-04-06T08:00:04Z</time></trkpt><trkpt lat="45.422661454427015" lon="10.538346566941389"><ele>124.0</ele><time>2026-04-06T08:00:05Z</time></trkpt><trkpt lat="45.42273196056595" lon="10.538328366330546"><ele>124.0</ele><time>2026-04-06T08:00:06Z</time></trkpt><trkpt lat="45.42284826585972" lon="10.538299106621436"><ele>124.0</ele><time>2026-04-06T08:00:08Z</time></trkpt><trkpt lat="45.422972663607815" lon="10.538263506815168"><ele>124.00000000000001</ele><time>2026-04-06T08:00:10Z</time></trkpt><trkpt lat="45.42303804804029" lon="10.538243582400192"><ele>124.0</ele><time>2026-04-06T08:00:11Z</time></trkpt><trkpt lat="45.42315956343411" lon="10.538200866857746"><ele>124.4</ele><time>2026-04-06T08:00:13Z</time></trkpt><trkpt lat="45.42322272563161" lon="10.538178184734637"><ele>124.80000000000001</ele><time>2026-04-06T08:00:14Z</time></trkpt><trkpt lat="45.42328565542018" lon="10.538161603777581"><ele>125.19999999999999</ele><time>2026-04-06T08:00:15Z</time></trkpt><trkpt lat="45.423396263239574" lon="10.538113121528763"><ele>125.6</ele><time>2026-04-06T08:00:17Z</time></trkpt><trkpt lat="45.423516406139754" lon="10.538068276783406"><ele>126.0</ele><time>2026-04-06T08:00:19Z</time></trkpt><trkpt lat="45.4236221860183" lon="10.538021609746794"><ele>126.0</ele><time>2026-04-06T08:00:21Z</time></trkpt><trkpt lat="45.42373491289635" lon="10.53797896871048"><ele>126.0</ele><time>2026-04-06T08:00:23Z</time></trkpt><trkpt lat="45.42384108921222" lon="10.537950862380926"><ele>126.0</ele><time>2026-04-06T08:00:25Z</time></trkpt><trkpt lat="45.4239480320809" lon="10.53793841820644"><ele>126.0</ele><time>2026-04-06T08:00:27Z</time></trkpt><trkpt lat="45.4240512128973" lon="10.537930026545597"><ele>126.0</ele><time>2026-04-06T08:00:29Z</time></trkpt><trkpt lat="45.42415544321104" lon="10.537927635866359"><ele>125.6</ele><time>2026-04-06T08:00:31Z</time></trkpt><trkpt lat="45.4242581370778" lon="10.537931872364247"><ele>125.19999999999999</ele><time>2026-04-06T08:00:33Z</time></trkpt><trkpt lat="45.4243576027262" lon="10.537916179925865"><ele>124.80000000000001</ele><time>2026-04-06T08:00:35Z</time></trkpt><trkpt lat="45.42445303920367" lon="10.537870233390162"><ele>124.4</ele><time>2026-04-06T08:00:37Z</time></trkpt><trkpt lat="45.4245378131437" lon="10.537904464171104"><ele>124.0</ele><time>2026-04-06T08:00:39Z</time></trkpt><trkpt lat="45.42463112930656" lon="10.537978305535537"><ele>123.2</ele><time>2026-04-06T08:00:41Z</time></trkpt><trkpt lat="45.42472296963415" lon="10.538075680448701"><ele>122.4</ele><time>2026-04-06T08:00:43Z</time></trkpt><trkpt lat="45.424831189375475" lon="10.538185198683417"><ele>121.6</ele><time>2026-04-06T08:00:45Z</time></trkpt><trkpt lat="45.42493682993873" lon="10.538283253300005"><ele>120.8</ele><time>2026-04-06T08:00:47Z</time></trkpt><trkpt lat="45.424991695812125" lon="10.538331823845848"><ele>120.0</ele><time>2026-04-06T08:00:48Z</time></trkpt><trkpt lat="45.425048608943264" lon="10.538373577466471"><ele>120.0</ele><time>2026-04-06T08:00:49Z</time></trkpt><trkpt lat="45.425108826588" lon="10.538407570296634"><ele>120.0</ele><time>2026-04-06T08:00:50Z</time></trkpt><trkpt lat="45.42522015997816" lon="10.538451487344942"><ele>120.0</ele><time>2026-04-06T08:00:52Z</time></trkpt><trkpt lat="45.425318748872314" lon="10.538478334921392"><ele>120.0</ele><time>2026-04-06T08:00:54Z</time></trkpt><trkpt lat="45.42541857869988" lon="10.538521768137288"><ele>120.0</ele><time>2026-04-06T08:00:56Z</time></trkpt><trkpt lat="45.425525609366645" lon="10.538561437912016"><ele>119.6</ele><time>2026-04-06T08:00:58Z</time></trkpt><trkpt lat="45.42563503501451" lon="10.538587242483983"><ele>119.2</ele><time>2026-04-06T08:01:00Z</time></trkpt><trkpt lat="45.42573929700862" lon="10.538607533364532"><ele>118.80000000000001</ele><time>2026-04-06T08:01:02Z</time></trkpt><trkpt lat="45.42585143767808" lon="10.538617802121356"><ele>118.4</ele><time>2026-04-06T08:01:04Z</time></trkpt><trkpt lat="45.42595748955437" lon="10.538618116428708"><ele>118.0</ele><time>2026-04-06T08:01:06Z</time></trkpt><trkpt lat="45.42606877272482" lon="10.538608734114707"><ele>118.0</ele><time>2026-04-06T08:01:08Z</time></trkpt><trkpt lat="45.42616734253686" lon="10.538590237205502"><ele>118.00000000000001</ele><time>2026-04-06T08:01:10Z</time></trkpt><trkpt lat="45.42626063680761" lon="10.538571690447922"><ele>118.00000000000001</ele><time>2026-04-06T08:01:12Z</time></trkpt><trkpt lat="45.42635125365419" lon="10.53855099668887"><ele>118.0</ele><time>2026-04-06T08:01:14Z</time></trkpt><trkpt lat="45.42644423812275" lon="10.538539468123446"><ele>118.0</ele><time>2026-04-06T08:01:16Z</time></trkpt><trkpt lat="45.42653143677732" lon="10.538526531119812"><ele>118.33333333333334</ele><time>2026-04-06T08:01:18Z</time></trkpt><trkpt lat="45.426622215740366" lon="10.538519410464522"><ele>118.66666666666667</ele><time>2026-04-06T08:01:20Z</time></trkpt><trkpt lat="45.42671038207632" lon="10.53851520854636"><ele>119.0</ele><time>2026-04-06T08:01:22Z</time></trkpt><trkpt lat="45.426805878145515" lon="10.538517994990624"><ele>119.33333333333334</ele><time>2026-04-06T08:01:24Z</time></trkpt><trkpt lat="45.42689209221781" lon="10.538521063408592"><ele>119.66666666666667</ele><time>2026-04-06T08:01:26Z</time></trkpt><trkpt lat="45.42697881843615" lon="10.53852281791044"><ele>120.0</ele><time>2026-04-06T08:01:28Z</time></trkpt><trkpt lat="45.42705537009768" lon="10.538474269323293"><ele>120.0</ele><time>2026-04-06T08:01:30Z</time></trkpt><trkpt lat="45.42706999277831" lon="10.538353411259237"><ele>120.0</ele><time>2026-04-06T08:01:32Z</time></trkpt><trkpt lat="45.42700440834171" lon="10.538250752666693"><ele>120.0</ele><time>2026-04-06T08:01:34Z</time></trkpt><trkpt lat="45.426953595259874" lon="10.538136299166075"><ele>120.0</ele><time>2026-04-06T08:01:36Z</time></trkpt><trkpt lat="45.426909041797266" lon="10.538024898225375"><ele>120.0</ele><time>2026-04-06T08:01:38Z</time></trkpt><trkpt lat="45.426870407725794" lon="10.537914541247268"><ele>120.83333333333333</ele><time>2026-04-06T08:01:40Z</time></trkpt><trkpt lat="45.4268391218385" lon="10.537809560696733"><ele>121.66666666666666</ele><time>2026-04-06T08:01:42Z</time></trkpt><trkpt lat="45.42681524922825" lon="10.53768250148984"><ele>122.5</ele><time>2026-04-06T08:01:45Z</time></trkpt><trkpt lat="45.42678553428194" lon="10.537578486127167"><ele>123.33333333333333</ele><time>2026-04-06T08:01:47Z</time></trkpt><trkpt lat="45.42674734621538" lon="10.537465416094582"><ele>124.16666666666666</ele><time>2026-04-06T08:01:49Z</time></trkpt><trkpt lat="45.426722449201954" lon="10.537337706168268"><ele>125.0</ele><time>2026-04-06T08:01:51Z</time></trkpt><trkpt lat="45.42667869169128" lon="10.537238452947763"><ele>124.99999999999999</ele><time>2026-04-06T08:01:53Z</time></trkpt><trkpt lat="45.42664771909511" lon="10.537152594910088"><ele>125.0</ele><time>2026-04-06T08:01:55Z</time></trkpt><trkpt lat="45.426682277723664" lon="10.537062082776565"><ele>125.0</ele><time>2026-04-06T08:01:59Z</time></trkpt><trkpt lat="45.42674909328876" lon="10.53697691590372"><ele>125.0</ele><time>2026-04-06T08:02:01Z</time></trkpt><trkpt lat="45.42681729382713" lon="10.53689479175476"><ele>124.99999999999999</ele><time>2026-04-06T08:02:03Z</time></trkpt><trkpt lat="45.42688021366377" lon="10.536806555202718"><ele>125.0</ele><time>2026-04-06T08:02:05Z</time></trkpt><trkpt lat="45.426929591393176" lon="10.536694042510778"><ele>125.6</ele><time>2026-04-06T08:02:07Z</time></trkpt><trkpt lat="45.42695106591303" lon="10.536557130961247"><ele>126.2</ele><time>2026-04-06T08:02:09Z</time></trkpt><trkpt lat="45.42698415842347" lon="10.536438369026826"><ele>126.80000000000001</ele><time>2026-04-06T08:02:11Z</time></trkpt><trkpt lat="45.42704338393405" lon="10.536341186647416"><ele>127.4</ele><time>2026-04-06T08:02:13Z</time></trkpt><trkpt lat="45.42712199899141" lon="10.536281688048085"><ele>128.0</ele><time>2026-04-06T08:02:15Z</time></trkpt><trkpt lat="45.42718595653387" lon="10.536182236827193"><ele>127.99999999999999</ele><time>2026-04-06T08:02:17Z</time></trkpt><trkpt lat="45.42723744601193" lon="10.536094084298545"><ele>128.0</ele><time>2026-04-06T08:02:19Z</time></trkpt><trkpt lat="45.42723514532225" lon="10.535983625795266"><ele>128.0</ele><time>2026-04-06T08:02:21Z</time></trkpt><trkpt lat="45.42723729317923" lon="10.535883405720424"><ele>128.0</ele><time>2026-04-06T08:02:23Z</time></trkpt><trkpt lat="45.42724238802014" lon="10.535764882030776"><ele>127.99999999999999</ele><time>2026-04-06T08:02:25Z</time></trkpt><trkpt lat="45.42725611632205" lon="10.535639152401748"><ele>128.0</ele><time>2026-04-06T08:02:27Z</time></trkpt><trkpt lat="45.427299761777505" lon="10.535521772908922"><ele>127.99999999999999</ele><time>2026-04-06T08:02:29Z</time></trkpt><trkpt lat="45.42735542076377" lon="10.535428580685647"><ele>128.0</ele><time>2026-04-06T08:02:31Z</time></trkpt><trkpt lat="45.42738187849538" lon="10.535316920320534"><ele>128.0</ele><time>2026-04-06T08:02:33Z</time></trkpt><trkpt lat="45.42740160615751" lon="10.535203811992583"><ele>128.0</ele><time>2026-04-06T08:02:35Z</time></trkpt><trkpt lat="45.42740818924782" lon="10.5350949604146"><ele>127.99999999999999</ele><time>2026-04-06T08:02:37Z</time></trkpt><trkpt lat="45.42741920700809" lon="10.534980483794676"><ele>128.0</ele><time>2026-04-06T08:02:39Z</time></trkpt><trkpt lat="45.427432176016495" lon="10.534881033169306"><ele>128.71428571428572</ele><time>2026-04-06T08:02:41Z</time></trkpt><trkpt lat="45.427457662712584" lon="10.534797019655736"><ele>129.42857142857142</ele><time>2026-04-06T08:02:44Z</time></trkpt><trkpt lat="45.4275237364474" lon="10.534800639877599"><ele>130.14285714285714</ele><time>2026-04-06T08:02:49Z</time></trkpt><trkpt lat="45.427601363214535" lon="10.53486781367514"><ele>130.85714285714286</ele><time>2026-04-06T08:02:53Z</time></trkpt><trkpt lat="45.42766347139453" lon="10.534890279640864"><ele>131.57142857142856</ele><time>2026-04-06T08:02:55Z</time></trkpt><trkpt lat="45.4277365658293" lon="10.534921132319749"><ele>132.28571428571428</ele><time>2026-04-06T08:02:57Z</time></trkpt><trkpt lat="45.427805550040844" lon="10.534948526665422"><ele>133.0</ele><time>2026-04-06T08:02:59Z</time></trkpt><trkpt lat="45.427877295792264" lon="10.534978118244279"><ele>133.0</ele><time>2026-04-06T08:03:01Z</time></trkpt><trkpt lat="45.42794940166414" lon="10.535010470177031"><ele>133.0</ele><time>2026-04-06T08:03:03Z</time></trkpt><trkpt lat="45.4280155093483" lon="10.535034795876475"><ele>133.0</ele><time>2026-04-06T08:03:05Z</time></trkpt><trkpt lat="45.42810180029594" lon="10.5350755984051"><ele>133.0</ele><time>2026-04-06T08:03:08Z</time></trkpt><trkpt lat="45.42816823412356" lon="10.535122023055003"><ele>133.0</ele><time>2026-04-06T08:03:10Z</time></trkpt><trkpt lat="45.42823976381873" lon="10.535161084042876"><ele>133.0</ele><time>2026-04-06T08:03:12Z</time></trkpt><trkpt lat="45.42830592553925" lon="10.535193085328977"><ele>132.0</ele><time>2026-04-06T08:03:14Z</time></trkpt><trkpt lat="45.42838215491515" lon="10.53518150312928"><ele>131.0</ele><time>2026-04-06T08:03:17Z</time></trkpt><trkpt lat="45.42844675205942" lon="10.535184245236849"><ele>130.0</ele><time>2026-04-06T08:03:41Z</time></trkpt><trkpt lat="45.42850001540438" lon="10.535127590352024"><ele>129.0</ele><time>2026-04-06T08:03:53Z</time></trkpt><trkpt lat="45.428514831505645" lon="10.535030934415719"><ele>128.0</ele><time>2026-04-06T08:03:57Z</time></trkpt><trkpt lat="45.428527316206946" lon="10.534929894485698"><ele>127.0</ele><time>2026-04-06T08:03:59Z</time></trkpt><trkpt lat="45.428565413540476" lon="10.534813409736243"><ele>126.0</ele><time>2026-04-06T08:04:02Z</time></trkpt><trkpt lat="45.42855931878769" lon="10.53471496331342"><ele>126.0</ele><time>2026-04-06T08:04:06Z</time></trkpt><trkpt lat="45.42855334352393" lon="10.53461396334959"><ele>126.0</ele><time>2026-04-06T08:04:10Z</time></trkpt><trkpt lat="45.42855691728104" lon="10.534512524591316"><ele>126.0</ele><time>2026-04-06T08:04:13Z</time></trkpt><trkpt lat="45.42856501903114" lon="10.534393342691809"><ele>126.0</ele><time>2026-04-06T08:04:16Z</time></trkpt><trkpt lat="45.42857256132543" lon="10.534287261715825"><ele>126.0</ele><time>2026-04-06T08:04:19Z</time></trkpt><trkpt lat="45.42858308010756" lon="10.534188988796155"><ele>126.0</ele><time>2026-04-06T08:04:21Z</time></trkpt><trkpt lat="45.428609485468385" lon="10.534057927211283"><ele>125.83333333333333</ele><time>2026-04-06T08:04:23Z</time></trkpt><trkpt lat="45.42864163590527" lon="10.533910309673105"><ele>125.66666666666666</ele><time>2026-04-06T08:04:25Z</time></trkpt><trkpt lat="45.42866555747123" lon="10.53382607748928"><ele>125.5</ele><time>2026-04-06T08:04:26Z</time></trkpt><trkpt lat="45.428712948996555" lon="10.533714186024692"><ele>125.33333333333333</ele><time>2026-04-06T08:04:28Z</time></trkpt><trkpt lat="45.42877609102864" lon="10.53361661876581"><ele>125.16666666666666</ele><time>2026-04-06T08:04:30Z</time></trkpt><trkpt lat="45.42885674004858" lon="10.533626124209208"><ele>125.0</ele><time>2026-04-06T08:04:32Z</time></trkpt><trkpt lat="45.428958911057606" lon="10.533601410361895"><ele>123.83333333333333</ele><time>2026-04-06T08:04:34Z</time></trkpt><trkpt lat="45.428994851237846" lon="10.533480602843852"><ele>122.66666666666666</ele><time>2026-04-06T08:04:36Z</time></trkpt><trkpt lat="45.429008277890254" lon="10.53336480758808"><ele>121.5</ele><time>2026-04-06T08:04:39Z</time></trkpt><trkpt lat="45.42906646304946" lon="10.53330539980626"><ele>120.33333333333334</ele><time>2026-04-06T08:04:41Z</time></trkpt><trkpt lat="45.42915007811506" lon="10.533297989523142"><ele>119.16666666666667</ele><time>2026-04-06T08:04:43Z</time></trkpt><trkpt lat="45.42923695702015" lon="10.533305881078311"><ele>118.0</ele><time>2026-04-06T08:04:45Z</time></trkpt><trkpt lat="45.429327478240154" lon="10.533308116894904"><ele>118.00000000000001</ele><time>2026-04-06T08:04:47Z</time></trkpt><trkpt lat="45.42941723419869" lon="10.533317248805098"><ele>118.0</ele><time>2026-04-06T08:04:49Z</time></trkpt><trkpt lat="45.42950404190044" lon="10.533332431117389"><ele>118.0</ele><time>2026-04-06T08:04:51Z</time></trkpt><trkpt lat="45.42958840515111" lon="10.533348348249874"><ele>118.0</ele><time>2026-04-06T08:04:53Z</time></trkpt><trkpt lat="45.42966890132585" lon="10.533358670194088"><ele>118.00000000000001</ele><time>2026-04-06T08:04:55Z</time></trkpt><trkpt lat="45.42974758609905" lon="10.53337111663304"><ele>118.0</ele><time>2026-04-06T08:04:57Z</time></trkpt><trkpt lat="45.42982198030909" lon="10.533377545922155"><ele>117.57142857142857</ele><time>2026-04-06T08:04:59Z</time></trkpt><trkpt lat="45.42989469536067" lon="10.533392117587157"><ele>117.14285714285714</ele><time>2026-04-06T08:05:01Z</time></trkpt><trkpt lat="45.429968294856906" lon="10.533409239438061"><ele>116.71428571428571</ele><time>2026-04-06T08:05:03Z</time></trkpt><trkpt lat="45.430035347029836" lon="10.533410065149004"><ele>116.28571428571428</ele><time>2026-04-06T08:05:05Z</time></trkpt><trkpt lat="45.43011687702001" lon="10.533427716301594"><ele>115.85714285714286</ele><time>2026-04-06T08:05:08Z</time></trkpt><trkpt lat="45.43019179650733" lon="10.533395435803028"><ele>115.42857142857142</ele><time>2026-04-06T08:05:12Z</time></trkpt><trkpt lat="45.430256533463655" lon="10.53337074500913"><ele>114.99999999999999</ele><time>2026-04-06T08:05:14Z</time></trkpt><trkpt lat="45.43033534761193" lon="10.533344330054868"><ele>115.00000000000001</ele><time>2026-04-06T08:05:16Z</time></trkpt><trkpt lat="45.4304229883955" lon="10.53330481062534"><ele>115.0</ele><time>2026-04-06T08:05:18Z</time></trkpt><trkpt lat="45.43049266085484" lon="10.53324700860092"><ele>115.0</ele><time>2026-04-06T08:05:20Z</time></trkpt><trkpt lat="45.430551289383615" lon="10.533198896004244"><ele>115.0</ele><time>2026-04-06T08:05:22Z</time></trkpt><trkpt lat="45.43061205914672" lon="10.533172686354181"><ele>115.00000000000001</ele><time>2026-04-06T08:05:24Z</time></trkpt><trkpt lat="45.430703263691186" lon="10.533125458384209"><ele>115.0</ele><time>2026-04-06T08:05:27Z</time></trkpt><trkpt lat="45.43078077622815" lon="10.533075208920376"><ele>114.50000000000001</ele><time>2026-04-06T08:05:29Z</time></trkpt><trkpt lat="45.43086702507469" lon="10.53302345898088"><ele>114.0</ele><time>2026-04-06T08:05:31Z</time></trkpt><trkpt lat="45.43093436574033" lon="10.532976833218315"><ele>113.5</ele><time>2026-04-06T08:05:33Z</time></trkpt><trkpt lat="45.43101638732458" lon="10.532943286305073"><ele>113.0</ele><time>2026-04-06T08:05:35Z</time></trkpt><trkpt lat="45.43106959173281" lon="10.533003216425547"><ele>112.50000000000001</ele><time>2026-04-06T08:05:37Z</time></trkpt><trkpt lat="45.43109537963043" lon="10.533109746144458"><ele>112.0</ele><time>2026-04-06T08:05:39Z</time></trkpt><trkpt lat="45.43115098141143" lon="10.533202330217337"><ele>112.0</ele><time>2026-04-06T08:05:41Z</time></trkpt><trkpt lat="45.43122391637039" lon="10.533282561513674"><ele>111.99999999999999</ele><time>2026-04-06T08:05:43Z</time></trkpt><trkpt lat="45.431294530684" lon="10.533337690755937"><ele>111.99999999999999</ele><time>2026-04-06T08:05:45Z</time></trkpt><trkpt lat="45.43138151757007" lon="10.533288963512966"><ele>112.0</ele><time>2026-04-06T08:05:47Z</time></trkpt><trkpt lat="45.431450195183274" lon="10.533182603386715"><ele>112.0</ele><time>2026-04-06T08:05:49Z</time></trkpt><trkpt lat="45.43152961283895" lon="10.533112552291872"><ele>111.8</ele><time>2026-04-06T08:05:51Z</time></trkpt><trkpt lat="45.431627354711146" lon="10.533106024449237"><ele>111.6</ele><time>2026-04-06T08:05:53Z</time></trkpt><trkpt lat="45.43172118773821" lon="10.53310328368383"><ele>111.39999999999999</ele><time>2026-04-06T08:05:55Z</time></trkpt><trkpt lat="45.43181639516669" lon="10.533095546713929"><ele>111.19999999999999</ele><time>2026-04-06T08:05:57Z</time></trkpt><trkpt lat="45.43189016985316" lon="10.533007032013534"><ele>111.0</ele><time>2026-04-06T08:05:59Z</time></trkpt><trkpt lat="45.43196864989222" lon="10.532959744977612"><ele>111.0</ele><time>2026-04-06T08:06:01Z</time></trkpt><trkpt lat="45.43203985000168" lon="10.532901022467263"><ele>111.0</ele><time>2026-04-06T08:06:03Z</time></trkpt><trkpt lat="45.43207319783647" lon="10.532769699324845"><ele>111.0</ele><time>2026-04-06T08:06:05Z</time></trkpt><trkpt lat="45.4320608176861" lon="10.532625400451204"><ele>111.0</ele><time>2026-04-06T08:06:07Z</time></trkpt><trkpt lat="45.43205412230841" lon="10.53249875199938"><ele>111.0</ele><time>2026-04-06T08:06:09Z</time></trkpt><trkpt lat="45.43203594605489" lon="10.532375871112764"><ele>110.8</ele><time>2026-04-06T08:06:11Z</time></trkpt><trkpt lat="45.43204655392678" lon="10.53225939174748"><ele>110.6</ele><time>2026-04-06T08:06:13Z</time></trkpt><trkpt lat="45.4320969509472" lon="10.532153631855643"><ele>110.4</ele><time>2026-04-06T08:06:15Z</time></trkpt><trkpt lat="45.43219609551242" lon="10.532134852762349"><ele>110.2</ele><time>2026-04-06T08:06:17Z</time></trkpt><trkpt lat="45.43229409025586" lon="10.532156557681132"><ele>110.0</ele><time>2026-04-06T08:06:19Z</time></trkpt><trkpt lat="45.43239099703686" lon="10.532182826643636"><ele>109.6</ele><time>2026-04-06T08:06:21Z</time></trkpt><trkpt lat="45.432492535799334" lon="10.532226257662847"><ele>109.2</ele><time>2026-04-06T08:06:23Z</time></trkpt><trkpt lat="45.43258649184784" lon="10.532290930438508"><ele>108.80000000000001</ele><time>2026-04-06T08:06:25Z</time></trkpt><trkpt lat="45.43269167100355" lon="10.532348228058991"><ele>108.4</ele><time>2026-04-06T08:06:27Z</time></trkpt><trkpt lat="45.432798249351784" lon="10.532424431779846"><ele>108.0</ele><time>2026-04-06T08:06:29Z</time></trkpt><trkpt lat="45.43290544931551" lon="10.53249729053597"><ele>107.4</ele><time>2026-04-06T08:06:31Z</time></trkpt><trkpt lat="45.43301336149819" lon="10.532567550964954"><ele>106.80000000000001</ele><time>2026-04-06T08:06:33Z</time></trkpt><trkpt lat="45.433071050024765" lon="10.532606787262175"><ele>106.2</ele><time>2026-04-06T08:06:34Z</time></trkpt><trkpt lat="45.43318211223945" lon="10.532677367431413"><ele>105.6</ele><time>2026-04-06T08:06:36Z</time></trkpt><trkpt lat="45.4332403820121" lon="10.53271362751567"><ele>105.0</ele><time>2026-04-06T08:06:37Z</time></trkpt><trkpt lat="45.43334639808008" lon="10.532782369055225"><ele>105.0</ele><time>2026-04-06T08:06:39Z</time></trkpt><trkpt lat="45.43346020810362" lon="10.532852769896698"><ele>105.0</ele><time>2026-04-06T08:06:41Z</time></trkpt><trkpt lat="45.43355514979353" lon="10.532912947281421"><ele>105.0</ele><time>2026-04-06T08:06:43Z</time></trkpt><trkpt lat="45.43365274206486" lon="10.532969536443355"><ele>105.0</ele><time>2026-04-06T08:06:45Z</time></trkpt><trkpt lat="45.43375228375959" lon="10.533027010280861"><ele>105.0</ele><time>2026-04-06T08:06:47Z</time></trkpt><trkpt lat="45.43385519162668" lon="10.53309485597178"><ele>105.25</ele><time>2026-04-06T08:06:49Z</time></trkpt><trkpt lat="45.433962832743816" lon="10.53317604509539"><ele>105.5</ele><time>2026-04-06T08:06:51Z</time></trkpt><trkpt lat="45.43407968901815" lon="10.533233098458133"><ele>105.75</ele><time>2026-04-06T08:06:53Z</time></trkpt><trkpt lat="45.43418907199077" lon="10.533304358169737"><ele>106.0</ele><time>2026-04-06T08:06:55Z</time></trkpt><trkpt lat="45.43430307535623" lon="10.533366732349924"><ele>106.0</ele><time>2026-04-06T08:06:57Z</time></trkpt><trkpt lat="45.43441308821397" lon="10.53343157167446"><ele>106.0</ele><time>2026-04-06T08:06:59Z</time></trkpt><trkpt lat="45.43447203979739" lon="10.533465667973239"><ele>106.0</ele><time>2026-04-06T08:07:00Z</time></trkpt><trkpt lat="45.434583914980834" lon="10.533534149854207"><ele>106.0</ele><time>2026-04-06T08:07:02Z</time></trkpt><trkpt lat="45.43469488397379" lon="10.533604145365564"><ele>106.0</ele><time>2026-04-06T08:07:04Z</time></trkpt><trkpt lat="45.434799654858196" lon="10.533685754570943"><ele>106.0</ele><time>2026-04-06T08:07:06Z</time></trkpt><trkpt lat="45.43489140477785" lon="10.533779518968116"><ele>106.0</ele><time>2026-04-06T08:07:08Z</time></trkpt><trkpt lat="45.43499108292853" lon="10.533843804421055"><ele>106.0</ele><time>2026-04-06T08:07:10Z</time></trkpt><trkpt lat="45.435112306461264" lon="10.533827736512324"><ele>106.0</ele><time>2026-04-06T08:07:12Z</time></trkpt><trkpt lat="45.435231314884334" lon="10.533788625577795"><ele>106.0</ele><time>2026-04-06T08:07:14Z</time></trkpt><trkpt lat="45.435340466243424" lon="10.533744231677163"><ele>106.0</ele><time>2026-04-06T08:07:16Z</time></trkpt><trkpt lat="45.43544399834942" lon="10.533689863717242"><ele>106.0</ele><time>2026-04-06T08:07:18Z</time></trkpt><trkpt lat="45.43554359535129" lon="10.53362318442517"><ele>106.0</ele><time>2026-04-06T08:07:20Z</time></trkpt><trkpt lat="45.43564106154273" lon="10.533544950594113"><ele>106.0</ele><time>2026-04-06T08:07:22Z</time></trkpt><trkpt lat="45.43573717339273" lon="10.533463669608937"><ele>106.4</ele><time>2026-04-06T08:07:24Z</time></trkpt><trkpt lat="45.43582474534585" lon="10.533381009765941"><ele>106.8</ele><time>2026-04-06T08:07:26Z</time></trkpt><trkpt lat="45.43591406668102" lon="10.533309531896805"><ele>107.20000000000002</ele><time>2026-04-06T08:07:28Z</time></trkpt><trkpt lat="45.4360189474664" lon="10.533278637425028"><ele>107.60000000000001</ele><time>2026-04-06T08:07:30Z</time></trkpt><trkpt lat="45.43612476615446" lon="10.533225312102557"><ele>108.0</ele><time>2026-04-06T08:07:32Z</time></trkpt><trkpt lat="45.43623014488706" lon="10.533171863669239"><ele>107.75</ele><time>2026-04-06T08:07:34Z</time></trkpt><trkpt lat="45.43634651253907" lon="10.533142788223378"><ele>107.5</ele><time>2026-04-06T08:07:36Z</time></trkpt><trkpt lat="45.43646080353892" lon="10.533118479921445"><ele>107.25</ele><time>2026-04-06T08:07:38Z</time></trkpt><trkpt lat="45.436578474175754" lon="10.5330802417278"><ele>107.0</ele><time>2026-04-06T08:07:40Z</time></trkpt><trkpt lat="45.436697352706524" lon="10.533056823840681"><ele>107.0</ele><time>2026-04-06T08:07:42Z</time></trkpt><trkpt lat="45.43681781096594" lon="10.53302185617549"><ele>107.0</ele><time>2026-04-06T08:07:44Z</time></trkpt><trkpt lat="45.436932933622636" lon="10.532997470326116"><ele>107.0</ele><time>2026-04-06T08:07:46Z</time></trkpt><trkpt lat="45.4370491223476" lon="10.532966595219358"><ele>107.0</ele><time>2026-04-06T08:07:48Z</time></trkpt><trkpt lat="45.43716325099403" lon="10.53293777157646"><ele>107.0</ele><time>2026-04-06T08:07:50Z</time></trkpt><trkpt lat="45.43727685938848" lon="10.532912186744994"><ele>107.0</ele><time>2026-04-06T08:07:52Z</time></trkpt><trkpt lat="45.437389368505045" lon="10.532886349521283"><ele>107.0</ele><time>2026-04-06T08:07:54Z</time></trkpt><trkpt lat="45.43750310831213" lon="10.532860732960765"><ele>107.0</ele><time>2026-04-06T08:07:56Z</time></trkpt><trkpt lat="45.4376171782686" lon="10.532834856899026"><ele>107.19999999999999</ele><time>2026-04-06T08:07:58Z</time></trkpt><trkpt lat="45.4377287305854" lon="10.532813664411824"><ele>107.39999999999999</ele><time>2026-04-06T08:08:00Z</time></trkpt><trkpt lat="45.437840835213414" lon="10.532779832096168"><ele>107.60000000000001</ele><time>2026-04-06T08:08:02Z</time></trkpt><trkpt lat="45.4379476490176" lon="10.532754150265673"><ele>107.80000000000001</ele><time>2026-04-06T08:08:04Z</time></trkpt><trkpt lat="45.43805302752726" lon="10.532727048982027"><ele>108.0</ele><time>2026-04-06T08:08:06Z</time></trkpt><trkpt lat="45.43815594898485" lon="10.532705469174212"><ele>108.4</ele><time>2026-04-06T08:08:08Z</time></trkpt><trkpt lat="45.43826138278832" lon="10.532684009342402"><ele>108.80000000000001</ele><time>2026-04-06T08:08:10Z</time></trkpt><trkpt lat="45.438375833611666" lon="10.53265924141217"><ele>109.2</ele><time>2026-04-06T08:08:12Z</time></trkpt><trkpt lat="45.43848780696929" lon="10.532630646421593"><ele>109.6</ele><time>2026-04-06T08:08:14Z</time></trkpt><trkpt lat="45.43859426844073" lon="10.53260713759436"><ele>110.0</ele><time>2026-04-06T08:08:16Z</time></trkpt><trkpt lat="45.4386999313545" lon="10.532581975579147"><ele>110.0</ele><time>2026-04-06T08:08:18Z</time></trkpt><trkpt lat="45.43880740593762" lon="10.532558081609688"><ele>110.0</ele><time>2026-04-06T08:08:20Z</time></trkpt><trkpt lat="45.43891137432458" lon="10.53253069454047"><ele>110.0</ele><time>2026-04-06T08:08:22Z</time></trkpt><trkpt lat="45.439013476798436" lon="10.532508017864359"><ele>110.0</ele><time>2026-04-06T08:08:24Z</time></trkpt><trkpt lat="45.439114142245025" lon="10.532486556701562"><ele>110.0</ele><time>2026-04-06T08:08:26Z</time></trkpt><trkpt lat="45.439223057713036" lon="10.532459261075783"><ele>110.0</ele><time>2026-04-06T08:08:28Z</time></trkpt><trkpt lat="45.43932390775481" lon="10.532442948505878"><ele>110.0</ele><time>2026-04-06T08:08:30Z</time></trkpt><trkpt lat="45.43942387755365" lon="10.532417548606139"><ele>110.0</ele><time>2026-04-06T08:08:32Z</time></trkpt><trkpt lat="45.43952388099918" lon="10.53239201214973"><ele>110.0</ele><time>2026-04-06T08:08:34Z</time></trkpt><trkpt lat="45.43960483524622" lon="10.532369415287903"><ele>110.0</ele><time>2026-04-06T08:08:36Z</time></trkpt><trkpt lat="45.4396216464339" lon="10.532264809269924"><ele>109.66666666666666</ele><time>2026-04-06T08:08:39Z</time></trkpt><trkpt lat="45.43970134296753" lon="10.532257515665254"><ele>109.33333333333333</ele><time>2026-04-06T08:08:41Z</time></trkpt><trkpt lat="45.439793743295574" lon="10.53226142976847"><ele>109.0</ele><time>2026-04-06T08:08:43Z</time></trkpt><trkpt lat="45.43987926419607" lon="10.532252951924589"><ele>108.66666666666666</ele><time>2026-04-06T08:08:45Z</time></trkpt><trkpt lat="45.43996476191355" lon="10.532231685157619"><ele>108.33333333333333</ele><time>2026-04-06T08:08:47Z</time></trkpt><trkpt lat="45.440035365500414" lon="10.532223491937804"><ele>108.0</ele><time>2026-04-06T08:08:49Z</time></trkpt><trkpt lat="45.44011608193811" lon="10.532210352312891"><ele>108.0</ele><time>2026-04-06T08:08:51Z</time></trkpt><trkpt lat="45.44019485276618" lon="10.532178286387513"><ele>108.0</ele><time>2026-04-06T08:08:53Z</time></trkpt><trkpt lat="45.44021080002237" lon="10.532073341878249"><ele>108.0</ele><time>2026-04-06T08:08:55Z</time></trkpt><trkpt lat="45.44020709638027" lon="10.531954742214959"><ele>108.0</ele><time>2026-04-06T08:08:57Z</time></trkpt><trkpt lat="45.44020848814083" lon="10.531842899408586"><ele>108.0</ele><time>2026-04-06T08:08:59Z</time></trkpt><trkpt lat="45.440206744577445" lon="10.531722447379687"><ele>108.0</ele><time>2026-04-06T08:09:01Z</time></trkpt><trkpt lat="45.44020057300587" lon="10.53161598746729"><ele>108.66666666666667</ele><time>2026-04-06T08:09:03Z</time></trkpt><trkpt lat="45.44018803554286" lon="10.531496184612205"><ele>109.33333333333334</ele><time>2026-04-06T08:09:05Z</time></trkpt><trkpt lat="45.44017056529584" lon="10.5313860800168"><ele>110.0</ele><time>2026-04-06T08:09:07Z</time></trkpt><trkpt lat="45.440156989333765" lon="10.531274752615664"><ele>110.66666666666667</ele><time>2026-04-06T08:09:09Z</time></trkpt><trkpt lat="45.440134600520224" lon="10.531168129790112"><ele>111.33333333333334</ele><time>2026-04-06T08:09:11Z</time></trkpt><trkpt lat="45.4401183041893" lon="10.531069784398003"><ele>112.0</ele><time>2026-04-06T08:09:13Z</time></trkpt><trkpt lat="45.4401205518933" lon="10.53097874104672"><ele>112.85714285714286</ele><time>2026-04-06T08:09:15Z</time></trkpt><trkpt lat="45.44017707223573" lon="10.530906175140924"><ele>113.71428571428572</ele><time>2026-04-06T08:09:18Z</time></trkpt><trkpt lat="45.4402131809293" lon="10.530830945805146"><ele>114.57142857142857</ele><time>2026-04-06T08:09:21Z</time></trkpt><trkpt lat="45.44025819746309" lon="10.530747901855896"><ele>115.42857142857143</ele><time>2026-04-06T08:09:24Z</time></trkpt><trkpt lat="45.44029490313978" lon="10.530667617046692"><ele>116.28571428571429</ele><time>2026-04-06T08:09:27Z</time></trkpt><trkpt lat="45.44032426040775" lon="10.530583578532662"><ele>117.14285714285714</ele><time>2026-04-06T08:09:34Z</time></trkpt><trkpt lat="45.44036440456701" lon="10.530491761692089"><ele>118.0</ele><time>2026-04-06T08:09:39Z</time></trkpt><trkpt lat="45.440352961949024" lon="10.530389980164252"><ele>118.71428571428571</ele><time>2026-04-06T08:09:42Z</time></trkpt><trkpt lat="45.44036271530452" lon="10.53028003482737"><ele>119.42857142857144</ele><time>2026-04-06T08:09:45Z</time></trkpt><trkpt lat="45.44039421508703" lon="10.530198007618512"><ele>120.14285714285715</ele><time>2026-04-06T08:09:47Z</time></trkpt><trkpt lat="45.4404075896432" lon="10.53010329197678"><ele>120.85714285714286</ele><time>2026-04-06T08:09:49Z</time></trkpt><trkpt lat="45.44041711991147" lon="10.530013961563204"><ele>121.57142857142858</ele><time>2026-04-06T08:09:51Z</time></trkpt><trkpt lat="45.44043280125388" lon="10.5299049993173"><ele>122.2857142857143</ele><time>2026-04-06T08:09:53Z</time></trkpt><trkpt lat="45.440453963242255" lon="10.529809591188835"><ele>123.00000000000001</ele><time>2026-04-06T08:09:55Z</time></trkpt><trkpt lat="45.44047083237116" lon="10.529706217663893"><ele>122.0</ele><time>2026-04-06T08:09:57Z</time></trkpt><trkpt lat="45.44049008540023" lon="10.529595063638741"><ele>121.0</ele><time>2026-04-06T08:09:59Z</time></trkpt><trkpt lat="45.440497560010165" lon="10.529484877032468"><ele>120.0</ele><time>2026-04-06T08:10:01Z</time></trkpt><trkpt lat="45.4404996069109" lon="10.529375261260695"><ele>119.0</ele><time>2026-04-06T08:10:03Z</time></trkpt><trkpt lat="45.44050471804034" lon="10.529265097614644"><ele>118.0</ele><time>2026-04-06T08:10:05Z</time></trkpt><trkpt lat="45.44052416443084" lon="10.529166993709373"><ele>117.0</ele><time>2026-04-06T08:10:07Z</time></trkpt><trkpt lat="45.440541485256965" lon="10.529062839879117"><ele>117.0</ele><time>2026-04-06T08:10:09Z</time></trkpt><trkpt lat="45.440549329014466" lon="10.528954463827167"><ele>117.00000000000001</ele><time>2026-04-06T08:10:11Z</time></trkpt><trkpt lat="45.44055713547405" lon="10.528863955748571"><ele>117.0</ele><time>2026-04-06T08:10:13Z</time></trkpt><trkpt lat="45.440579553386314" lon="10.528779974154872"><ele>117.0</ele><time>2026-04-06T08:10:15Z</time></trkpt><trkpt lat="45.44060461270721" lon="10.528695030223261"><ele>117.00000000000001</ele><time>2026-04-06T08:10:17Z</time></trkpt><trkpt lat="45.440673492433774" lon="10.528617862231739"><ele>117.0</ele><time>2026-04-06T08:10:20Z</time></trkpt><trkpt lat="45.44074401996652" lon="10.528616844584835"><ele>117.0</ele><time>2026-04-06T08:10:22Z</time></trkpt><trkpt lat="45.44080854215727" lon="10.528600804626729"><ele>117.0</ele><time>2026-04-06T08:10:25Z</time></trkpt><trkpt lat="45.440873840934685" lon="10.528622210803734"><ele>117.0</ele><time>2026-04-06T08:10:27Z</time></trkpt><trkpt lat="45.440964150639736" lon="10.528621024858431"><ele>117.0</ele><time>2026-04-06T08:10:30Z</time></trkpt><trkpt lat="45.44105280241983" lon="10.528655309161495"><ele>117.0</ele><time>2026-04-06T08:10:33Z</time></trkpt><trkpt lat="45.441108624804535" lon="10.528696920927864"><ele>117.0</ele><time>2026-04-06T08:10:35Z</time></trkpt><trkpt lat="45.441169282479805" lon="10.52873198420104"><ele>117.0</ele><time>2026-04-06T08:10:37Z</time></trkpt><trkpt lat="45.4412487510809" lon="10.528781537953936"><ele>116.19999999999999</ele><time>2026-04-06T08:10:40Z</time></trkpt><trkpt lat="45.44133574997729" lon="10.528833665074671"><ele>115.39999999999999</ele><time>2026-04-06T08:10:43Z</time></trkpt><trkpt lat="45.44142617273336" lon="10.528863982055446"><ele>114.60000000000001</ele><time>2026-04-06T08:10:46Z</time></trkpt><trkpt lat="45.44151152358346" lon="10.528829049199347"><ele>113.80000000000001</ele><time>2026-04-06T08:10:49Z</time></trkpt><trkpt lat="45.44157382434994" lon="10.528735029080705"><ele>113.0</ele><time>2026-04-06T08:10:52Z</time></trkpt><trkpt lat="45.441614985947254" lon="10.528621607895131"><ele>114.99999999999999</ele><time>2026-04-06T08:10:55Z</time></trkpt><trkpt lat="45.44165633125025" lon="10.528516636007982"><ele>117.0</ele><time>2026-04-06T08:10:58Z</time></trkpt><trkpt lat="45.44169788780735" lon="10.528403387386682"><ele>119.0</ele><time>2026-04-06T08:11:01Z</time></trkpt><trkpt lat="45.44172845376755" lon="10.528291735504746"><ele>121.0</ele><time>2026-04-06T08:11:04Z</time></trkpt><trkpt lat="45.44176359336862" lon="10.528190257127617"><ele>122.99999999999999</ele><time>2026-04-06T08:11:07Z</time></trkpt><trkpt lat="45.44180356431213" lon="10.528092925715237"><ele>125.0</ele><time>2026-04-06T08:11:11Z</time></trkpt><trkpt lat="45.441848737464305" lon="10.528008331755943"><ele>125.0</ele><time>2026-04-06T08:11:16Z</time></trkpt><trkpt lat="45.44189003245346" lon="10.527920438653835"><ele>125.0</ele><time>2026-04-06T08:11:21Z</time></trkpt><trkpt lat="45.44193540120515" lon="10.527857846447535"><ele>125.0</ele><time>2026-04-06T08:11:26Z</time></trkpt><trkpt lat="45.441876706513824" lon="10.527947127287636"><ele>125.0</ele><time>2026-04-06T08:11:32Z</time></trkpt><trkpt lat="45.4418334646882" lon="10.52803402610979"><ele>125.0</ele><time>2026-04-06T08:11:35Z</time></trkpt><trkpt lat="45.44177709653732" lon="10.527977497438183"><ele>125.0</ele><time>2026-04-06T08:11:38Z</time></trkpt><trkpt lat="45.44176285813965" lon="10.527867481163192"><ele>125.0</ele><time>2026-04-06T08:11:41Z</time></trkpt><trkpt lat="45.44176553640757" lon="10.527750224873637"><ele>127.66666666666666</ele><time>2026-04-06T08:11:44Z</time></trkpt><trkpt lat="45.44177298201447" lon="10.527643206197693"><ele>130.33333333333331</ele><time>2026-04-06T08:11:47Z</time></trkpt><trkpt lat="45.44177434742831" lon="10.527540048706287"><ele>133.0</ele><time>2026-04-06T08:11:50Z</time></trkpt><trkpt lat="45.441779775874146" lon="10.527425840815507"><ele>135.66666666666666</ele><time>2026-04-06T08:11:53Z</time></trkpt><trkpt lat="45.44178137529072" lon="10.527306827572467"><ele>138.33333333333334</ele><time>2026-04-06T08:11:56Z</time></trkpt><trkpt lat="45.44178825649048" lon="10.527187590064944"><ele>141.0</ele><time>2026-04-06T08:11:59Z</time></trkpt><trkpt lat="45.44179475679149" lon="10.527076432563904"><ele>143.33333333333334</ele><time>2026-04-06T08:12:02Z</time></trkpt><trkpt lat="45.441799302210406" lon="10.52696524220646"><ele>145.66666666666666</ele><time>2026-04-06T08:12:05Z</time></trkpt><trkpt lat="45.44175155156029" lon="10.526894794543523"><ele>148.0</ele><time>2026-04-06T08:12:08Z</time></trkpt><trkpt lat="45.441682927075135" lon="10.526906114434597"><ele>150.33333333333331</ele><time>2026-04-06T08:12:10Z</time></trkpt><trkpt lat="45.441604294472484" lon="10.526876311598"><ele>152.66666666666666</ele><time>2026-04-06T08:12:13Z</time></trkpt><trkpt lat="45.44153260130699" lon="10.526822114005418"><ele>155.0</ele><time>2026-04-06T08:12:16Z</time></trkpt><trkpt lat="45.44146195797551" lon="10.52673942382644"><ele>155.0</ele><time>2026-04-06T08:12:19Z</time></trkpt><trkpt lat="45.441405275763124" lon="10.526654395481657"><ele>155.0</ele><time>2026-04-06T08:12:22Z</time></trkpt><trkpt lat="45.44136430562247" lon="10.526568001095438"><ele>155.0</ele><time>2026-04-06T08:12:25Z</time></trkpt><trkpt lat="45.44132113753633" lon="10.526489631820093"><ele>155.0</ele><time>2026-04-06T08:12:28Z</time></trkpt><trkpt lat="45.441261769122114" lon="10.52642036649322"><ele>155.0</ele><time>2026-04-06T08:12:31Z</time></trkpt><trkpt lat="45.441194670091726" lon="10.526353818902995"><ele>155.0</ele><time>2026-04-06T08:12:34Z</time></trkpt><trkpt lat="45.44113338587296" lon="10.526285763882603"><ele>155.5</ele><time>2026-04-06T08:12:37Z</time></trkpt><trkpt lat="45.44107103787154" lon="10.526218703102543"><ele>156.0</ele><time>2026-04-06T08:12:40Z</time></trkpt><trkpt lat="45.44100077414963" lon="10.52618365000888"><ele>156.5</ele><time>2026-04-06T08:12:43Z</time></trkpt><trkpt lat="45.440935768779795" lon="10.526131864538666"><ele>157.0</ele><time>2026-04-06T08:12:46Z</time></trkpt><trkpt lat="45.44085838786452" lon="10.526118581384198"><ele>157.5</ele><time>2026-04-06T08:12:49Z</time></trkpt><trkpt lat="45.44077302626513" lon="10.526107678088966"><ele>158.0</ele><time>2026-04-06T08:12:52Z</time></trkpt><trkpt lat="45.44070750310889" lon="10.52609381968167"><ele>158.00000000000003</ele><time>2026-04-06T08:12:54Z</time></trkpt><trkpt lat="45.44062326221555" lon="10.526075609404069"><ele>158.0</ele><time>2026-04-06T08:12:57Z</time></trkpt><trkpt lat="45.44055719592257" lon="10.526044015203384"><ele>158.0</ele><time>2026-04-06T08:13:00Z</time></trkpt><trkpt lat="45.44054166699751" lon="10.525951115476524"><ele>158.0</ele><time>2026-04-06T08:13:03Z</time></trkpt><trkpt lat="45.44055753307086" lon="10.52585689202934"><ele>158.0</ele><time>2026-04-06T08:13:06Z</time></trkpt><trkpt lat="45.44058840473533" lon="10.525764732232087"><ele>158.00000000000003</ele><time>2026-04-06T08:13:10Z</time></trkpt><trkpt lat="45.44065747950365" lon="10.525755414167843"><ele>158.0</ele><time>2026-04-06T08:13:14Z</time></trkpt><trkpt lat="45.44072284995527" lon="10.525788471180034"><ele>158.0</ele><time>2026-04-06T08:13:19Z</time></trkpt><trkpt lat="45.44078742547463" lon="10.5258048806956"><ele>158.0</ele><time>2026-04-06T08:13:23Z</time></trkpt><trkpt lat="45.44086725556241" lon="10.525840188744928"><ele>158.0</ele><time>2026-04-06T08:13:26Z</time></trkpt><trkpt lat="45.440938146377555" lon="10.52586262924692"><ele>158.0</ele><time>2026-04-06T08:13:28Z</time></trkpt><trkpt lat="45.44100763205764" lon="10.52588032896691"><ele>158.0</ele><time>2026-04-06T08:13:30Z</time></trkpt><trkpt lat="45.44108703532195" lon="10.525924279808319"><ele>158.0</ele><time>2026-04-06T08:13:33Z</time></trkpt><trkpt lat="45.44116046386032" lon="10.525985185114882"><ele>158.0</ele><time>2026-04-06T08:13:37Z</time></trkpt><trkpt lat="45.441225891939276" lon="10.526050027602198"><ele>158.0</ele><time>2026-04-06T08:13:41Z</time></trkpt><trkpt lat="45.441288428128" lon="10.526118129378684"><ele>158.0</ele><time>2026-04-06T08:13:45Z</time></trkpt><trkpt lat="45.441355715156455" lon="10.52617720517182"><ele>158.0</ele><time>2026-04-06T08:13:48Z</time></trkpt><trkpt lat="45.441421564980416" lon="10.526248256076409"><ele>158.0</ele><time>2026-04-06T08:13:51Z</time></trkpt><trkpt lat="45.44148744131387" lon="10.526312596945692"><ele>158.0</ele><time>2026-04-06T08:13:54Z</time></trkpt><trkpt lat="45.441542727273784" lon="10.526374251484745"><ele>157.5</ele><time>2026-04-06T08:13:56Z</time></trkpt><trkpt lat="45.4415983919278" lon="10.526428676652282"><ele>157.0</ele><time>2026-04-06T08:13:58Z</time></trkpt><trkpt lat="45.441675839237845" lon="10.526494211704765"><ele>156.5</ele><time>2026-04-06T08:14:01Z</time></trkpt><trkpt lat="45.44175429449667" lon="10.526561534431245"><ele>156.0</ele><time>2026-04-06T08:14:04Z</time></trkpt><trkpt lat="45.44183922301432" lon="10.526570146228575"><ele>155.5</ele><time>2026-04-06T08:14:07Z</time></trkpt><trkpt lat="45.44191754886276" lon="10.526545151610435"><ele>155.0</ele><time>2026-04-06T08:14:10Z</time></trkpt><trkpt lat="45.442000373552005" lon="10.526520169896338"><ele>155.0</ele><time>2026-04-06T08:14:13Z</time></trkpt><trkpt lat="45.44206378138918" lon="10.526482898113134"><ele>155.0</ele><time>2026-04-06T08:14:16Z</time></trkpt><trkpt lat="45.44214981941034" lon="10.526451463401626"><ele>155.0</ele><time>2026-04-06T08:14:19Z</time></trkpt><trkpt lat="45.44221892683843" lon="10.526444766203817"><ele>155.0</ele><time>2026-04-06T08:14:22Z</time></trkpt><trkpt lat="45.44230354212843" lon="10.52641106192347"><ele>155.0</ele><time>2026-04-06T08:14:25Z</time></trkpt><trkpt lat="45.44238560553527" lon="10.526380606842388"><ele>155.0</ele><time>2026-04-06T08:14:27Z</time></trkpt><trkpt lat="45.44245296240127" lon="10.526349474251695"><ele>154.16666666666666</ele><time>2026-04-06T08:14:29Z</time></trkpt><trkpt lat="45.44251461979041" lon="10.526317675062806"><ele>153.33333333333331</ele><time>2026-04-06T08:14:31Z</time></trkpt><trkpt lat="45.4425861381906" lon="10.5262764774643"><ele>152.5</ele><time>2026-04-06T08:14:33Z</time></trkpt><trkpt lat="45.442662412390675" lon="10.526242168441128"><ele>151.66666666666666</ele><time>2026-04-06T08:14:35Z</time></trkpt><trkpt lat="45.44273908652148" lon="10.526190981682813"><ele>150.83333333333334</ele><time>2026-04-06T08:14:37Z</time></trkpt><trkpt lat="45.44282576376425" lon="10.526169063257527"><ele>150.0</ele><time>2026-04-06T08:14:39Z</time></trkpt><trkpt lat="45.44288539161854" lon="10.526134569709031"><ele>150.33333333333334</ele><time>2026-04-06T08:14:41Z</time></trkpt><trkpt lat="45.442965010726695" lon="10.526095746834464"><ele>150.66666666666666</ele><time>2026-04-06T08:14:43Z</time></trkpt><trkpt lat="45.44304776002159" lon="10.526027314222732"><ele>151.0</ele><time>2026-04-06T08:14:45Z</time></trkpt><trkpt lat="45.44314363219805" lon="10.52596380968054"><ele>151.33333333333331</ele><time>2026-04-06T08:14:47Z</time></trkpt><trkpt lat="45.44320398581951" lon="10.52591577840453"><ele>151.66666666666666</ele><time>2026-04-06T08:14:49Z</time></trkpt><trkpt lat="45.443283901984096" lon="10.52588143250977"><ele>152.0</ele><time>2026-04-06T08:14:53Z</time></trkpt><trkpt lat="45.44334864244335" lon="10.525845488159252"><ele>152.0</ele><time>2026-04-06T08:14:57Z</time></trkpt><trkpt lat="45.44342279419771" lon="10.525831949274203"><ele>152.0</ele><time>2026-04-06T08:15:01Z</time></trkpt><trkpt lat="45.443491537066066" lon="10.52585131865774"><ele>152.0</ele><time>2026-04-06T08:15:04Z</time></trkpt><trkpt lat="45.44355969726896" lon="10.525859760929029"><ele>152.0</ele><time>2026-04-06T08:15:07Z</time></trkpt><trkpt lat="45.443621412398045" lon="10.525887477516187"><ele>152.0</ele><time>2026-04-06T08:15:10Z</time></trkpt><trkpt lat="45.44369008521219" lon="10.525924708488061"><ele>152.0</ele><time>2026-04-06T08:15:14Z</time></trkpt><trkpt lat="45.44373027833134" lon="10.526003854234583"><ele>152.0</ele><time>2026-04-06T08:15:18Z</time></trkpt><trkpt lat="45.443754286350085" lon="10.526105325411942"><ele>151.66666666666666</ele><time>2026-04-06T08:15:22Z</time></trkpt><trkpt lat="45.44381854109754" lon="10.52612336928781"><ele>151.33333333333331</ele><time>2026-04-06T08:15:27Z</time></trkpt><trkpt lat="45.44389539883356" lon="10.526103820158262"><ele>151.0</ele><time>2026-04-06T08:15:30Z</time></trkpt><trkpt lat="45.44398562305034" lon="10.526126435101956"><ele>150.66666666666666</ele><time>2026-04-06T08:15:33Z</time></trkpt><trkpt lat="45.444078577184555" lon="10.526126277150068"><ele>150.33333333333334</ele><time>2026-04-06T08:15:36Z</time></trkpt><trkpt lat="45.44414193869336" lon="10.52612608120141"><ele>150.0</ele><time>2026-04-06T08:15:38Z</time></trkpt><trkpt lat="45.44421942047753" lon="10.526130959796202"><ele>150.0</ele><time>2026-04-06T08:15:41Z</time></trkpt><trkpt lat="45.44430943553066" lon="10.526111647254519"><ele>150.0</ele><time>2026-04-06T08:15:44Z</time></trkpt><trkpt lat="45.444389586149846" lon="10.526096065184149"><ele>150.0</ele><time>2026-04-06T08:15:47Z</time></trkpt><trkpt lat="45.44444504045086" lon="10.526009195852172"><ele>150.0</ele><time>2026-04-06T08:15:50Z</time></trkpt><trkpt lat="45.4444610945035" lon="10.525906904173459"><ele>150.0</ele><time>2026-04-06T08:15:52Z</time></trkpt><trkpt lat="45.44447952641643" lon="10.52581817681224"><ele>150.0</ele><time>2026-04-06T08:15:54Z</time></trkpt><trkpt lat="45.44450761465001" lon="10.52572499270591"><ele>149.99999999999997</ele><time>2026-04-06T08:15:56Z</time></trkpt><trkpt lat="45.44453527742111" lon="10.525627744165684"><ele>150.0</ele><time>2026-04-06T08:15:58Z</time></trkpt><trkpt lat="45.444560514264964" lon="10.525534440094996"><ele>150.0</ele><time>2026-04-06T08:16:00Z</time></trkpt><trkpt lat="45.4445867181706" lon="10.525436074222506"><ele>150.0</ele><time>2026-04-06T08:16:02Z</time></trkpt><trkpt lat="45.4446319370385" lon="10.525364343523085"><ele>150.0</ele><time>2026-04-06T08:16:04Z</time></trkpt><trkpt lat="45.44470889780199" lon="10.525370079296009"><ele>149.99999999999997</ele><time>2026-04-06T08:16:06Z</time></trkpt><trkpt lat="45.444781826605194" lon="10.525389908252867"><ele>150.0</ele><time>2026-04-06T08:16:08Z</time></trkpt><trkpt lat="45.44485453932743" lon="10.525383067885883"><ele>149.16666666666666</ele><time>2026-04-06T08:16:10Z</time></trkpt><trkpt lat="45.44491656787522" lon="10.525399597218598"><ele>148.33333333333334</ele><time>2026-04-06T08:16:12Z</time></trkpt><trkpt lat="45.445010844033874" lon="10.525429063189927"><ele>147.5</ele><time>2026-04-06T08:16:15Z</time></trkpt><trkpt lat="45.44509764866018" lon="10.525487004462049"><ele>146.66666666666669</ele><time>2026-04-06T08:16:18Z</time></trkpt><trkpt lat="45.44516309762026" lon="10.525509598800406"><ele>145.83333333333334</ele><time>2026-04-06T08:16:20Z</time></trkpt><trkpt lat="45.44522612030526" lon="10.525527288582438"><ele>145.0</ele><time>2026-04-06T08:16:22Z</time></trkpt><trkpt lat="45.44529710517196" lon="10.52556371599051"><ele>145.0</ele><time>2026-04-06T08:16:24Z</time></trkpt><trkpt lat="45.44535766016798" lon="10.52560385177197"><ele>145.0</ele><time>2026-04-06T08:16:26Z</time></trkpt><trkpt lat="45.44540487643986" lon="10.52569753878296"><ele>145.0</ele><time>2026-04-06T08:16:28Z</time></trkpt><trkpt lat="45.445436214745165" lon="10.52579642174799"><ele>145.0</ele><time>2026-04-06T08:16:30Z</time></trkpt><trkpt lat="45.44548401117114" lon="10.525914001108548"><ele>145.0</ele><time>2026-04-06T08:16:33Z</time></trkpt><trkpt lat="45.44554535948579" lon="10.525986445408119"><ele>145.0</ele><time>2026-04-06T08:16:35Z</time></trkpt><trkpt lat="45.44561625179389" lon="10.526079402194021"><ele>144.71428571428572</ele><time>2026-04-06T08:16:37Z</time></trkpt><trkpt lat="45.44567002266934" lon="10.526140140076546"><ele>144.42857142857144</ele><time>2026-04-06T08:16:39Z</time></trkpt><trkpt lat="45.445735707697104" lon="10.526164341654074"><ele>144.14285714285714</ele><time>2026-04-06T08:16:41Z</time></trkpt><trkpt lat="45.445801269166125" lon="10.526168547827323"><ele>143.85714285714286</ele><time>2026-04-06T08:16:43Z</time></trkpt><trkpt lat="45.44586716024356" lon="10.52618541366852"><ele>143.57142857142856</ele><time>2026-04-06T08:16:45Z</time></trkpt><trkpt lat="45.44593368533035" lon="10.526196340621889"><ele>143.28571428571428</ele><time>2026-04-06T08:16:47Z</time></trkpt><trkpt lat="45.44600588171937" lon="10.526194192054783"><ele>143.0</ele><time>2026-04-06T08:16:53Z</time></trkpt><trkpt lat="45.44603464263207" lon="10.526113826149288"><ele>143.0</ele><time>2026-04-06T08:16:58Z</time></trkpt><trkpt lat="45.446090486803605" lon="10.526051023299612"><ele>143.0</ele><time>2026-04-06T08:17:06Z</time></trkpt><trkpt lat="45.44613519260397" lon="10.525943460596798"><ele>143.0</ele><time>2026-04-06T08:17:09Z</time></trkpt><trkpt lat="45.44616029743392" lon="10.525858702065124"><ele>143.0</ele><time>2026-04-06T08:17:11Z</time></trkpt><trkpt lat="45.44619815180411" lon="10.525751739527168"><ele>143.0</ele><time>2026-04-06T08:17:13Z</time></trkpt><trkpt lat="45.446237962780415" lon="10.525661367755971"><ele>143.0</ele><time>2026-04-06T08:17:15Z</time></trkpt><trkpt lat="45.44627382674412" lon="10.525553963405976"><ele>142.0</ele><time>2026-04-06T08:17:17Z</time></trkpt><trkpt lat="45.44630655122185" lon="10.525457836087135"><ele>141.0</ele><time>2026-04-06T08:17:19Z</time></trkpt><trkpt lat="45.44634611619157" lon="10.525348091255623"><ele>140.0</ele><time>2026-04-06T08:17:21Z</time></trkpt><trkpt lat="45.446370001271575" lon="10.525231441943204"><ele>139.0</ele><time>2026-04-06T08:17:23Z</time></trkpt><trkpt lat="45.446394487719125" lon="10.525114370449264"><ele>138.0</ele><time>2026-04-06T08:17:25Z</time></trkpt><trkpt lat="45.446419438015155" lon="10.525007616642592"><ele>137.0</ele><time>2026-04-06T08:17:27Z</time></trkpt><trkpt lat="45.44645030166235" lon="10.52489224706558"><ele>137.0</ele><time>2026-04-06T08:17:29Z</time></trkpt><trkpt lat="45.4464776036977" lon="10.52478183772761"><ele>137.0</ele><time>2026-04-06T08:17:31Z</time></trkpt><trkpt lat="45.44650720151428" lon="10.524675035230628"><ele>137.0</ele><time>2026-04-06T08:17:33Z</time></trkpt><trkpt lat="45.44650700205692" lon="10.524556885424499"><ele>137.0</ele><time>2026-04-06T08:17:35Z</time></trkpt><trkpt lat="45.44651852046221" lon="10.524443098206481"><ele>137.0</ele><time>2026-04-06T08:17:37Z</time></trkpt><trkpt lat="45.446511588531955" lon="10.524337994634035"><ele>137.0</ele><time>2026-04-06T08:17:39Z</time></trkpt><trkpt lat="45.446485753636" lon="10.52422829284777"><ele>137.0</ele><time>2026-04-06T08:17:42Z</time></trkpt><trkpt lat="45.44646019674828" lon="10.524142618911135"><ele>137.0</ele><time>2026-04-06T08:17:45Z</time></trkpt><trkpt lat="45.44650111822152" lon="10.52424556012602"><ele>137.0</ele><time>2026-04-06T08:17:55Z</time></trkpt><trkpt lat="45.44655943855225" lon="10.524207953089432"><ele>137.0</ele><time>2026-04-06T08:17:58Z</time></trkpt><trkpt lat="45.44664163181201" lon="10.524167544595247"><ele>137.0</ele><time>2026-04-06T08:18:01Z</time></trkpt><trkpt lat="45.446727393749505" lon="10.524172696812293"><ele>137.0</ele><time>2026-04-06T08:18:03Z</time></trkpt><trkpt lat="45.446802431925825" lon="10.524189512598973"><ele>137.00000000000003</ele><time>2026-04-06T08:18:05Z</time></trkpt><trkpt lat="45.44687256949024" lon="10.524209551581672"><ele>137.0</ele><time>2026-04-06T08:18:07Z</time></trkpt><trkpt lat="45.44694807500382" lon="10.524226520140319"><ele>137.0</ele><time>2026-04-06T08:18:09Z</time></trkpt><trkpt lat="45.44702357375562" lon="10.524238778812384"><ele>137.0</ele><time>2026-04-06T08:18:11Z</time></trkpt><trkpt lat="45.44709498871772" lon="10.524251853124795"><ele>137.0</ele><time>2026-04-06T08:18:13Z</time></trkpt><trkpt lat="45.447170979467536" lon="10.524265661691741"><ele>137.00000000000003</ele><time>2026-04-06T08:18:15Z</time></trkpt><trkpt lat="45.44724561586729" lon="10.52427517005156"><ele>137.0</ele><time>2026-04-06T08:18:17Z</time></trkpt><trkpt lat="45.447308948319765" lon="10.524289672792204"><ele>137.42857142857144</ele><time>2026-04-06T08:18:19Z</time></trkpt><trkpt lat="45.44737303819408" lon="10.524301512963104"><ele>137.85714285714286</ele><time>2026-04-06T08:18:21Z</time></trkpt><trkpt lat="45.447448642601195" lon="10.52429958088845"><ele>138.28571428571428</ele><time>2026-04-06T08:18:23Z</time></trkpt><trkpt lat="45.44752323208752" lon="10.524304475887558"><ele>138.71428571428572</ele><time>2026-04-06T08:18:25Z</time></trkpt><trkpt lat="45.44759700196457" lon="10.524311096320213"><ele>139.14285714285714</ele><time>2026-04-06T08:18:27Z</time></trkpt><trkpt lat="45.447677529310035" lon="10.524309400220309"><ele>139.57142857142858</ele><time>2026-04-06T08:18:29Z</time></trkpt><trkpt lat="45.44775622496679" lon="10.524310412363551"><ele>140.0</ele><time>2026-04-06T08:18:31Z</time></trkpt><trkpt lat="45.447832549607085" lon="10.524313115046946"><ele>140.0</ele><time>2026-04-06T08:18:33Z</time></trkpt><trkpt lat="45.447907308191546" lon="10.524319999799934"><ele>140.0</ele><time>2026-04-06T08:18:35Z</time></trkpt><trkpt lat="45.44797882407526" lon="10.524327509193384"><ele>140.0</ele><time>2026-04-06T08:18:37Z</time></trkpt><trkpt lat="45.448050624598665" lon="10.524337829961329"><ele>140.0</ele><time>2026-04-06T08:18:39Z</time></trkpt><trkpt lat="45.44811293411866" lon="10.524266706027404"><ele>140.0</ele><time>2026-04-06T08:18:41Z</time></trkpt><trkpt lat="45.44812666604523" lon="10.524151068468052"><ele>140.0</ele><time>2026-04-06T08:18:43Z</time></trkpt><trkpt lat="45.44813273624003" lon="10.524036286195566"><ele>139.66666666666666</ele><time>2026-04-06T08:18:45Z</time></trkpt><trkpt lat="45.44814703553574" lon="10.523925645407443"><ele>139.33333333333331</ele><time>2026-04-06T08:18:47Z</time></trkpt><trkpt lat="45.44815897072926" lon="10.523818973015919"><ele>139.0</ele><time>2026-04-06T08:18:49Z</time></trkpt><trkpt lat="45.44817218067814" lon="10.523722789137384"><ele>138.66666666666666</ele><time>2026-04-06T08:18:51Z</time></trkpt><trkpt lat="45.44818953257919" lon="10.523595592162376"><ele>138.33333333333334</ele><time>2026-04-06T08:18:54Z</time></trkpt><trkpt lat="45.44820415591926" lon="10.523496052394899"><ele>138.0</ele><time>2026-04-06T08:18:56Z</time></trkpt><trkpt lat="45.44822022885941" lon="10.523403932738326"><ele>138.0</ele><time>2026-04-06T08:18:58Z</time></trkpt><trkpt lat="45.44823810018337" lon="10.52330022229578"><ele>138.0</ele><time>2026-04-06T08:19:01Z</time></trkpt><trkpt lat="45.448261067775604" lon="10.523193568109333"><ele>138.0</ele><time>2026-04-06T08:19:04Z</time></trkpt><trkpt lat="45.44827291049716" lon="10.523092102610788"><ele>138.0</ele><time>2026-04-06T08:19:06Z</time></trkpt><trkpt lat="45.44828068129895" lon="10.522994115971793"><ele>138.0</ele><time>2026-04-06T08:19:08Z</time></trkpt><trkpt lat="45.44829841961735" lon="10.522874044665741"><ele>138.0</ele><time>2026-04-06T08:19:11Z</time></trkpt><trkpt lat="45.44832274293811" lon="10.522779462620552"><ele>137.85714285714286</ele><time>2026-04-06T08:19:15Z</time></trkpt><trkpt lat="45.44833611342043" lon="10.522671612841892"><ele>137.71428571428572</ele><time>2026-04-06T08:19:21Z</time></trkpt><trkpt lat="45.44827626599845" lon="10.522601126431363"><ele>137.57142857142858</ele><time>2026-04-06T08:19:24Z</time></trkpt><trkpt lat="45.448215083594945" lon="10.5225482029999"><ele>137.42857142857144</ele><time>2026-04-06T08:19:31Z</time></trkpt><trkpt lat="45.44827788553917" lon="10.522608881697588"><ele>137.28571428571428</ele><time>2026-04-06T08:19:52Z</time></trkpt><trkpt lat="45.4483326706128" lon="10.522682189512338"><ele>137.14285714285717</ele><time>2026-04-06T08:19:55Z</time></trkpt><trkpt lat="45.448372371800964" lon="10.522754899768517"><ele>137.0</ele><time>2026-04-06T08:19:58Z</time></trkpt><trkpt lat="45.448409495833324" lon="10.522835739102272"><ele>137.0</ele><time>2026-04-06T08:20:01Z</time></trkpt><trkpt lat="45.448476304759204" lon="10.522861362525651"><ele>137.0</ele><time>2026-04-06T08:20:04Z</time></trkpt><trkpt lat="45.448559307033406" lon="10.522881522009364"><ele>137.0</ele><time>2026-04-06T08:20:07Z</time></trkpt><trkpt lat="45.448633250761745" lon="10.522909778536574"><ele>137.0</ele><time>2026-04-06T08:20:10Z</time></trkpt><trkpt lat="45.448701473515726" lon="10.52294682024607"><ele>137.0</ele><time>2026-04-06T08:20:13Z</time></trkpt><trkpt lat="45.44871168428957" lon="10.523050037563893"><ele>137.0</ele><time>2026-04-06T08:20:16Z</time></trkpt><trkpt lat="45.44867383182228" lon="10.523162715409281"><ele>137.16666666666666</ele><time>2026-04-06T08:20:19Z</time></trkpt><trkpt lat="45.44861055231252" lon="10.523257414214484"><ele>137.33333333333331</ele><time>2026-04-06T08:20:22Z</time></trkpt><trkpt lat="45.44854866893062" lon="10.523338986741845"><ele>137.5</ele><time>2026-04-06T08:20:24Z</time></trkpt><trkpt lat="45.448493525913484" lon="10.523401682511"><ele>137.66666666666666</ele><time>2026-04-06T08:20:26Z</time></trkpt><trkpt lat="45.44843890456292" lon="10.523460034850352"><ele>137.83333333333334</ele><time>2026-04-06T08:20:28Z</time></trkpt><trkpt lat="45.44840086731847" lon="10.523531991037293"><ele>138.0</ele><time>2026-04-06T08:20:30Z</time></trkpt><trkpt lat="45.448360800858254" lon="10.523617062292232"><ele>138.0</ele><time>2026-04-06T08:20:32Z</time></trkpt><trkpt lat="45.448333688832605" lon="10.523710448709682"><ele>138.0</ele><time>2026-04-06T08:20:34Z</time></trkpt><trkpt lat="45.44829695589662" lon="10.523797878251393"><ele>138.0</ele><time>2026-04-06T08:20:36Z</time></trkpt><trkpt lat="45.44826328033456" lon="10.523884528682789"><ele>138.0</ele><time>2026-04-06T08:20:38Z</time></trkpt><trkpt lat="45.44823518392844" lon="10.5240120399786"><ele>138.0</ele><time>2026-04-06T08:20:41Z</time></trkpt><trkpt lat="45.44820805269272" lon="10.52410335882926"><ele>138.0</ele><time>2026-04-06T08:20:43Z</time></trkpt><trkpt lat="45.44821860850489" lon="10.524203617841842"><ele>138.0</ele><time>2026-04-06T08:20:45Z</time></trkpt><trkpt lat="45.44829511199457" lon="10.524248734466303"><ele>137.8</ele><time>2026-04-06T08:20:47Z</time></trkpt><trkpt lat="45.448381509240974" lon="10.524275845864638"><ele>137.60000000000002</ele><time>2026-04-06T08:20:49Z</time></trkpt><trkpt lat="45.4484710411623" lon="10.524320255802632"><ele>137.39999999999998</ele><time>2026-04-06T08:20:51Z</time></trkpt><trkpt lat="45.44856528611451" lon="10.524354633224773"><ele>137.2</ele><time>2026-04-06T08:20:53Z</time></trkpt><trkpt lat="45.44865799860999" lon="10.524381389150866"><ele>137.0</ele><time>2026-04-06T08:20:55Z</time></trkpt><trkpt lat="45.44875107513456" lon="10.524366456332352"><ele>137.6</ele><time>2026-04-06T08:20:57Z</time></trkpt><trkpt lat="45.448808598820406" lon="10.52426483590187"><ele>138.2</ele><time>2026-04-06T08:20:59Z</time></trkpt><trkpt lat="45.44883544685267" lon="10.52413268816166"><ele>138.8</ele><time>2026-04-06T08:21:01Z</time></trkpt><trkpt lat="45.44885938681058" lon="10.523994402428302"><ele>139.4</ele><time>2026-04-06T08:21:03Z</time></trkpt><trkpt lat="45.44888054752252" lon="10.52385110070351"><ele>140.0</ele><time>2026-04-06T08:21:05Z</time></trkpt><trkpt lat="45.448893961502485" lon="10.52370643394023"><ele>138.8</ele><time>2026-04-06T08:21:07Z</time></trkpt><trkpt lat="45.44891572235105" lon="10.523564071244097"><ele>137.6</ele><time>2026-04-06T08:21:09Z</time></trkpt><trkpt lat="45.44892436495925" lon="10.52341527170129"><ele>136.4</ele><time>2026-04-06T08:21:11Z</time></trkpt><trkpt lat="45.448934917652544" lon="10.523269398353978"><ele>135.2</ele><time>2026-04-06T08:21:13Z</time></trkpt><trkpt lat="45.44893581954509" lon="10.523122625779195"><ele>134.0</ele><time>2026-04-06T08:21:15Z</time></trkpt><trkpt lat="45.448968899936915" lon="10.523003280145295"><ele>133.8</ele><time>2026-04-06T08:21:17Z</time></trkpt><trkpt lat="45.44901206239213" lon="10.522880497346314"><ele>133.60000000000002</ele><time>2026-04-06T08:21:19Z</time></trkpt><trkpt lat="45.44904152798124" lon="10.5227420281311"><ele>133.4</ele><time>2026-04-06T08:21:21Z</time></trkpt><trkpt lat="45.44906371385442" lon="10.522604044282254"><ele>133.20000000000002</ele><time>2026-04-06T08:21:23Z</time></trkpt><trkpt lat="45.44907268272447" lon="10.52245837904931"><ele>133.0</ele><time>2026-04-06T08:21:25Z</time></trkpt><trkpt lat="45.449086263656426" lon="10.522312331377194"><ele>133.0</ele><time>2026-04-06T08:21:27Z</time></trkpt><trkpt lat="45.44910340657448" lon="10.522164706415696"><ele>133.0</ele><time>2026-04-06T08:21:29Z</time></trkpt><trkpt lat="45.44911821818969" lon="10.522016026243065"><ele>133.0</ele><time>2026-04-06T08:21:31Z</time></trkpt><trkpt lat="45.44913503945419" lon="10.521865794637357"><ele>133.0</ele><time>2026-04-06T08:21:33Z</time></trkpt><trkpt lat="45.44914945072934" lon="10.521709575387902"><ele>133.0</ele><time>2026-04-06T08:21:35Z</time></trkpt><trkpt lat="45.44916550569045" lon="10.52156636865771"><ele>133.4</ele><time>2026-04-06T08:21:37Z</time></trkpt><trkpt lat="45.44916083937856" lon="10.521435174749568"><ele>133.8</ele><time>2026-04-06T08:21:39Z</time></trkpt><trkpt lat="45.449137074089435" lon="10.521317010430415"><ele>134.2</ele><time>2026-04-06T08:21:41Z</time></trkpt><trkpt lat="45.449097259295634" lon="10.521211898306781"><ele>134.6</ele><time>2026-04-06T08:21:43Z</time></trkpt><trkpt lat="45.449017345803085" lon="10.521143532127713"><ele>135.0</ele><time>2026-04-06T08:21:45Z</time></trkpt><trkpt lat="45.44891445849623" lon="10.521131698718147"><ele>135.0</ele><time>2026-04-06T08:21:47Z</time></trkpt><trkpt lat="45.448812332004664" lon="10.521112087373922"><ele>135.0</ele><time>2026-04-06T08:21:49Z</time></trkpt><trkpt lat="45.448707424786086" lon="10.521084099736594"><ele>135.0</ele><time>2026-04-06T08:21:51Z</time></trkpt><trkpt lat="45.448600407333544" lon="10.521061465615727"><ele>135.0</ele><time>2026-04-06T08:21:53Z</time></trkpt><trkpt lat="45.44849562087518" lon="10.521038360678435"><ele>135.0</ele><time>2026-04-06T08:21:55Z</time></trkpt><trkpt lat="45.44840186468999" lon="10.521023781233998"><ele>135.0</ele><time>2026-04-06T08:21:57Z</time></trkpt><trkpt lat="45.44830843403077" lon="10.521010335055243"><ele>135.0</ele><time>2026-04-06T08:21:59Z</time></trkpt><trkpt lat="45.448210672906114" lon="10.520996124980838"><ele>135.0</ele><time>2026-04-06T08:22:01Z</time></trkpt><trkpt lat="45.44811439182144" lon="10.520986011909505"><ele>135.0</ele><time>2026-04-06T08:22:03Z</time></trkpt><trkpt lat="45.4480177658874" lon="10.520979678245135"><ele>135.0</ele><time>2026-04-06T08:22:05Z</time></trkpt><trkpt lat="45.44792180768403" lon="10.52097951889011"><ele>135.0</ele><time>2026-04-06T08:22:07Z</time></trkpt><trkpt lat="45.44782641170935" lon="10.520965965129596"><ele>135.0</ele><time>2026-04-06T08:22:09Z</time></trkpt><trkpt lat="45.44774919613407" lon="10.52089725971664"><ele>135.0</ele><time>2026-04-06T08:22:11Z</time></trkpt><trkpt lat="45.447700904852915" lon="10.520792162315459"><ele>135.0</ele><time>2026-04-06T08:22:13Z</time></trkpt><trkpt lat="45.447615122469536" lon="10.520746496044001"><ele>135.0</ele><time>2026-04-06T08:22:15Z</time></trkpt><trkpt lat="45.44752160539342" lon="10.520722430603696"><ele>135.0</ele><time>2026-04-06T08:22:17Z</time></trkpt><trkpt lat="45.447421472804386" lon="10.520695128693815"><ele>135.0</ele><time>2026-04-06T08:22:19Z</time></trkpt><trkpt lat="45.44731860563207" lon="10.52066768100151"><ele>135.0</ele><time>2026-04-06T08:22:21Z</time></trkpt><trkpt lat="45.44721057645985" lon="10.520651489374359"><ele>135.0</ele><time>2026-04-06T08:22:23Z</time></trkpt><trkpt lat="45.447104472050924" lon="10.520627668183527"><ele>135.0</ele><time>2026-04-06T08:22:25Z</time></trkpt><trkpt lat="45.44700141730202" lon="10.520606104186694"><ele>134.8</ele><time>2026-04-06T08:22:27Z</time></trkpt><trkpt lat="45.44689853093896" lon="10.520582647650336"><ele>134.6</ele><time>2026-04-06T08:22:29Z</time></trkpt><trkpt lat="45.44679434905466" lon="10.52055581685419"><ele>134.4</ele><time>2026-04-06T08:22:31Z</time></trkpt><trkpt lat="45.44668802411687" lon="10.520536149422645"><ele>134.2</ele><time>2026-04-06T08:22:33Z</time></trkpt><trkpt lat="45.44657823271369" lon="10.52052418088505"><ele>134.0</ele><time>2026-04-06T08:22:35Z</time></trkpt><trkpt lat="45.44646655387705" lon="10.520508156737806"><ele>134.0</ele><time>2026-04-06T08:22:37Z</time></trkpt><trkpt lat="45.44635081401213" lon="10.520499170217704"><ele>134.0</ele><time>2026-04-06T08:22:39Z</time></trkpt><trkpt lat="45.4462347942149" lon="10.520493876058206"><ele>134.0</ele><time>2026-04-06T08:22:41Z</time></trkpt><trkpt lat="45.446117433639515" lon="10.520487603646956"><ele>134.0</ele><time>2026-04-06T08:22:43Z</time></trkpt><trkpt lat="45.44600309124209" lon="10.520493950794622"><ele>134.0</ele><time>2026-04-06T08:22:45Z</time></trkpt><trkpt lat="45.44590276541334" lon="10.520458859983941"><ele>134.0</ele><time>2026-04-06T08:22:47Z</time></trkpt><trkpt lat="45.44592987071958" lon="10.520314803523103"><ele>134.0</ele><time>2026-04-06T08:22:49Z</time></trkpt><trkpt lat="45.44602822193615" lon="10.520313963782785"><ele>134.0</ele><time>2026-04-06T08:22:51Z</time></trkpt><trkpt lat="45.446125161716374" lon="10.520346817295778"><ele>134.0</ele><time>2026-04-06T08:22:53Z</time></trkpt><trkpt lat="45.446231324221664" lon="10.520374623546907"><ele>134.0</ele><time>2026-04-06T08:22:55Z</time></trkpt><trkpt lat="45.446345876720585" lon="10.520404641545696"><ele>134.0</ele><time>2026-04-06T08:22:57Z</time></trkpt><trkpt lat="45.44646324488145" lon="10.520427517340531"><ele>134.0</ele><time>2026-04-06T08:22:59Z</time></trkpt><trkpt lat="45.446584745515565" lon="10.520455736758858"><ele>134.0</ele><time>2026-04-06T08:23:01Z</time></trkpt><trkpt lat="45.446706460495" lon="10.520487129153484"><ele>134.0</ele><time>2026-04-06T08:23:03Z</time></trkpt><trkpt lat="45.44682918067681" lon="10.520515557466855"><ele>134.0</ele><time>2026-04-06T08:23:05Z</time></trkpt><trkpt lat="45.44695253493074" lon="10.520550533055424"><ele>134.0</ele><time>2026-04-06T08:23:07Z</time></trkpt><trkpt lat="45.44707608901201" lon="10.520579508313459"><ele>134.0</ele><time>2026-04-06T08:23:09Z</time></trkpt><trkpt lat="45.44713821264287" lon="10.520594477988116"><ele>134.0</ele><time>2026-04-06T08:23:10Z</time></trkpt><trkpt lat="45.44726296504727" lon="10.520622649696508"><ele>134.2</ele><time>2026-04-06T08:23:12Z</time></trkpt><trkpt lat="45.447325613176524" lon="10.52063562098357"><ele>134.4</ele><time>2026-04-06T08:23:13Z</time></trkpt><trkpt lat="45.447450302382045" lon="10.520661295453325"><ele>134.6</ele><time>2026-04-06T08:23:15Z</time></trkpt><trkpt lat="45.447575758718976" lon="10.520688368791431"><ele>134.8</ele><time>2026-04-06T08:23:17Z</time></trkpt><trkpt lat="45.447698147791044" lon="10.520711795246198"><ele>135.0</ele><time>2026-04-06T08:23:19Z</time></trkpt><trkpt lat="45.44782284382387" lon="10.52073975787402"><ele>135.0</ele><time>2026-04-06T08:23:21Z</time></trkpt><trkpt lat="45.44794575310285" lon="10.520756453655089"><ele>135.0</ele><time>2026-04-06T08:23:23Z</time></trkpt><trkpt lat="45.4480663327431" lon="10.520777884084259"><ele>135.0</ele><time>2026-04-06T08:23:25Z</time></trkpt><trkpt lat="45.448187257148874" lon="10.520797724343902"><ele>135.0</ele><time>2026-04-06T08:23:27Z</time></trkpt><trkpt lat="45.448307762389355" lon="10.520815337676964"><ele>135.0</ele><time>2026-04-06T08:23:29Z</time></trkpt><trkpt lat="45.448425668069284" lon="10.520836110940415"><ele>135.0</ele><time>2026-04-06T08:23:31Z</time></trkpt><trkpt lat="45.448545938004145" lon="10.520859524779876"><ele>135.0</ele><time>2026-04-06T08:23:33Z</time></trkpt><trkpt lat="45.4486518161693" lon="10.520877989815473"><ele>135.0</ele><time>2026-04-06T08:23:35Z</time></trkpt><trkpt lat="45.44876085296455" lon="10.52089718578139"><ele>135.5</ele><time>2026-04-06T08:23:37Z</time></trkpt><trkpt lat="45.44886822750203" lon="10.520918674270773"><ele>136.0</ele><time>2026-04-06T08:23:39Z</time></trkpt><trkpt lat="45.448984623762236" lon="10.520942697552114"><ele>136.5</ele><time>2026-04-06T08:23:41Z</time></trkpt><trkpt lat="45.44910507565482" lon="10.52096584740465"><ele>137.0</ele><time>2026-04-06T08:23:43Z</time></trkpt><trkpt lat="45.449222923591336" lon="10.520989382274124"><ele>137.0</ele><time>2026-04-06T08:23:45Z</time></trkpt><trkpt lat="45.44934299559851" lon="10.521012854802693"><ele>137.0</ele><time>2026-04-06T08:23:47Z</time></trkpt><trkpt lat="45.44946302710621" lon="10.521031772004221"><ele>137.0</ele><time>2026-04-06T08:23:49Z</time></trkpt><trkpt lat="45.449581628377835" lon="10.521046033015788"><ele>137.0</ele><time>2026-04-06T08:23:51Z</time></trkpt><trkpt lat="45.44970516864766" lon="10.521063084224068"><ele>136.83333333333331</ele><time>2026-04-06T08:23:53Z</time></trkpt><trkpt lat="45.449831621217626" lon="10.521088294603597"><ele>136.66666666666666</ele><time>2026-04-06T08:23:55Z</time></trkpt><trkpt lat="45.449894081464784" lon="10.52110049481574"><ele>136.5</ele><time>2026-04-06T08:23:56Z</time></trkpt><trkpt lat="45.45001666789159" lon="10.521130411411194"><ele>136.33333333333334</ele><time>2026-04-06T08:23:58Z</time></trkpt><trkpt lat="45.45008060858231" lon="10.521144476134186"><ele>136.16666666666669</ele><time>2026-04-06T08:23:59Z</time></trkpt><trkpt lat="45.45014430487598" lon="10.521155080820666"><ele>136.0</ele><time>2026-04-06T08:24:00Z</time></trkpt><trkpt lat="45.450208254372" lon="10.521164828809265"><ele>135.99999999999997</ele><time>2026-04-06T08:24:01Z</time></trkpt><trkpt lat="45.45033387423639" lon="10.521181817506108"><ele>136.0</ele><time>2026-04-06T08:24:03Z</time></trkpt><trkpt lat="45.45039728403132" lon="10.521189285862555"><ele>136.0</ele><time>2026-04-06T08:24:04Z</time></trkpt><trkpt lat="45.45046012666752" lon="10.521195644034405"><ele>136.0</ele><time>2026-04-06T08:24:05Z</time></trkpt><trkpt lat="45.450523838853314" lon="10.521201281298795"><ele>136.0</ele><time>2026-04-06T08:24:06Z</time></trkpt><trkpt lat="45.450588588511856" lon="10.521202500572928"><ele>135.99999999999997</ele><time>2026-04-06T08:24:07Z</time></trkpt><trkpt lat="45.450655405368416" lon="10.52120189891654"><ele>136.0</ele><time>2026-04-06T08:24:08Z</time></trkpt><trkpt lat="45.450720354031866" lon="10.521200738086616"><ele>135.85714285714283</ele><time>2026-04-06T08:24:09Z</time></trkpt><trkpt lat="45.45078376803669" lon="10.521195265900989"><ele>135.71428571428572</ele><time>2026-04-06T08:24:10Z</time></trkpt><trkpt lat="45.450848391440765" lon="10.521181519889407"><ele>135.57142857142856</ele><time>2026-04-06T08:24:11Z</time></trkpt><trkpt lat="45.450913664635095" lon="10.521172974220232"><ele>135.42857142857142</ele><time>2026-04-06T08:24:12Z</time></trkpt><trkpt lat="45.450978491209554" lon="10.521162956406524"><ele>135.28571428571428</ele><time>2026-04-06T08:24:13Z</time></trkpt><trkpt lat="45.45104309352217" lon="10.521155701016928"><ele>135.14285714285714</ele><time>2026-04-06T08:24:14Z</time></trkpt><trkpt lat="45.45110861661131" lon="10.521154060275771"><ele>135.0</ele><time>2026-04-06T08:24:15Z</time></trkpt><trkpt lat="45.45117361969779" lon="10.52114909132424"><ele>135.5</ele><time>2026-04-06T08:24:16Z</time></trkpt><trkpt lat="45.45129678447792" lon="10.521136615213786"><ele>136.0</ele><time>2026-04-06T08:24:18Z</time></trkpt><trkpt lat="45.45141856635428" lon="10.521120426196683"><ele>136.5</ele><time>2026-04-06T08:24:20Z</time></trkpt><trkpt lat="45.45153473371233" lon="10.5211046743537"><ele>137.0</ele><time>2026-04-06T08:24:22Z</time></trkpt><trkpt lat="45.45164980398105" lon="10.521093732238322"><ele>137.0</ele><time>2026-04-06T08:24:24Z</time></trkpt><trkpt lat="45.45175640482894" lon="10.52108394315964"><ele>137.0</ele><time>2026-04-06T08:24:26Z</time></trkpt><trkpt lat="45.45185963386225" lon="10.521079085347628"><ele>137.0</ele><time>2026-04-06T08:24:28Z</time></trkpt><trkpt lat="45.45195123994123" lon="10.52107778902373"><ele>137.0</ele><time>2026-04-06T08:24:30Z</time></trkpt><trkpt lat="45.45203590627929" lon="10.52108712134213"><ele>137.0</ele><time>2026-04-06T08:24:32Z</time></trkpt><trkpt lat="45.45211241001482" lon="10.521100362423248"><ele>136.79999999999998</ele><time>2026-04-06T08:24:34Z</time></trkpt><trkpt lat="45.452187560017244" lon="10.52109885735177"><ele>136.6</ele><time>2026-04-06T08:24:36Z</time></trkpt><trkpt lat="45.45228403924471" lon="10.521079103760416"><ele>136.39999999999998</ele><time>2026-04-06T08:24:38Z</time></trkpt><trkpt lat="45.4523906603389" lon="10.521099081202772"><ele>136.2</ele><time>2026-04-06T08:24:40Z</time></trkpt><trkpt lat="45.45249302611983" lon="10.521107010461876"><ele>136.0</ele><time>2026-04-06T08:24:42Z</time></trkpt><trkpt lat="45.45258262018976" lon="10.521043905687193"><ele>136.0</ele><time>2026-04-06T08:24:44Z</time></trkpt><trkpt lat="45.45263674398298" lon="10.520927949441864"><ele>136.0</ele><time>2026-04-06T08:24:46Z</time></trkpt><trkpt lat="45.45264203022401" lon="10.520788326791525"><ele>136.0</ele><time>2026-04-06T08:24:48Z</time></trkpt><trkpt lat="45.452607496335574" lon="10.520660646603911"><ele>136.0</ele><time>2026-04-06T08:24:50Z</time></trkpt><trkpt lat="45.45258590873574" lon="10.52053334566832"><ele>136.0</ele><time>2026-04-06T08:24:52Z</time></trkpt><trkpt lat="45.45264082251807" lon="10.520436011106463"><ele>136.0</ele><time>2026-04-06T08:24:54Z</time></trkpt><trkpt lat="45.45273636678387" lon="10.520505325795819"><ele>136.0</ele><time>2026-04-06T08:24:56Z</time></trkpt><trkpt lat="45.452810528567355" lon="10.520623907188488"><ele>136.0</ele><time>2026-04-06T08:24:58Z</time></trkpt><trkpt lat="45.45290410738147" lon="10.520703789665736"><ele>136.0</ele><time>2026-04-06T08:25:00Z</time></trkpt><trkpt lat="45.4530041565848" lon="10.520772815890744"><ele>136.0</ele><time>2026-04-06T08:25:02Z</time></trkpt><trkpt lat="45.45310496528763" lon="10.520838851236414"><ele>136.2</ele><time>2026-04-06T08:25:04Z</time></trkpt><trkpt lat="45.45321065968018" lon="10.52090488513876"><ele>136.39999999999998</ele><time>2026-04-06T08:25:06Z</time></trkpt><trkpt lat="45.45331355267262" lon="10.520972202017125"><ele>136.6</ele><time>2026-04-06T08:25:08Z</time></trkpt><trkpt lat="45.45341665175967" lon="10.521034394126193"><ele>136.79999999999998</ele><time>2026-04-06T08:25:10Z</time></trkpt><trkpt lat="45.45352287774219" lon="10.521033490519963"><ele>137.0</ele><time>2026-04-06T08:25:12Z</time></trkpt><trkpt lat="45.45359326710624" lon="10.520906444393626"><ele>137.0</ele><time>2026-04-06T08:25:14Z</time></trkpt><trkpt lat="45.453633413425365" lon="10.520760854912162"><ele>137.0</ele><time>2026-04-06T08:25:16Z</time></trkpt><trkpt lat="45.45366564922071" lon="10.520628106341345"><ele>137.0</ele><time>2026-04-06T08:25:18Z</time></trkpt><trkpt lat="45.453680509494674" lon="10.520492882884687"><ele>137.0</ele><time>2026-04-06T08:25:20Z</time></trkpt><trkpt lat="45.45369017913538" lon="10.520340474950517"><ele>137.0</ele><time>2026-04-06T08:25:22Z</time></trkpt><trkpt lat="45.4537005986659" lon="10.520172222856354"><ele>137.16666666666666</ele><time>2026-04-06T08:25:24Z</time></trkpt><trkpt lat="45.45370371046232" lon="10.51998882042613"><ele>137.33333333333331</ele><time>2026-04-06T08:25:26Z</time></trkpt><trkpt lat="45.4537032338759" lon="10.519897518233094"><ele>137.5</ele><time>2026-04-06T08:25:27Z</time></trkpt><trkpt lat="45.45370360388524" lon="10.51980465938969"><ele>137.66666666666666</ele><time>2026-04-06T08:25:28Z</time></trkpt><trkpt lat="45.45370650082541" lon="10.519709670476148"><ele>137.83333333333334</ele><time>2026-04-06T08:25:29Z</time></trkpt><trkpt lat="45.45370975051196" lon="10.519619724461723"><ele>138.0</ele><time>2026-04-06T08:25:30Z</time></trkpt><trkpt lat="45.45371063189205" lon="10.519528542153893"><ele>137.6</ele><time>2026-04-06T08:25:31Z</time></trkpt><trkpt lat="45.45371714889859" lon="10.519439072118566"><ele>137.20000000000002</ele><time>2026-04-06T08:25:32Z</time></trkpt><trkpt lat="45.45373576752683" lon="10.519264215186993"><ele>136.8</ele><time>2026-04-06T08:25:34Z</time></trkpt><trkpt lat="45.453753027499985" lon="10.519093535535838"><ele>136.4</ele><time>2026-04-06T08:25:36Z</time></trkpt><trkpt lat="45.453767809835135" lon="10.51892178173899"><ele>136.0</ele><time>2026-04-06T08:25:38Z</time></trkpt><trkpt lat="45.45377825415332" lon="10.518753897048324"><ele>136.25</ele><time>2026-04-06T08:25:40Z</time></trkpt><trkpt lat="45.45378367151684" lon="10.5185858860816"><ele>136.5</ele><time>2026-04-06T08:25:42Z</time></trkpt><trkpt lat="45.453786103855776" lon="10.518421300041075"><ele>136.75</ele><time>2026-04-06T08:25:44Z</time></trkpt><trkpt lat="45.45378506386864" lon="10.518253689340307"><ele>137.0</ele><time>2026-04-06T08:25:46Z</time></trkpt><trkpt lat="45.45378073481624" lon="10.51808814266197"><ele>137.0</ele><time>2026-04-06T08:25:48Z</time></trkpt><trkpt lat="45.45377579090002" lon="10.517919894037238"><ele>137.0</ele><time>2026-04-06T08:25:50Z</time></trkpt><trkpt lat="45.453771955252286" lon="10.517749917924593"><ele>137.0</ele><time>2026-04-06T08:25:52Z</time></trkpt><trkpt lat="45.45376236663912" lon="10.51758009950552"><ele>137.0</ele><time>2026-04-06T08:25:54Z</time></trkpt><trkpt lat="45.45376523257643" lon="10.517405476105129"><ele>137.0</ele><time>2026-04-06T08:25:56Z</time></trkpt><trkpt lat="45.45377883567053" lon="10.517232901060419"><ele>137.0</ele><time>2026-04-06T08:25:58Z</time></trkpt><trkpt lat="45.45380046942806" lon="10.5170605176216"><ele>137.0</ele><time>2026-04-06T08:26:00Z</time></trkpt><trkpt lat="45.453827475143505" lon="10.516893944232288"><ele>137.0</ele><time>2026-04-06T08:26:02Z</time></trkpt><trkpt lat="45.453846612888846" lon="10.51672611401981"><ele>137.0</ele><time>2026-04-06T08:26:04Z</time></trkpt><trkpt lat="45.45383076013487" lon="10.516547885830665"><ele>137.0</ele><time>2026-04-06T08:26:06Z</time></trkpt><trkpt lat="45.45379410583541" lon="10.516472490338105"><ele>137.0</ele><time>2026-04-06T08:26:07Z</time></trkpt><trkpt lat="45.45374757549502" lon="10.51640173772206"><ele>137.0</ele><time>2026-04-06T08:26:08Z</time></trkpt><trkpt lat="45.45367914373541" lon="10.516271628782977"><ele>137.0</ele><time>2026-04-06T08:26:10Z</time></trkpt><trkpt lat="45.45364395977816" lon="10.516133865480997"><ele>137.25</ele><time>2026-04-06T08:26:12Z</time></trkpt><trkpt lat="45.4535325438661" lon="10.516009255757513"><ele>137.5</ele><time>2026-04-06T08:26:14Z</time></trkpt><trkpt lat="45.453452496437606" lon="10.516052580091804"><ele>137.75</ele><time>2026-04-06T08:26:15Z</time></trkpt><trkpt lat="45.45333817348278" lon="10.516049444097487"><ele>138.0</ele><time>2026-04-06T08:26:17Z</time></trkpt><trkpt lat="45.45322214179293" lon="10.516061094510984"><ele>138.0</ele><time>2026-04-06T08:26:19Z</time></trkpt><trkpt lat="45.453102099167985" lon="10.516016779917866"><ele>138.0</ele><time>2026-04-06T08:26:21Z</time></trkpt><trkpt lat="45.4529814880753" lon="10.515993027384708"><ele>138.0</ele><time>2026-04-06T08:26:23Z</time></trkpt><trkpt lat="45.45285990405748" lon="10.515989110001547"><ele>138.0</ele><time>2026-04-06T08:26:25Z</time></trkpt><trkpt lat="45.45274432089893" lon="10.515954581938937"><ele>138.0</ele><time>2026-04-06T08:26:27Z</time></trkpt><trkpt lat="45.452626189095895" lon="10.515943696253826"><ele>138.0</ele><time>2026-04-06T08:26:29Z</time></trkpt><trkpt lat="45.452508673399265" lon="10.515922188960781"><ele>138.0</ele><time>2026-04-06T08:26:31Z</time></trkpt><trkpt lat="45.452389168594564" lon="10.515906933641627"><ele>138.0</ele><time>2026-04-06T08:26:33Z</time></trkpt><trkpt lat="45.45227215709179" lon="10.515897419697573"><ele>138.0</ele><time>2026-04-06T08:26:35Z</time></trkpt><trkpt lat="45.45220814193281" lon="10.515890751575848"><ele>138.0</ele><time>2026-04-06T08:26:36Z</time></trkpt><trkpt lat="45.45208697784293" lon="10.515860960942364"><ele>138.0</ele><time>2026-04-06T08:26:38Z</time></trkpt><trkpt lat="45.45196602556728" lon="10.515851781909275"><ele>138.0</ele><time>2026-04-06T08:26:40Z</time></trkpt><trkpt lat="45.45184501002276" lon="10.515842598080033"><ele>138.0</ele><time>2026-04-06T08:26:42Z</time></trkpt><trkpt lat="45.45178044126158" lon="10.515858722258534"><ele>137.25</ele><time>2026-04-06T08:26:43Z</time></trkpt><trkpt lat="45.4516630301214" lon="10.515832286195687"><ele>136.5</ele><time>2026-04-06T08:26:45Z</time></trkpt><trkpt lat="45.45154072762612" lon="10.515819254003205"><ele>135.75</ele><time>2026-04-06T08:26:47Z</time></trkpt><trkpt lat="45.45143114501002" lon="10.515771814585529"><ele>135.0</ele><time>2026-04-06T08:26:49Z</time></trkpt><trkpt lat="45.45132962933666" lon="10.515729711401333"><ele>135.0</ele><time>2026-04-06T08:26:51Z</time></trkpt><trkpt lat="45.4512817547456" lon="10.515626365025078"><ele>135.0</ele><time>2026-04-06T08:26:53Z</time></trkpt><trkpt lat="45.45132387149636" lon="10.515484272033554"><ele>135.0</ele><time>2026-04-06T08:26:55Z</time></trkpt><trkpt lat="45.45132522741366" lon="10.515332895074893"><ele>135.0</ele><time>2026-04-06T08:26:57Z</time></trkpt><trkpt lat="45.45133781746849" lon="10.51518078331659"><ele>135.0</ele><time>2026-04-06T08:26:59Z</time></trkpt><trkpt lat="45.4513509766019" lon="10.515026174861895"><ele>135.2</ele><time>2026-04-06T08:27:01Z</time></trkpt><trkpt lat="45.45138008851319" lon="10.514878094118256"><ele>135.4</ele><time>2026-04-06T08:27:03Z</time></trkpt><trkpt lat="45.451396049963485" lon="10.514731548042887"><ele>135.6</ele><time>2026-04-06T08:27:05Z</time></trkpt><trkpt lat="45.45139914245992" lon="10.514588063958142"><ele>135.8</ele><time>2026-04-06T08:27:07Z</time></trkpt><trkpt lat="45.451416804547335" lon="10.51444362628291"><ele>136.0</ele><time>2026-04-06T08:27:09Z</time></trkpt><trkpt lat="45.451448571542215" lon="10.514300820206042"><ele>135.6</ele><time>2026-04-06T08:27:11Z</time></trkpt><trkpt lat="45.451452985652985" lon="10.514165313033885"><ele>135.2</ele><time>2026-04-06T08:27:13Z</time></trkpt><trkpt lat="45.45148327087448" lon="10.514032878630399"><ele>134.8</ele><time>2026-04-06T08:27:15Z</time></trkpt><trkpt lat="45.45148597881026" lon="10.513892880268473"><ele>134.4</ele><time>2026-04-06T08:27:17Z</time></trkpt><trkpt lat="45.4515080805795" lon="10.513756366420955"><ele>134.0</ele><time>2026-04-06T08:27:19Z</time></trkpt><trkpt lat="45.451545486730275" lon="10.513624218501816"><ele>134.0</ele><time>2026-04-06T08:27:21Z</time></trkpt><trkpt lat="45.45155363020844" lon="10.513486970132865"><ele>134.0</ele><time>2026-04-06T08:27:23Z</time></trkpt><trkpt lat="45.45157688855631" lon="10.513351311362927"><ele>134.0</ele><time>2026-04-06T08:27:25Z</time></trkpt><trkpt lat="45.45160348306083" lon="10.513212201995433"><ele>134.0</ele><time>2026-04-06T08:27:27Z</time></trkpt><trkpt lat="45.45163010590964" lon="10.513075145279402"><ele>134.0</ele><time>2026-04-06T08:27:29Z</time></trkpt><trkpt lat="45.45165614545628" lon="10.51294132493291"><ele>134.6</ele><time>2026-04-06T08:27:31Z</time></trkpt><trkpt lat="45.45167940466185" lon="10.512809079197767"><ele>135.2</ele><time>2026-04-06T08:27:33Z</time></trkpt><trkpt lat="45.451707683812536" lon="10.512675729546627"><ele>135.79999999999998</ele><time>2026-04-06T08:27:35Z</time></trkpt><trkpt lat="45.45172885971248" lon="10.512550482786263"><ele>136.4</ele><time>2026-04-06T08:27:37Z</time></trkpt><trkpt lat="45.45174513097101" lon="10.51242906017777"><ele>137.0</ele><time>2026-04-06T08:27:39Z</time></trkpt><trkpt lat="45.45175373469122" lon="10.512300299031095"><ele>137.0</ele><time>2026-04-06T08:27:41Z</time></trkpt><trkpt lat="45.451773314606" lon="10.512175825694573"><ele>137.0</ele><time>2026-04-06T08:27:43Z</time></trkpt><trkpt lat="45.45177855789584" lon="10.512052152697342"><ele>137.0</ele><time>2026-04-06T08:27:45Z</time></trkpt><trkpt lat="45.4517908697712" lon="10.511930546993364"><ele>137.0</ele><time>2026-04-06T08:27:47Z</time></trkpt><trkpt lat="45.45180220616447" lon="10.511815020972307"><ele>137.0</ele><time>2026-04-06T08:27:49Z</time></trkpt><trkpt lat="45.451826266800914" lon="10.511713633343831"><ele>137.0</ele><time>2026-04-06T08:27:51Z</time></trkpt><trkpt lat="45.451695867215854" lon="10.51159821865862"><ele>138.0</ele><time>2026-04-06T08:27:54Z</time></trkpt><trkpt lat="45.4516058132868" lon="10.511581313046966"><ele>139.0</ele><time>2026-04-06T08:27:56Z</time></trkpt><trkpt lat="45.451513266671896" lon="10.511565681964878"><ele>140.0</ele><time>2026-04-06T08:27:58Z</time></trkpt><trkpt lat="45.45142584190228" lon="10.511557763326799"><ele>141.0</ele><time>2026-04-06T08:28:00Z</time></trkpt><trkpt lat="45.45133790519836" lon="10.51154821857743"><ele>142.0</ele><time>2026-04-06T08:28:02Z</time></trkpt><trkpt lat="45.45124315314832" lon="10.51155443132288"><ele>142.5</ele><time>2026-04-06T08:28:04Z</time></trkpt><trkpt lat="45.45115861524707" lon="10.51153619514968"><ele>143.0</ele><time>2026-04-06T08:28:06Z</time></trkpt><trkpt lat="45.4510750564291" lon="10.511500467574855"><ele>143.5</ele><time>2026-04-06T08:28:08Z</time></trkpt><trkpt lat="45.45099216183879" lon="10.511446615838425"><ele>144.0</ele><time>2026-04-06T08:28:10Z</time></trkpt><trkpt lat="45.45091751495079" lon="10.511373806401597"><ele>144.5</ele><time>2026-04-06T08:28:12Z</time></trkpt><trkpt lat="45.450847280621545" lon="10.511296680816223"><ele>145.0</ele><time>2026-04-06T08:28:14Z</time></trkpt><trkpt lat="45.45076046618821" lon="10.511302241785938"><ele>145.0</ele><time>2026-04-06T08:28:16Z</time></trkpt><trkpt lat="45.45067435071444" lon="10.511355968815572"><ele>145.0</ele><time>2026-04-06T08:28:18Z</time></trkpt><trkpt lat="45.45058022106795" lon="10.511348201426472"><ele>145.0</ele><time>2026-04-06T08:28:20Z</time></trkpt><trkpt lat="45.45050120393141" lon="10.51132887803672"><ele>145.0</ele><time>2026-04-06T08:28:22Z</time></trkpt><trkpt lat="45.45043072946021" lon="10.5113070291587"><ele>145.0</ele><time>2026-04-06T08:28:24Z</time></trkpt><trkpt lat="45.45035571908265" lon="10.511292392023925"><ele>145.0</ele><time>2026-04-06T08:28:26Z</time></trkpt><trkpt lat="45.45029072264872" lon="10.511276447742043"><ele>145.5</ele><time>2026-04-06T08:28:27Z</time></trkpt><trkpt lat="45.45019648962506" lon="10.511223395257897"><ele>146.0</ele><time>2026-04-06T08:28:29Z</time></trkpt><trkpt lat="45.45015032274858" lon="10.51110936660612"><ele>146.5</ele><time>2026-04-06T08:28:31Z</time></trkpt><trkpt lat="45.45012567965854" lon="10.510990846383278"><ele>147.0</ele><time>2026-04-06T08:28:33Z</time></trkpt><trkpt lat="45.45011577472558" lon="10.51087764101466"><ele>147.5</ele><time>2026-04-06T08:28:35Z</time></trkpt><trkpt lat="45.450132845181244" lon="10.510757368613973"><ele>148.0</ele><time>2026-04-06T08:28:37Z</time></trkpt><trkpt lat="45.4501169084869" lon="10.510642313232802"><ele>148.0</ele><time>2026-04-06T08:28:39Z</time></trkpt><trkpt lat="45.45013240438543" lon="10.510527001033305"><ele>148.0</ele><time>2026-04-06T08:28:41Z</time></trkpt><trkpt lat="45.450131749424074" lon="10.510411442770893"><ele>148.0</ele><time>2026-04-06T08:28:43Z</time></trkpt><trkpt lat="45.45012711823308" lon="10.51030514662752"><ele>148.0</ele><time>2026-04-06T08:28:45Z</time></trkpt><trkpt lat="45.449986262180154" lon="10.510226052054747"><ele>148.0</ele><time>2026-04-06T08:28:48Z</time></trkpt><trkpt lat="45.449904729570484" lon="10.510184202981076"><ele>148.4</ele><time>2026-04-06T08:28:50Z</time></trkpt><trkpt lat="45.449813437871775" lon="10.510168905662237"><ele>148.8</ele><time>2026-04-06T08:28:52Z</time></trkpt><trkpt lat="45.44971870993078" lon="10.510129721537137"><ele>149.2</ele><time>2026-04-06T08:28:54Z</time></trkpt><trkpt lat="45.449613046569254" lon="10.51009204772861"><ele>149.6</ele><time>2026-04-06T08:28:56Z</time></trkpt><trkpt lat="45.449504512158434" lon="10.510050813857676"><ele>150.0</ele><time>2026-04-06T08:28:58Z</time></trkpt><trkpt lat="45.449395953312404" lon="10.510011016522256"><ele>150.0</ele><time>2026-04-06T08:29:00Z</time></trkpt><trkpt lat="45.449287993990346" lon="10.509967821821208"><ele>150.0</ele><time>2026-04-06T08:29:02Z</time></trkpt><trkpt lat="45.449182879694305" lon="10.509905930669818"><ele>150.0</ele><time>2026-04-06T08:29:04Z</time></trkpt><trkpt lat="45.44908224800283" lon="10.509824395555004"><ele>150.0</ele><time>2026-04-06T08:29:06Z</time></trkpt><trkpt lat="45.44895830968662" lon="10.509815840349415"><ele>150.0</ele><time>2026-04-06T08:29:08Z</time></trkpt><trkpt lat="45.44883324875535" lon="10.509806612182182"><ele>150.0</ele><time>2026-04-06T08:29:10Z</time></trkpt><trkpt lat="45.448723099433835" lon="10.509802307953759"><ele>150.0</ele><time>2026-04-06T08:29:12Z</time></trkpt><trkpt lat="45.44883806047398" lon="10.509330627073405"><ele>151.66666666666666</ele><time>2026-04-06T08:29:14Z</time></trkpt><trkpt lat="45.448779962066396" lon="10.509243282603364"><ele>153.33333333333331</ele><time>2026-04-06T08:29:16Z</time></trkpt><trkpt lat="45.44871585616444" lon="10.509145841692204"><ele>155.0</ele><time>2026-04-06T08:29:18Z</time></trkpt><trkpt lat="45.44832606770343" lon="10.508925499174394"><ele>155.0</ele><time>2026-04-06T08:29:30Z</time></trkpt><trkpt lat="45.4482574916929" lon="10.508936354903064"><ele>155.0</ele><time>2026-04-06T08:29:32Z</time></trkpt><trkpt lat="45.448213645530295" lon="10.508860392459914"><ele>155.0</ele><time>2026-04-06T08:29:35Z</time></trkpt><trkpt lat="45.44822859933529" lon="10.508740792702913"><ele>155.0</ele><time>2026-04-06T08:29:37Z</time></trkpt><trkpt lat="45.44819502033452" lon="10.508632902000112"><ele>155.0</ele><time>2026-04-06T08:29:39Z</time></trkpt><trkpt lat="45.448145394808556" lon="10.508535340915614"><ele>155.0</ele><time>2026-04-06T08:29:41Z</time></trkpt><trkpt lat="45.448095860234" lon="10.508454207317026"><ele>155.16666666666666</ele><time>2026-04-06T08:29:43Z</time></trkpt><trkpt lat="45.44803667361239" lon="10.50837497301718"><ele>155.33333333333331</ele><time>2026-04-06T08:29:45Z</time></trkpt><trkpt lat="45.44798917535533" lon="10.508303597869647"><ele>155.5</ele><time>2026-04-06T08:29:47Z</time></trkpt><trkpt lat="45.447920644547715" lon="10.508243420324987"><ele>155.66666666666666</ele><time>2026-04-06T08:29:49Z</time></trkpt><trkpt lat="45.44783056016692" lon="10.508268517502769"><ele>155.83333333333334</ele><time>2026-04-06T08:29:51Z</time></trkpt><trkpt lat="45.44775920120725" lon="10.508318772014702"><ele>156.0</ele><time>2026-04-06T08:29:53Z</time></trkpt><trkpt lat="45.44766950894695" lon="10.508363134462721"><ele>157.66666666666666</ele><time>2026-04-06T08:29:56Z</time></trkpt><trkpt lat="45.44760620374763" lon="10.508443631618928"><ele>159.33333333333334</ele><time>2026-04-06T08:29:59Z</time></trkpt><trkpt lat="45.447567522532275" lon="10.508529026811958"><ele>161.0</ele><time>2026-04-06T08:30:01Z</time></trkpt><trkpt lat="45.447526008203454" lon="10.508622364685838"><ele>162.66666666666669</ele><time>2026-04-06T08:30:04Z</time></trkpt><trkpt lat="45.44746649776631" lon="10.508685978845879"><ele>164.33333333333334</ele><time>2026-04-06T08:30:07Z</time></trkpt><trkpt lat="45.4473881405103" lon="10.508690318706961"><ele>166.0</ele><time>2026-04-06T08:30:09Z</time></trkpt><trkpt lat="45.44731690039972" lon="10.508709742954615"><ele>166.0</ele><time>2026-04-06T08:30:11Z</time></trkpt><trkpt lat="45.44724400812988" lon="10.508736588918632"><ele>166.0</ele><time>2026-04-06T08:30:13Z</time></trkpt><trkpt lat="45.44717513403372" lon="10.508779239400182"><ele>166.0</ele><time>2026-04-06T08:30:15Z</time></trkpt><trkpt lat="45.44710211309692" lon="10.508819830028877"><ele>166.0</ele><time>2026-04-06T08:30:17Z</time></trkpt><trkpt lat="45.44703906944127" lon="10.508850278998406"><ele>166.0</ele><time>2026-04-06T08:30:19Z</time></trkpt><trkpt lat="45.44696851987722" lon="10.508876748486603"><ele>166.0</ele><time>2026-04-06T08:30:21Z</time></trkpt><trkpt lat="45.446902064386165" lon="10.508922409900494"><ele>166.0</ele><time>2026-04-06T08:30:23Z</time></trkpt><trkpt lat="45.44680690122812" lon="10.508957470593023"><ele>165.8</ele><time>2026-04-06T08:30:26Z</time></trkpt><trkpt lat="45.44673725716799" lon="10.508992113955784"><ele>165.60000000000002</ele><time>2026-04-06T08:30:28Z</time></trkpt><trkpt lat="45.44665984831328" lon="10.50902106926109"><ele>165.4</ele><time>2026-04-06T08:30:30Z</time></trkpt><trkpt lat="45.44657552712049" lon="10.509055572116527"><ele>165.2</ele><time>2026-04-06T08:30:32Z</time></trkpt><trkpt lat="45.446483976886576" lon="10.509100418973476"><ele>165.0</ele><time>2026-04-06T08:30:34Z</time></trkpt><trkpt lat="45.446372828591436" lon="10.509117208803227"><ele>165.0</ele><time>2026-04-06T08:30:36Z</time></trkpt><trkpt lat="45.44630926387817" lon="10.50912169277233"><ele>165.0</ele><time>2026-04-06T08:30:37Z</time></trkpt><trkpt lat="45.446197761644186" lon="10.50910558306405"><ele>165.0</ele><time>2026-04-06T08:30:39Z</time></trkpt><trkpt lat="45.44609246331258" lon="10.50910228855935"><ele>165.0</ele><time>2026-04-06T08:30:41Z</time></trkpt><trkpt lat="45.44607323783702" lon="10.509209447131214"><ele>165.0</ele><time>2026-04-06T08:30:43Z</time></trkpt><trkpt lat="45.445992818813004" lon="10.509297995682479"><ele>165.6</ele><time>2026-04-06T08:30:45Z</time></trkpt><trkpt lat="45.44586678848486" lon="10.509301101215712"><ele>166.2</ele><time>2026-04-06T08:30:47Z</time></trkpt><trkpt lat="45.445737482729555" lon="10.509367418708797"><ele>166.8</ele><time>2026-04-06T08:30:49Z</time></trkpt><trkpt lat="45.4456715542706" lon="10.509401586280651"><ele>167.4</ele><time>2026-04-06T08:30:50Z</time></trkpt><trkpt lat="45.44559738530687" lon="10.509451425022473"><ele>168.0</ele><time>2026-04-06T08:30:51Z</time></trkpt><trkpt lat="45.44551051693142" lon="10.50951121666824"><ele>167.33333333333334</ele><time>2026-04-06T08:30:52Z</time></trkpt><trkpt lat="45.44544158980435" lon="10.509538893268028"><ele>166.66666666666666</ele><time>2026-04-06T08:30:53Z</time></trkpt><trkpt lat="45.44536658856473" lon="10.509592897584383"><ele>166.0</ele><time>2026-04-06T08:30:54Z</time></trkpt><trkpt lat="45.445300424024666" lon="10.50963931575641"><ele>165.33333333333331</ele><time>2026-04-06T08:30:55Z</time></trkpt><trkpt lat="45.44522859563867" lon="10.509696340629459"><ele>164.66666666666666</ele><time>2026-04-06T08:30:56Z</time></trkpt><trkpt lat="45.44516525885916" lon="10.50975144876447"><ele>164.0</ele><time>2026-04-06T08:30:57Z</time></trkpt><trkpt lat="45.44511439727213" lon="10.509807271351233"><ele>164.0</ele><time>2026-04-06T08:30:58Z</time></trkpt><trkpt lat="45.445051339817866" lon="10.509944375695708"><ele>164.0</ele><time>2026-04-06T08:31:00Z</time></trkpt><trkpt lat="45.44502399167386" lon="10.510072599873112"><ele>164.0</ele><time>2026-04-06T08:31:02Z</time></trkpt><trkpt lat="45.44498425627136" lon="10.510200034323097"><ele>164.0</ele><time>2026-04-06T08:31:04Z</time></trkpt><trkpt lat="45.44494604414078" lon="10.510328445122958"><ele>164.0</ele><time>2026-04-06T08:31:06Z</time></trkpt><trkpt lat="45.44490998843175" lon="10.510456573319631"><ele>165.39999999999998</ele><time>2026-04-06T08:31:08Z</time></trkpt><trkpt lat="45.44485360116483" lon="10.510591503065946"><ele>166.8</ele><time>2026-04-06T08:31:10Z</time></trkpt><trkpt lat="45.44481423187381" lon="10.510732145844303"><ele>168.2</ele><time>2026-04-06T08:31:12Z</time></trkpt><trkpt lat="45.44476849413738" lon="10.510846708739335"><ele>169.60000000000002</ele><time>2026-04-06T08:31:14Z</time></trkpt><trkpt lat="45.444695339568725" lon="10.510931653991788"><ele>171.0</ele><time>2026-04-06T08:31:16Z</time></trkpt><trkpt lat="45.444604766683184" lon="10.511003304661314"><ele>171.0</ele><time>2026-04-06T08:31:18Z</time></trkpt><trkpt lat="45.444512142718814" lon="10.511084247242717"><ele>171.0</ele><time>2026-04-06T08:31:20Z</time></trkpt><trkpt lat="45.44444130177328" lon="10.511158566580454"><ele>171.0</ele><time>2026-04-06T08:31:22Z</time></trkpt><trkpt lat="45.44439520521694" lon="10.511254701006171"><ele>171.0</ele><time>2026-04-06T08:31:25Z</time></trkpt><trkpt lat="45.444334422056066" lon="10.511221769192613"><ele>171.0</ele><time>2026-04-06T08:31:27Z</time></trkpt><trkpt lat="45.444245210529495" lon="10.511170314394795"><ele>171.0</ele><time>2026-04-06T08:31:30Z</time></trkpt><trkpt lat="45.44417876804627" lon="10.511125947921713"><ele>170.99999999999997</ele><time>2026-04-06T08:31:32Z</time></trkpt><trkpt lat="45.44411572220931" lon="10.511110168096277"><ele>171.0</ele><time>2026-04-06T08:31:34Z</time></trkpt><trkpt lat="45.4440532504721" lon="10.51108529198656"><ele>171.0</ele><time>2026-04-06T08:31:36Z</time></trkpt><trkpt lat="45.44398597578648" lon="10.511056090192296"><ele>171.0</ele><time>2026-04-06T08:31:38Z</time></trkpt><trkpt lat="45.44391957397087" lon="10.511006798898503"><ele>171.0</ele><time>2026-04-06T08:31:40Z</time></trkpt><trkpt lat="45.44386289153888" lon="10.510934386625355"><ele>170.99999999999997</ele><time>2026-04-06T08:31:42Z</time></trkpt><trkpt lat="45.4438095248221" lon="10.510865210685022"><ele>171.0</ele><time>2026-04-06T08:31:44Z</time></trkpt><trkpt lat="45.44373888975328" lon="10.510796088339793"><ele>170.5</ele><time>2026-04-06T08:31:46Z</time></trkpt><trkpt lat="45.44367047251349" lon="10.510759375647186"><ele>170.0</ele><time>2026-04-06T08:31:48Z</time></trkpt><trkpt lat="45.44359924908325" lon="10.510680040260132"><ele>169.5</ele><time>2026-04-06T08:31:50Z</time></trkpt><trkpt lat="45.4435464815962" lon="10.510614391070153"><ele>169.0</ele><time>2026-04-06T08:31:52Z</time></trkpt><trkpt lat="45.44349892371267" lon="10.510554951941861"><ele>168.5</ele><time>2026-04-06T08:31:54Z</time></trkpt><trkpt lat="45.44341844645854" lon="10.510543463388561"><ele>168.0</ele><time>2026-04-06T08:31:57Z</time></trkpt><trkpt lat="45.44332969333966" lon="10.510515416840637"><ele>168.0</ele><time>2026-04-06T08:32:00Z</time></trkpt><trkpt lat="45.443258801058455" lon="10.510514213127504"><ele>168.0</ele><time>2026-04-06T08:32:02Z</time></trkpt><trkpt lat="45.443188580922154" lon="10.510533021795599"><ele>168.0</ele><time>2026-04-06T08:32:04Z</time></trkpt><trkpt lat="45.4431056422775" lon="10.51052466102674"><ele>168.0</ele><time>2026-04-06T08:32:07Z</time></trkpt><trkpt lat="45.4430327849605" lon="10.510528573247347"><ele>168.0</ele><time>2026-04-06T08:32:09Z</time></trkpt><trkpt lat="45.44296495430441" lon="10.51053456017978"><ele>168.0</ele><time>2026-04-06T08:32:11Z</time></trkpt><trkpt lat="45.442897254083114" lon="10.510569114988503"><ele>168.0</ele><time>2026-04-06T08:32:13Z</time></trkpt><trkpt lat="45.442809187875156" lon="10.510591934459347"><ele>168.0</ele><time>2026-04-06T08:32:15Z</time></trkpt><trkpt lat="45.442720320582445" lon="10.510604914210413"><ele>168.0</ele><time>2026-04-06T08:32:17Z</time></trkpt><trkpt lat="45.442652901001296" lon="10.510581476107165"><ele>168.0</ele><time>2026-04-06T08:32:19Z</time></trkpt><trkpt lat="45.44256870873788" lon="10.510559864221028"><ele>168.0</ele><time>2026-04-06T08:32:22Z</time></trkpt><trkpt lat="45.44249670552122" lon="10.510569026211929"><ele>168.0</ele><time>2026-04-06T08:32:24Z</time></trkpt><trkpt lat="45.442433713848146" lon="10.510586453916556"><ele>168.0</ele><time>2026-04-06T08:32:26Z</time></trkpt><trkpt lat="45.442353939014446" lon="10.5106261267699"><ele>168.0</ele><time>2026-04-06T08:32:28Z</time></trkpt><trkpt lat="45.44228444971194" lon="10.510655434323251"><ele>168.0</ele><time>2026-04-06T08:32:30Z</time></trkpt><trkpt lat="45.44222190726638" lon="10.510702572844021"><ele>168.0</ele><time>2026-04-06T08:32:32Z</time></trkpt><trkpt lat="45.44216465854639" lon="10.510748871609646"><ele>168.0</ele><time>2026-04-06T08:32:34Z</time></trkpt><trkpt lat="45.44209947989448" lon="10.510784339214775"><ele>168.0</ele><time>2026-04-06T08:32:37Z</time></trkpt><trkpt lat="45.44202994837389" lon="10.510791649447027"><ele>168.0</ele><time>2026-04-06T08:32:41Z</time></trkpt><trkpt lat="45.441962366784125" lon="10.510809339625343"><ele>168.0</ele><time>2026-04-06T08:32:45Z</time></trkpt><trkpt lat="45.44187744079497" lon="10.510820727102379"><ele>167.33333333333334</ele><time>2026-04-06T08:32:48Z</time></trkpt><trkpt lat="45.44179557478708" lon="10.510816572210299"><ele>166.66666666666666</ele><time>2026-04-06T08:32:51Z</time></trkpt><trkpt lat="45.44171047353928" lon="10.510810813836542"><ele>166.0</ele><time>2026-04-06T08:32:54Z</time></trkpt><trkpt lat="45.44164704061349" lon="10.510811300961523"><ele>165.33333333333331</ele><time>2026-04-06T08:32:58Z</time></trkpt><trkpt lat="45.441581240224714" lon="10.510818694074736"><ele>164.66666666666666</ele><time>2026-04-06T08:33:02Z</time></trkpt><trkpt lat="45.44151176100095" lon="10.510808051928107"><ele>164.0</ele><time>2026-04-06T08:33:08Z</time></trkpt><trkpt lat="45.441404629839184" lon="10.510878241300544"><ele>164.0</ele><time>2026-04-06T08:33:49Z</time></trkpt><trkpt lat="45.4413382897536" lon="10.51095916293779"><ele>164.0</ele><time>2026-04-06T08:34:17Z</time></trkpt><trkpt lat="45.44128269825047" lon="10.511013838603363"><ele>164.0</ele><time>2026-04-06T08:34:52Z</time></trkpt><trkpt lat="45.441258849442846" lon="10.511141064137618"><ele>164.0</ele><time>2026-04-06T08:36:08Z</time></trkpt><trkpt lat="45.44121892966193" lon="10.51121860662366"><ele>164.0</ele><time>2026-04-06T08:36:14Z</time></trkpt><trkpt lat="45.441221868110986" lon="10.511320432911527"><ele>164.0</ele><time>2026-04-06T08:36:20Z</time></trkpt><trkpt lat="45.44123962722197" lon="10.511408133138934"><ele>162.42857142857142</ele><time>2026-04-06T08:36:23Z</time></trkpt><trkpt lat="45.44116416609246" lon="10.511464204591082"><ele>160.85714285714286</ele><time>2026-04-06T08:36:36Z</time></trkpt><trkpt lat="45.44111485853239" lon="10.511390433960194"><ele>159.28571428571428</ele><time>2026-04-06T08:36:39Z</time></trkpt><trkpt lat="45.44105839313592" lon="10.511338697151016"><ele>157.71428571428572</ele><time>2026-04-06T08:36:42Z</time></trkpt><trkpt lat="45.44097711294903" lon="10.511318432714306"><ele>156.14285714285714</ele><time>2026-04-06T08:36:45Z</time></trkpt><trkpt lat="45.44090859217187" lon="10.511330748577281"><ele>154.57142857142856</ele><time>2026-04-06T08:36:48Z</time></trkpt><trkpt lat="45.44084138809804" lon="10.511360808415805"><ele>153.0</ele><time>2026-04-06T08:36:51Z</time></trkpt><trkpt lat="45.44075650879878" lon="10.511400538164462"><ele>153.0</ele><time>2026-04-06T08:36:54Z</time></trkpt><trkpt lat="45.4406808188855" lon="10.511452760622031"><ele>153.0</ele><time>2026-04-06T08:36:57Z</time></trkpt><trkpt lat="45.44061717583429" lon="10.511517008492872"><ele>153.0</ele><time>2026-04-06T08:36:59Z</time></trkpt><trkpt lat="45.440539274908886" lon="10.511570171682775"><ele>153.0</ele><time>2026-04-06T08:37:01Z</time></trkpt><trkpt lat="45.44048059060709" lon="10.511627286617026"><ele>153.0</ele><time>2026-04-06T08:37:03Z</time></trkpt><trkpt lat="45.440422844967806" lon="10.511669444321607"><ele>153.0</ele><time>2026-04-06T08:37:05Z</time></trkpt><trkpt lat="45.44035264378692" lon="10.5117453811905"><ele>151.5</ele><time>2026-04-06T08:37:07Z</time></trkpt><trkpt lat="45.44029462716482" lon="10.511851857637492"><ele>150.0</ele><time>2026-04-06T08:37:10Z</time></trkpt><trkpt lat="45.44026758759474" lon="10.51195714324388"><ele>148.5</ele><time>2026-04-06T08:37:12Z</time></trkpt><trkpt lat="45.44019830719436" lon="10.512020115674162"><ele>147.0</ele><time>2026-04-06T08:37:16Z</time></trkpt><trkpt lat="45.44012787743694" lon="10.512053351631637"><ele>145.5</ele><time>2026-04-06T08:37:18Z</time></trkpt><trkpt lat="45.44006391728182" lon="10.512081227097942"><ele>144.0</ele><time>2026-04-06T08:37:20Z</time></trkpt><trkpt lat="45.439979004181446" lon="10.512115912289131"><ele>142.83333333333334</ele><time>2026-04-06T08:37:23Z</time></trkpt><trkpt lat="45.43990765954356" lon="10.512148405064499"><ele>141.66666666666666</ele><time>2026-04-06T08:37:26Z</time></trkpt><trkpt lat="45.439831543722185" lon="10.512172035375482"><ele>140.5</ele><time>2026-04-06T08:37:30Z</time></trkpt><trkpt lat="45.43975281599866" lon="10.51221080701424"><ele>139.33333333333331</ele><time>2026-04-06T08:37:33Z</time></trkpt><trkpt lat="45.43969269923512" lon="10.512242479080474"><ele>138.16666666666666</ele><time>2026-04-06T08:37:36Z</time></trkpt><trkpt lat="45.43965157294108" lon="10.51243862497293"><ele>137.0</ele><time>2026-04-06T08:37:37Z</time></trkpt><trkpt lat="45.43957630396045" lon="10.512430783171041"><ele>136.16666666666666</ele><time>2026-04-06T08:37:39Z</time></trkpt><trkpt lat="45.439503093237555" lon="10.512423155793615"><ele>135.33333333333331</ele><time>2026-04-06T08:37:41Z</time></trkpt><trkpt lat="45.439423050995345" lon="10.512414816656811"><ele>134.5</ele><time>2026-04-06T08:37:44Z</time></trkpt><trkpt lat="45.43933596788711" lon="10.512413806055777"><ele>133.66666666666666</ele><time>2026-04-06T08:37:47Z</time></trkpt><trkpt lat="45.43924619309135" lon="10.51241675868836"><ele>132.83333333333334</ele><time>2026-04-06T08:37:51Z</time></trkpt><trkpt lat="45.4391816733839" lon="10.51240999056569"><ele>132.0</ele><time>2026-04-06T08:37:54Z</time></trkpt><trkpt lat="45.43907339699193" lon="10.512280886143166"><ele>132.0</ele><time>2026-04-06T08:37:58Z</time></trkpt><trkpt lat="45.43904239697921" lon="10.5123918890403"><ele>132.0</ele><time>2026-04-06T08:38:04Z</time></trkpt><trkpt lat="45.43905056037291" lon="10.512235148724523"><ele>132.0</ele><time>2026-04-06T08:38:05Z</time></trkpt><trkpt lat="45.43899944664087" lon="10.512149828605638"><ele>132.0</ele><time>2026-04-06T08:38:07Z</time></trkpt><trkpt lat="45.4389557140289" lon="10.512061958091511"><ele>132.0</ele><time>2026-04-06T08:38:09Z</time></trkpt><trkpt lat="45.4388909088112" lon="10.511980907543006"><ele>132.0</ele><time>2026-04-06T08:38:11Z</time></trkpt><trkpt lat="45.438835786628545" lon="10.511896566710446"><ele>133.14285714285714</ele><time>2026-04-06T08:38:13Z</time></trkpt><trkpt lat="45.43878144505781" lon="10.511824403715753"><ele>134.28571428571428</ele><time>2026-04-06T08:38:15Z</time></trkpt><trkpt lat="45.438720148369434" lon="10.511751686409946"><ele>135.42857142857144</ele><time>2026-04-06T08:38:17Z</time></trkpt><trkpt lat="45.438672019027685" lon="10.511673758635812"><ele>136.57142857142856</ele><time>2026-04-06T08:38:19Z</time></trkpt><trkpt lat="45.43864221383207" lon="10.511585937941678"><ele>137.71428571428572</ele><time>2026-04-06T08:38:22Z</time></trkpt><trkpt lat="45.43859002514928" lon="10.511502816516085"><ele>138.85714285714286</ele><time>2026-04-06T08:38:38Z</time></trkpt><trkpt lat="45.43854498801567" lon="10.511431084834486"><ele>140.0</ele><time>2026-04-06T08:38:45Z</time></trkpt><trkpt lat="45.4385374887205" lon="10.51133521563046"><ele>141.66666666666666</ele><time>2026-04-06T08:38:48Z</time></trkpt><trkpt lat="45.4384841807835" lon="10.511229719893942"><ele>143.33333333333331</ele><time>2026-04-06T08:38:51Z</time></trkpt><trkpt lat="45.438426086721684" lon="10.511136209102363"><ele>145.0</ele><time>2026-04-06T08:38:53Z</time></trkpt><trkpt lat="45.43836536810514" lon="10.511073390901958"><ele>146.66666666666666</ele><time>2026-04-06T08:38:55Z</time></trkpt><trkpt lat="45.43828880250876" lon="10.511024004214502"><ele>148.33333333333334</ele><time>2026-04-06T08:38:57Z</time></trkpt><trkpt lat="45.43821461573823" lon="10.51099147289276"><ele>150.0</ele><time>2026-04-06T08:38:59Z</time></trkpt><trkpt lat="45.438137717191275" lon="10.510945377668227"><ele>150.0</ele><time>2026-04-06T08:39:01Z</time></trkpt><trkpt lat="45.43805939892915" lon="10.510881984270718"><ele>150.0</ele><time>2026-04-06T08:39:03Z</time></trkpt><trkpt lat="45.4379811842004" lon="10.510843784121427"><ele>150.0</ele><time>2026-04-06T08:39:05Z</time></trkpt><trkpt lat="45.43791387672535" lon="10.510770150141136"><ele>150.0</ele><time>2026-04-06T08:39:07Z</time></trkpt><trkpt lat="45.43783815163865" lon="10.510707903853053"><ele>150.0</ele><time>2026-04-06T08:39:09Z</time></trkpt><trkpt lat="45.43774890921728" lon="10.51063308863262"><ele>150.0</ele><time>2026-04-06T08:39:11Z</time></trkpt><trkpt lat="45.437667469762765" lon="10.510559639756586"><ele>149.0</ele><time>2026-04-06T08:39:13Z</time></trkpt><trkpt lat="45.437576852227174" lon="10.510500700950843"><ele>148.0</ele><time>2026-04-06T08:39:15Z</time></trkpt><trkpt lat="45.437496117891776" lon="10.510415776826836"><ele>147.0</ele><time>2026-04-06T08:39:17Z</time></trkpt><trkpt lat="45.437421595482796" lon="10.510312850110045"><ele>146.0</ele><time>2026-04-06T08:39:19Z</time></trkpt><trkpt lat="45.43733409230653" lon="10.510222700616639"><ele>145.0</ele><time>2026-04-06T08:39:21Z</time></trkpt><trkpt lat="45.43723875457837" lon="10.510155983834897"><ele>145.0</ele><time>2026-04-06T08:39:23Z</time></trkpt><trkpt lat="45.43715755975417" lon="10.510067215949904"><ele>145.0</ele><time>2026-04-06T08:39:25Z</time></trkpt><trkpt lat="45.437079734212254" lon="10.510022038960596"><ele>145.0</ele><time>2026-04-06T08:39:27Z</time></trkpt><trkpt lat="45.43702489897505" lon="10.509934574366843"><ele>145.0</ele><time>2026-04-06T08:39:30Z</time></trkpt><trkpt lat="45.437093530370376" lon="10.509770348375143"><ele>145.0</ele><time>2026-04-06T08:39:31Z</time></trkpt><trkpt lat="45.437149521700604" lon="10.509648646398176"><ele>145.2</ele><time>2026-04-06T08:39:33Z</time></trkpt><trkpt lat="45.43721979360719" lon="10.50953895556052"><ele>145.4</ele><time>2026-04-06T08:39:35Z</time></trkpt><trkpt lat="45.43728592374685" lon="10.50942261602207"><ele>145.6</ele><time>2026-04-06T08:39:37Z</time></trkpt><trkpt lat="45.43734865568491" lon="10.50929192729093"><ele>145.8</ele><time>2026-04-06T08:39:39Z</time></trkpt><trkpt lat="45.43740279030978" lon="10.509166071812954"><ele>146.0</ele><time>2026-04-06T08:39:41Z</time></trkpt><trkpt lat="45.437460799661274" lon="10.509069018949926"><ele>146.0</ele><time>2026-04-06T08:39:43Z</time></trkpt><trkpt lat="45.43751760489667" lon="10.508950447593236"><ele>146.0</ele><time>2026-04-06T08:39:45Z</time></trkpt><trkpt lat="45.43757343550382" lon="10.508847060352767"><ele>146.0</ele><time>2026-04-06T08:39:47Z</time></trkpt><trkpt lat="45.437595544779334" lon="10.508713976919644"><ele>146.0</ele><time>2026-04-06T08:39:49Z</time></trkpt><trkpt lat="45.43756828569783" lon="10.508582117388766"><ele>146.0</ele><time>2026-04-06T08:39:51Z</time></trkpt><trkpt lat="45.43750337611329" lon="10.50847173526891"><ele>147.6</ele><time>2026-04-06T08:39:53Z</time></trkpt><trkpt lat="45.437456582270585" lon="10.508399306735463"><ele>149.2</ele><time>2026-04-06T08:39:54Z</time></trkpt><trkpt lat="45.43740222692262" lon="10.508245880283695"><ele>150.8</ele><time>2026-04-06T08:39:56Z</time></trkpt><trkpt lat="45.43734419684964" lon="10.508094156299085"><ele>152.4</ele><time>2026-04-06T08:39:58Z</time></trkpt><trkpt lat="45.437271520447815" lon="10.50794158529291"><ele>154.0</ele><time>2026-04-06T08:40:00Z</time></trkpt><trkpt lat="45.43724608232656" lon="10.507857889002013"><ele>153.0</ele><time>2026-04-06T08:40:01Z</time></trkpt><trkpt lat="45.4371973734318" lon="10.507697846227199"><ele>152.0</ele><time>2026-04-06T08:40:03Z</time></trkpt><trkpt lat="45.43715580129237" lon="10.507568979427619"><ele>151.0</ele><time>2026-04-06T08:40:05Z</time></trkpt><trkpt lat="45.43713385801623" lon="10.507457503563417"><ele>150.0</ele><time>2026-04-06T08:40:07Z</time></trkpt><trkpt lat="45.43707143338098" lon="10.507373350325155"><ele>149.0</ele><time>2026-04-06T08:40:09Z</time></trkpt><trkpt lat="45.43697974314558" lon="10.50733057637141"><ele>149.0</ele><time>2026-04-06T08:40:11Z</time></trkpt><trkpt lat="45.436892433939164" lon="10.507269748351797"><ele>149.0</ele><time>2026-04-06T08:40:13Z</time></trkpt><trkpt lat="45.43680593141074" lon="10.507189701886105"><ele>149.0</ele><time>2026-04-06T08:40:15Z</time></trkpt><trkpt lat="45.43671020652388" lon="10.507101938728809"><ele>149.0</ele><time>2026-04-06T08:40:17Z</time></trkpt><trkpt lat="45.436595651083465" lon="10.507036913849184"><ele>149.0</ele><time>2026-04-06T08:40:19Z</time></trkpt><trkpt lat="45.43648947305746" lon="10.507047706893983"><ele>149.0</ele><time>2026-04-06T08:40:21Z</time></trkpt><trkpt lat="45.43638705249172" lon="10.507082604475476"><ele>149.0</ele><time>2026-04-06T08:40:23Z</time></trkpt><trkpt lat="45.4362970044383" lon="10.507111089409158"><ele>149.0</ele><time>2026-04-06T08:40:25Z</time></trkpt><trkpt lat="45.43620910872675" lon="10.507100195499431"><ele>149.0</ele><time>2026-04-06T08:40:27Z</time></trkpt><trkpt lat="45.436138158535755" lon="10.50709508422811"><ele>149.0</ele><time>2026-04-06T08:40:29Z</time></trkpt><trkpt lat="45.436053026383604" lon="10.507053552963281"><ele>149.0</ele><time>2026-04-06T08:40:32Z</time></trkpt><trkpt lat="45.43602433719467" lon="10.506933138240436"><ele>150.33333333333331</ele><time>2026-04-06T08:40:35Z</time></trkpt><trkpt lat="45.43606360577388" lon="10.506815276294006"><ele>151.66666666666666</ele><time>2026-04-06T08:40:38Z</time></trkpt><trkpt lat="45.43609742480266" lon="10.50673785030526"><ele>153.0</ele><time>2026-04-06T08:40:40Z</time></trkpt><trkpt lat="45.436126284876615" lon="10.506656408855207"><ele>154.33333333333334</ele><time>2026-04-06T08:40:42Z</time></trkpt><trkpt lat="45.43617451013156" lon="10.506582028315217"><ele>155.66666666666669</ele><time>2026-04-06T08:40:44Z</time></trkpt><trkpt lat="45.43612984901452" lon="10.506463156707012"><ele>157.0</ele><time>2026-04-06T08:40:47Z</time></trkpt><trkpt lat="45.43605008321415" lon="10.506451994613075"><ele>157.0</ele><time>2026-04-06T08:40:49Z</time></trkpt><trkpt lat="45.43597044065134" lon="10.50644458248706"><ele>157.0</ele><time>2026-04-06T08:40:51Z</time></trkpt><trkpt lat="45.43589322658247" lon="10.506423610254842"><ele>157.0</ele><time>2026-04-06T08:40:53Z</time></trkpt><trkpt lat="45.435813185421594" lon="10.506385901608956"><ele>157.0</ele><time>2026-04-06T08:40:56Z</time></trkpt><trkpt lat="45.43574024963921" lon="10.506347023653362"><ele>157.0</ele><time>2026-04-06T08:41:00Z</time></trkpt><trkpt lat="45.435651527401674" lon="10.506325818429668"><ele>157.0</ele><time>2026-04-06T08:41:03Z</time></trkpt><trkpt lat="45.435592179355446" lon="10.506287375962852"><ele>157.16666666666669</ele><time>2026-04-06T08:41:05Z</time></trkpt><trkpt lat="45.4354988458401" lon="10.506235790982759"><ele>157.33333333333334</ele><time>2026-04-06T08:41:08Z</time></trkpt><trkpt lat="45.43543870409095" lon="10.506207444819726"><ele>157.5</ele><time>2026-04-06T08:41:10Z</time></trkpt><trkpt lat="45.435353665478424" lon="10.506180563374228"><ele>157.66666666666666</ele><time>2026-04-06T08:41:13Z</time></trkpt><trkpt lat="45.43528605376624" lon="10.506164781334395"><ele>157.83333333333331</ele><time>2026-04-06T08:41:15Z</time></trkpt><trkpt lat="45.435216184591425" lon="10.506154433308708"><ele>158.0</ele><time>2026-04-06T08:41:17Z</time></trkpt><trkpt lat="45.43514216310494" lon="10.50612412354361"><ele>158.0</ele><time>2026-04-06T08:41:19Z</time></trkpt><trkpt lat="45.4350727350478" lon="10.50610865596022"><ele>158.0</ele><time>2026-04-06T08:41:21Z</time></trkpt><trkpt lat="45.43499437831511" lon="10.506110766234357"><ele>158.0</ele><time>2026-04-06T08:41:23Z</time></trkpt><trkpt lat="45.43491835131844" lon="10.506079768693775"><ele>158.0</ele><time>2026-04-06T08:41:25Z</time></trkpt><trkpt lat="45.43483505337374" lon="10.506078350580934"><ele>158.0</ele><time>2026-04-06T08:41:27Z</time></trkpt><trkpt lat="45.43476890345188" lon="10.505994392236435"><ele>158.0</ele><time>2026-04-06T08:41:29Z</time></trkpt><trkpt lat="45.43478597821643" lon="10.50586388140261"><ele>158.0</ele><time>2026-04-06T08:41:31Z</time></trkpt><trkpt lat="45.434832935911146" lon="10.50575760885802"><ele>158.0</ele><time>2026-04-06T08:41:33Z</time></trkpt><trkpt lat="45.434866976247214" lon="10.505646499353523"><ele>158.0</ele><time>2026-04-06T08:41:35Z</time></trkpt><trkpt lat="45.43490337646312" lon="10.505551785931946"><ele>158.0</ele><time>2026-04-06T08:41:37Z</time></trkpt><trkpt lat="45.434942346125005" lon="10.505455185087882"><ele>158.0</ele><time>2026-04-06T08:41:39Z</time></trkpt><trkpt lat="45.434961627092065" lon="10.50535206386789"><ele>158.0</ele><time>2026-04-06T08:41:41Z</time></trkpt><trkpt lat="45.434988003857725" lon="10.505251788532725"><ele>158.20000000000002</ele><time>2026-04-06T08:41:43Z</time></trkpt><trkpt lat="45.43500954255007" lon="10.50515176228906"><ele>158.4</ele><time>2026-04-06T08:41:45Z</time></trkpt><trkpt lat="45.4350166515432" lon="10.505025016383694"><ele>158.60000000000002</ele><time>2026-04-06T08:41:47Z</time></trkpt><trkpt lat="45.434999171044005" lon="10.504892425060973"><ele>158.8</ele><time>2026-04-06T08:41:49Z</time></trkpt><trkpt lat="45.43499320312382" lon="10.504750727357054"><ele>159.0</ele><time>2026-04-06T08:41:51Z</time></trkpt><trkpt lat="45.43499349008597" lon="10.504618618848502"><ele>158.66666666666666</ele><time>2026-04-06T08:41:53Z</time></trkpt><trkpt lat="45.43493952985875" lon="10.50453160539238"><ele>158.33333333333334</ele><time>2026-04-06T08:41:57Z</time></trkpt><trkpt lat="45.43484276125847" lon="10.504535646999908"><ele>158.0</ele><time>2026-04-06T08:41:59Z</time></trkpt><trkpt lat="45.43475675451682" lon="10.504537255578034"><ele>157.66666666666669</ele><time>2026-04-06T08:42:01Z</time></trkpt><trkpt lat="45.434671509132166" lon="10.504521281580281"><ele>157.33333333333334</ele><time>2026-04-06T08:42:03Z</time></trkpt><trkpt lat="45.434586196899374" lon="10.50448962022125"><ele>157.0</ele><time>2026-04-06T08:42:05Z</time></trkpt><trkpt lat="45.43450109479525" lon="10.504440855643862"><ele>156.6</ele><time>2026-04-06T08:42:07Z</time></trkpt><trkpt lat="45.434412630726726" lon="10.50438287329793"><ele>156.2</ele><time>2026-04-06T08:42:09Z</time></trkpt><trkpt lat="45.43431959691848" lon="10.50432438313054"><ele>155.8</ele><time>2026-04-06T08:42:11Z</time></trkpt><trkpt lat="45.434232336262156" lon="10.504269824384377"><ele>155.4</ele><time>2026-04-06T08:42:13Z</time></trkpt><trkpt lat="45.43414725550263" lon="10.504216539891136"><ele>155.0</ele><time>2026-04-06T08:42:15Z</time></trkpt><trkpt lat="45.43404853077328" lon="10.504203041274058"><ele>155.0</ele><time>2026-04-06T08:42:17Z</time></trkpt><trkpt lat="45.43394448290475" lon="10.504187025672067"><ele>155.0</ele><time>2026-04-06T08:42:19Z</time></trkpt><trkpt lat="45.433836648447205" lon="10.504195328318902"><ele>155.0</ele><time>2026-04-06T08:42:21Z</time></trkpt><trkpt lat="45.433726607876295" lon="10.504218319130961"><ele>155.0</ele><time>2026-04-06T08:42:23Z</time></trkpt><trkpt lat="45.433620551938404" lon="10.50421519304762"><ele>155.0</ele><time>2026-04-06T08:42:25Z</time></trkpt><trkpt lat="45.43351074754715" lon="10.50420992073139"><ele>154.75</ele><time>2026-04-06T08:42:27Z</time></trkpt><trkpt lat="45.43339444676425" lon="10.504200288144267"><ele>154.5</ele><time>2026-04-06T08:42:29Z</time></trkpt><trkpt lat="45.433291168229296" lon="10.504131909303345"><ele>154.25</ele><time>2026-04-06T08:42:31Z</time></trkpt><trkpt lat="45.433182862569026" lon="10.504086009721119"><ele>154.0</ele><time>2026-04-06T08:42:33Z</time></trkpt><trkpt lat="45.4330911113226" lon="10.50399698568152"><ele>154.0</ele><time>2026-04-06T08:42:35Z</time></trkpt><trkpt lat="45.432998703593285" lon="10.503897906991394"><ele>154.0</ele><time>2026-04-06T08:42:37Z</time></trkpt><trkpt lat="45.43291400513982" lon="10.503792429921521"><ele>154.0</ele><time>2026-04-06T08:42:39Z</time></trkpt><trkpt lat="45.43282246958706" lon="10.503698370129005"><ele>154.0</ele><time>2026-04-06T08:42:41Z</time></trkpt><trkpt lat="45.432728555515496" lon="10.503601179971042"><ele>153.25</ele><time>2026-04-06T08:42:43Z</time></trkpt><trkpt lat="45.43263251277298" lon="10.503503355723169"><ele>152.5</ele><time>2026-04-06T08:42:45Z</time></trkpt><trkpt lat="45.432536236690154" lon="10.503405998740016"><ele>151.75</ele><time>2026-04-06T08:42:47Z</time></trkpt><trkpt lat="45.432428478610795" lon="10.503322976132722"><ele>151.0</ele><time>2026-04-06T08:42:49Z</time></trkpt><trkpt lat="45.43233113096878" lon="10.50322468696805"><ele>151.0</ele><time>2026-04-06T08:42:51Z</time></trkpt><trkpt lat="45.43223606018442" lon="10.50312954765338"><ele>151.0</ele><time>2026-04-06T08:42:53Z</time></trkpt><trkpt lat="45.43214247271843" lon="10.503032148138923"><ele>151.0</ele><time>2026-04-06T08:42:55Z</time></trkpt><trkpt lat="45.43204442496689" lon="10.50294228743859"><ele>151.0</ele><time>2026-04-06T08:42:57Z</time></trkpt><trkpt lat="45.43195864313318" lon="10.502828037532863"><ele>150.75</ele><time>2026-04-06T08:42:59Z</time></trkpt><trkpt lat="45.43186259401804" lon="10.50273196009605"><ele>150.5</ele><time>2026-04-06T08:43:01Z</time></trkpt><trkpt lat="45.43175929280515" lon="10.502644206736374"><ele>150.25</ele><time>2026-04-06T08:43:03Z</time></trkpt><trkpt lat="45.43165439170435" lon="10.502553220658028"><ele>150.0</ele><time>2026-04-06T08:43:05Z</time></trkpt><trkpt lat="45.431563771425594" lon="10.50243866041808"><ele>150.0</ele><time>2026-04-06T08:43:07Z</time></trkpt><trkpt lat="45.431459997612045" lon="10.502351114260339"><ele>150.0</ele><time>2026-04-06T08:43:09Z</time></trkpt><trkpt lat="45.431355533738305" lon="10.50225350311532"><ele>150.0</ele><time>2026-04-06T08:43:11Z</time></trkpt><trkpt lat="45.43125970359754" lon="10.502152547981746"><ele>150.0</ele><time>2026-04-06T08:43:13Z</time></trkpt><trkpt lat="45.431210775637716" lon="10.501998109279564"><ele>149.5</ele><time>2026-04-06T08:43:15Z</time></trkpt><trkpt lat="45.431248016471514" lon="10.501833152911987"><ele>149.0</ele><time>2026-04-06T08:43:17Z</time></trkpt><trkpt lat="45.43127934315176" lon="10.501669302772076"><ele>148.5</ele><time>2026-04-06T08:43:19Z</time></trkpt><trkpt lat="45.431325353485576" lon="10.501511766150456"><ele>148.0</ele><time>2026-04-06T08:43:21Z</time></trkpt><trkpt lat="45.431353304068736" lon="10.501348821612138"><ele>148.0</ele><time>2026-04-06T08:43:23Z</time></trkpt><trkpt lat="45.43138131595381" lon="10.501182053165712"><ele>148.0</ele><time>2026-04-06T08:43:25Z</time></trkpt><trkpt lat="45.43140959583806" lon="10.501013689147316"><ele>148.0</ele><time>2026-04-06T08:43:27Z</time></trkpt><trkpt lat="45.43143806556307" lon="10.500846351515875"><ele>148.0</ele><time>2026-04-06T08:43:29Z</time></trkpt><trkpt lat="45.431445723033626" lon="10.500755830768693"><ele>148.0</ele><time>2026-04-06T08:43:30Z</time></trkpt><trkpt lat="45.43148676261182" lon="10.500592267449182"><ele>148.0</ele><time>2026-04-06T08:43:32Z</time></trkpt><trkpt lat="45.43150192674774" lon="10.500416801571102"><ele>148.0</ele><time>2026-04-06T08:43:34Z</time></trkpt><trkpt lat="45.43152875060148" lon="10.500244311826961"><ele>148.0</ele><time>2026-04-06T08:43:36Z</time></trkpt><trkpt lat="45.431551887768244" lon="10.500075687850789"><ele>148.0</ele><time>2026-04-06T08:43:38Z</time></trkpt><trkpt lat="45.431603822566174" lon="10.49991646071676"><ele>148.4</ele><time>2026-04-06T08:43:40Z</time></trkpt><trkpt lat="45.431636121898855" lon="10.49974413894487"><ele>148.8</ele><time>2026-04-06T08:43:42Z</time></trkpt><trkpt lat="45.43165191852374" lon="10.499656611045001"><ele>149.2</ele><time>2026-04-06T08:43:43Z</time></trkpt><trkpt lat="45.43166615398904" lon="10.49956834715169"><ele>149.6</ele><time>2026-04-06T08:43:44Z</time></trkpt><trkpt lat="45.431678254062504" lon="10.499392585391151"><ele>150.0</ele><time>2026-04-06T08:43:46Z</time></trkpt><trkpt lat="45.431709431046905" lon="10.499222635473716"><ele>150.0</ele><time>2026-04-06T08:43:48Z</time></trkpt><trkpt lat="45.43172972785668" lon="10.499051052156325"><ele>150.0</ele><time>2026-04-06T08:43:50Z</time></trkpt><trkpt lat="45.43174367026363" lon="10.498878353142644"><ele>150.0</ele><time>2026-04-06T08:43:52Z</time></trkpt><trkpt lat="45.43175903162646" lon="10.498712879217598"><ele>150.0</ele><time>2026-04-06T08:43:54Z</time></trkpt><trkpt lat="45.43176585268608" lon="10.498547891507991"><ele>150.0</ele><time>2026-04-06T08:43:56Z</time></trkpt><trkpt lat="45.43175937082829" lon="10.498385684535922"><ele>150.0</ele><time>2026-04-06T08:43:58Z</time></trkpt><trkpt lat="45.431711536077025" lon="10.498222219472915"><ele>150.0</ele><time>2026-04-06T08:44:00Z</time></trkpt><trkpt lat="45.431665295326404" lon="10.498057562221781"><ele>150.0</ele><time>2026-04-06T08:44:02Z</time></trkpt><trkpt lat="45.43160845186402" lon="10.497903560910453"><ele>151.2</ele><time>2026-04-06T08:44:04Z</time></trkpt><trkpt lat="45.431559844185855" lon="10.497753519938767"><ele>152.4</ele><time>2026-04-06T08:44:06Z</time></trkpt><trkpt lat="45.43151515383452" lon="10.497606506686864"><ele>153.6</ele><time>2026-04-06T08:44:08Z</time></trkpt><trkpt lat="45.43145909418942" lon="10.497482477319023"><ele>154.8</ele><time>2026-04-06T08:44:10Z</time></trkpt><trkpt lat="45.43141028029597" lon="10.49736455858447"><ele>156.0</ele><time>2026-04-06T08:44:12Z</time></trkpt><trkpt lat="45.43140976246231" lon="10.497259341995846"><ele>156.0</ele><time>2026-04-06T08:44:14Z</time></trkpt><trkpt lat="45.43150186354059" lon="10.497333591222418"><ele>156.0</ele><time>2026-04-06T08:44:17Z</time></trkpt><trkpt lat="45.4315746468787" lon="10.497388613211575"><ele>156.0</ele><time>2026-04-06T08:44:19Z</time></trkpt><trkpt lat="45.43164883710534" lon="10.497445115406295"><ele>156.0</ele><time>2026-04-06T08:44:21Z</time></trkpt><trkpt lat="45.431724183680174" lon="10.49751292340509"><ele>156.0</ele><time>2026-04-06T08:44:23Z</time></trkpt><trkpt lat="45.43181562973472" lon="10.49756887340764"><ele>156.0</ele><time>2026-04-06T08:44:25Z</time></trkpt><trkpt lat="45.431901651190046" lon="10.497630265453703"><ele>156.0</ele><time>2026-04-06T08:44:27Z</time></trkpt><trkpt lat="45.43200031863309" lon="10.497687058909422"><ele>156.0</ele><time>2026-04-06T08:44:29Z</time></trkpt><trkpt lat="45.43208620207002" lon="10.497779777448885"><ele>156.0</ele><time>2026-04-06T08:44:31Z</time></trkpt><trkpt lat="45.43216449248066" lon="10.497849924705859"><ele>156.0</ele><time>2026-04-06T08:44:33Z</time></trkpt><trkpt lat="45.432244245194106" lon="10.497912994093129"><ele>155.66666666666666</ele><time>2026-04-06T08:44:35Z</time></trkpt><trkpt lat="45.43231466179974" lon="10.49800031886944"><ele>155.33333333333334</ele><time>2026-04-06T08:44:37Z</time></trkpt><trkpt lat="45.432379455738655" lon="10.498101692952229"><ele>155.0</ele><time>2026-04-06T08:44:39Z</time></trkpt><trkpt lat="45.43243963257695" lon="10.498191790929475"><ele>154.66666666666669</ele><time>2026-04-06T08:44:41Z</time></trkpt><trkpt lat="45.432479224705425" lon="10.498281883019164"><ele>154.33333333333334</ele><time>2026-04-06T08:44:43Z</time></trkpt><trkpt lat="45.43252758657676" lon="10.498370547429769"><ele>154.0</ele><time>2026-04-06T08:44:45Z</time></trkpt><trkpt lat="45.43265481544567" lon="10.4984054327606"><ele>154.0</ele><time>2026-04-06T08:44:47Z</time></trkpt><trkpt lat="45.43274457236308" lon="10.498466548189104"><ele>154.0</ele><time>2026-04-06T08:44:49Z</time></trkpt><trkpt lat="45.432835014421464" lon="10.498522792794743"><ele>154.0</ele><time>2026-04-06T08:44:51Z</time></trkpt><trkpt lat="45.432918171003344" lon="10.498567437563857"><ele>154.0</ele><time>2026-04-06T08:44:53Z</time></trkpt><trkpt lat="45.43301799239266" lon="10.498611221066437"><ele>154.0</ele><time>2026-04-06T08:44:55Z</time></trkpt><trkpt lat="45.433131788298645" lon="10.498621366158769"><ele>153.66666666666669</ele><time>2026-04-06T08:44:57Z</time></trkpt><trkpt lat="45.43322244478787" lon="10.498656595043975"><ele>153.33333333333334</ele><time>2026-04-06T08:44:59Z</time></trkpt><trkpt lat="45.43330824084245" lon="10.49869357819269"><ele>153.0</ele><time>2026-04-06T08:45:01Z</time></trkpt><trkpt lat="45.4333796077636" lon="10.498730041384416"><ele>152.66666666666666</ele><time>2026-04-06T08:45:03Z</time></trkpt><trkpt lat="45.43344472104312" lon="10.498766833052224"><ele>152.33333333333331</ele><time>2026-04-06T08:45:06Z</time></trkpt><trkpt lat="45.43350639035423" lon="10.49879705324639"><ele>152.0</ele><time>2026-04-06T08:45:08Z</time></trkpt><trkpt lat="45.433585948731576" lon="10.498832649816386"><ele>152.0</ele><time>2026-04-06T08:45:11Z</time></trkpt><trkpt lat="45.43365432551145" lon="10.498867261776155"><ele>152.0</ele><time>2026-04-06T08:45:14Z</time></trkpt><trkpt lat="45.43372190382603" lon="10.498913929010776"><ele>152.0</ele><time>2026-04-06T08:45:17Z</time></trkpt><trkpt lat="45.43378044016232" lon="10.498978622640363"><ele>152.0</ele><time>2026-04-06T08:45:20Z</time></trkpt><trkpt lat="45.4338486158397" lon="10.499040561699825"><ele>152.0</ele><time>2026-04-06T08:45:23Z</time></trkpt><trkpt lat="45.43390620012479" lon="10.499152177828247"><ele>152.0</ele><time>2026-04-06T08:45:26Z</time></trkpt><trkpt lat="45.433936548238634" lon="10.499233586948854"><ele>152.57142857142856</ele><time>2026-04-06T08:45:28Z</time></trkpt><trkpt lat="45.4339828574967" lon="10.49932152558811"><ele>153.14285714285717</ele><time>2026-04-06T08:45:30Z</time></trkpt><trkpt lat="45.43402563720192" lon="10.499404977929373"><ele>153.71428571428572</ele><time>2026-04-06T08:45:32Z</time></trkpt><trkpt lat="45.43407100734398" lon="10.49947781844861"><ele>154.28571428571428</ele><time>2026-04-06T08:45:34Z</time></trkpt><trkpt lat="45.43411424423901" lon="10.499565469100567"><ele>154.85714285714283</ele><time>2026-04-06T08:45:36Z</time></trkpt><trkpt lat="45.43415466885414" lon="10.499637894238907"><ele>155.42857142857144</ele><time>2026-04-06T08:45:38Z</time></trkpt><trkpt lat="45.43420405114048" lon="10.499712516064468"><ele>156.0</ele><time>2026-04-06T08:45:40Z</time></trkpt><trkpt lat="45.43426055648233" lon="10.499755474740565"><ele>156.0</ele><time>2026-04-06T08:45:42Z</time></trkpt><trkpt lat="45.43433533805478" lon="10.499773260067569"><ele>156.0</ele><time>2026-04-06T08:45:44Z</time></trkpt><trkpt lat="45.43439894106659" lon="10.499802902720749"><ele>156.0</ele><time>2026-04-06T08:45:46Z</time></trkpt><trkpt lat="45.43448379294066" lon="10.499847539332945"><ele>156.0</ele><time>2026-04-06T08:45:49Z</time></trkpt><trkpt lat="45.434547178898136" lon="10.499909551077318"><ele>156.0</ele><time>2026-04-06T08:45:51Z</time></trkpt><trkpt lat="45.434618231250084" lon="10.499928787002109"><ele>156.0</ele><time>2026-04-06T08:45:53Z</time></trkpt><trkpt lat="45.43468712181979" lon="10.499947594117375"><ele>157.66666666666666</ele><time>2026-04-06T08:45:55Z</time></trkpt><trkpt lat="45.43475704424187" lon="10.499960352129824"><ele>159.33333333333334</ele><time>2026-04-06T08:45:58Z</time></trkpt><trkpt lat="45.43484400103532" lon="10.499987373927551"><ele>161.0</ele><time>2026-04-06T08:46:00Z</time></trkpt><trkpt lat="45.434907595388864" lon="10.499990242425042"><ele>162.66666666666669</ele><time>2026-04-06T08:46:02Z</time></trkpt><trkpt lat="45.434982559900845" lon="10.499994007067322"><ele>164.33333333333334</ele><time>2026-04-06T08:46:04Z</time></trkpt><trkpt lat="45.43506900712213" lon="10.500011625687037"><ele>166.0</ele><time>2026-04-06T08:46:07Z</time></trkpt><trkpt lat="45.435161114951825" lon="10.50002797919134"><ele>166.0</ele><time>2026-04-06T08:46:10Z</time></trkpt><trkpt lat="45.43523675654991" lon="10.500035619078513"><ele>166.0</ele><time>2026-04-06T08:46:12Z</time></trkpt><trkpt lat="45.435328160448655" lon="10.499999895624532"><ele>166.0</ele><time>2026-04-06T08:46:15Z</time></trkpt><trkpt lat="45.43540728128218" lon="10.499965274643284"><ele>166.0</ele><time>2026-04-06T08:46:19Z</time></trkpt><trkpt lat="45.43549015266116" lon="10.499993649265896"><ele>166.0</ele><time>2026-04-06T08:46:22Z</time></trkpt><trkpt lat="45.435559487775635" lon="10.500000448903752"><ele>166.0</ele><time>2026-04-06T08:46:41Z</time></trkpt><trkpt lat="45.43563425727274" lon="10.50003828599217"><ele>166.42857142857142</ele><time>2026-04-06T08:46:46Z</time></trkpt><trkpt lat="45.435713289086216" lon="10.500060285338796"><ele>166.85714285714286</ele><time>2026-04-06T08:46:50Z</time></trkpt><trkpt lat="45.43577851545501" lon="10.500077890244985"><ele>167.28571428571428</ele><time>2026-04-06T08:46:52Z</time></trkpt><trkpt lat="45.43585183794933" lon="10.50010610835392"><ele>167.71428571428572</ele><time>2026-04-06T08:46:55Z</time></trkpt><trkpt lat="45.435915034796935" lon="10.500134581492647"><ele>168.14285714285714</ele><time>2026-04-06T08:46:57Z</time></trkpt><trkpt lat="45.4359752181971" lon="10.500166684215259"><ele>168.57142857142858</ele><time>2026-04-06T08:46:59Z</time></trkpt><trkpt lat="45.436054866459756" lon="10.500212342327336"><ele>169.0</ele><time>2026-04-06T08:47:01Z</time></trkpt><trkpt lat="45.436120333856245" lon="10.500256521773855"><ele>169.0</ele><time>2026-04-06T08:47:03Z</time></trkpt><trkpt lat="45.43617583125345" lon="10.500303530168395"><ele>169.0</ele><time>2026-04-06T08:47:05Z</time></trkpt><trkpt lat="45.436239953381794" lon="10.500350681652836"><ele>169.0</ele><time>2026-04-06T08:47:07Z</time></trkpt><trkpt lat="45.436294826400086" lon="10.500396240022575"><ele>169.0</ele><time>2026-04-06T08:47:09Z</time></trkpt><trkpt lat="45.436354921759936" lon="10.50043687141656"><ele>169.0</ele><time>2026-04-06T08:47:11Z</time></trkpt><trkpt lat="45.436413897211914" lon="10.500475970542356"><ele>169.0</ele><time>2026-04-06T08:47:13Z</time></trkpt><trkpt lat="45.436483668314565" lon="10.500520385287267"><ele>169.0</ele><time>2026-04-06T08:47:15Z</time></trkpt><trkpt lat="45.436547264062895" lon="10.500559062507756"><ele>168.42857142857144</ele><time>2026-04-06T08:47:17Z</time></trkpt><trkpt lat="45.436612368509365" lon="10.50058176959842"><ele>167.85714285714286</ele><time>2026-04-06T08:47:19Z</time></trkpt><trkpt lat="45.436684847640606" lon="10.500619628242559"><ele>167.28571428571428</ele><time>2026-04-06T08:47:21Z</time></trkpt><trkpt lat="45.436751380299405" lon="10.5006357582037"><ele>166.71428571428572</ele><time>2026-04-06T08:47:23Z</time></trkpt><trkpt lat="45.43682062218141" lon="10.50065384294672"><ele>166.14285714285714</ele><time>2026-04-06T08:47:25Z</time></trkpt><trkpt lat="45.4368931094581" lon="10.500664782603394"><ele>165.57142857142858</ele><time>2026-04-06T08:47:27Z</time></trkpt><trkpt lat="45.43696442577153" lon="10.500680573022592"><ele>165.0</ele><time>2026-04-06T08:47:29Z</time></trkpt><trkpt lat="45.43703796747321" lon="10.500682058009222"><ele>165.0</ele><time>2026-04-06T08:47:31Z</time></trkpt><trkpt lat="45.43712810488305" lon="10.500691224106292"><ele>165.0</ele><time>2026-04-06T08:47:34Z</time></trkpt><trkpt lat="45.43721208720331" lon="10.500624323342619"><ele>165.0</ele><time>2026-04-06T08:47:37Z</time></trkpt><trkpt lat="45.43725009276898" lon="10.500544633496318"><ele>165.0</ele><time>2026-04-06T08:47:41Z</time></trkpt><trkpt lat="45.43732390269027" lon="10.50049693771139"><ele>165.0</ele><time>2026-04-06T08:47:45Z</time></trkpt><trkpt lat="45.43738788676042" lon="10.50046527887861"><ele>165.0</ele><time>2026-04-06T08:47:47Z</time></trkpt><trkpt lat="45.43745156390609" lon="10.500425437495032"><ele>167.57142857142858</ele><time>2026-04-06T08:47:49Z</time></trkpt><trkpt lat="45.4375111845368" lon="10.500384950702522"><ele>170.14285714285714</ele><time>2026-04-06T08:47:51Z</time></trkpt><trkpt lat="45.43756891146912" lon="10.500345154108512"><ele>172.71428571428572</ele><time>2026-04-06T08:47:53Z</time></trkpt><trkpt lat="45.43763216982081" lon="10.500316305978725"><ele>175.28571428571428</ele><time>2026-04-06T08:47:55Z</time></trkpt><trkpt lat="45.437719037154395" lon="10.500270232596229"><ele>177.85714285714286</ele><time>2026-04-06T08:47:58Z</time></trkpt><trkpt lat="45.43777508860976" lon="10.50022478774068"><ele>180.42857142857144</ele><time>2026-04-06T08:48:00Z</time></trkpt><trkpt lat="45.43785924694231" lon="10.500165390234358"><ele>183.0</ele><time>2026-04-06T08:48:03Z</time></trkpt><trkpt lat="45.437873642365716" lon="10.500004186536263"><ele>183.0</ele><time>2026-04-06T08:48:04Z</time></trkpt><trkpt lat="45.437941357906546" lon="10.499994133742364"><ele>183.0</ele><time>2026-04-06T08:48:07Z</time></trkpt><trkpt lat="45.43787600762666" lon="10.500003804837739"><ele>183.0</ele><time>2026-04-06T08:48:13Z</time></trkpt><trkpt lat="45.437782819537105" lon="10.500016341642212"><ele>183.0</ele><time>2026-04-06T08:48:16Z</time></trkpt><trkpt lat="45.4377160040433" lon="10.500024953232046"><ele>183.0</ele><time>2026-04-06T08:48:18Z</time></trkpt><trkpt lat="45.437651728927634" lon="10.500032845457364"><ele>183.0</ele><time>2026-04-06T08:48:20Z</time></trkpt><trkpt lat="45.43763957441468" lon="10.499831349442223"><ele>183.0</ele><time>2026-04-06T08:48:22Z</time></trkpt><trkpt lat="45.4376668268706" lon="10.499723333728612"><ele>183.0</ele><time>2026-04-06T08:48:24Z</time></trkpt><trkpt lat="45.43768180583073" lon="10.49960510710941"><ele>183.0</ele><time>2026-04-06T08:48:26Z</time></trkpt><trkpt lat="45.4377059184245" lon="10.499483454782816"><ele>183.0</ele><time>2026-04-06T08:48:28Z</time></trkpt><trkpt lat="45.43773846086767" lon="10.49938089082926"><ele>183.0</ele><time>2026-04-06T08:48:30Z</time></trkpt><trkpt lat="45.437779267425796" lon="10.499249375441542"><ele>183.0</ele><time>2026-04-06T08:48:33Z</time></trkpt><trkpt lat="45.4378057137608" lon="10.499163573648264"><ele>184.42857142857144</ele><time>2026-04-06T08:48:35Z</time></trkpt><trkpt lat="45.4378271920342" lon="10.499063403847586"><ele>185.85714285714286</ele><time>2026-04-06T08:48:37Z</time></trkpt><trkpt lat="45.43785618464237" lon="10.498970762477745"><ele>187.28571428571428</ele><time>2026-04-06T08:48:39Z</time></trkpt><trkpt lat="45.43788426116388" lon="10.498880347983931"><ele>188.71428571428572</ele><time>2026-04-06T08:48:41Z</time></trkpt><trkpt lat="45.437897945792315" lon="10.498776908255643"><ele>190.14285714285714</ele><time>2026-04-06T08:48:43Z</time></trkpt><trkpt lat="45.437930066147054" lon="10.498681121684562"><ele>191.57142857142858</ele><time>2026-04-06T08:48:45Z</time></trkpt><trkpt lat="45.4379574477537" lon="10.498590442854514"><ele>193.0</ele><time>2026-04-06T08:48:47Z</time></trkpt><trkpt lat="45.4379864963297" lon="10.498500683620547"><ele>193.16666666666666</ele><time>2026-04-06T08:48:49Z</time></trkpt><trkpt lat="45.43802958543806" lon="10.498405819238945"><ele>193.33333333333331</ele><time>2026-04-06T08:48:51Z</time></trkpt><trkpt lat="45.4380379599898" lon="10.498294514541467"><ele>193.5</ele><time>2026-04-06T08:48:53Z</time></trkpt><trkpt lat="45.438022815065864" lon="10.498163474954984"><ele>193.66666666666669</ele><time>2026-04-06T08:48:56Z</time></trkpt><trkpt lat="45.43797963514964" lon="10.498081724039046"><ele>193.83333333333334</ele><time>2026-04-06T08:48:59Z</time></trkpt><trkpt lat="45.43791347968081" lon="10.498032421389599"><ele>194.0</ele><time>2026-04-06T08:49:02Z</time></trkpt><trkpt lat="45.437861373559656" lon="10.497967090377875"><ele>198.33333333333334</ele><time>2026-04-06T08:49:05Z</time></trkpt><trkpt lat="45.43781725947724" lon="10.497866410438236"><ele>202.66666666666669</ele><time>2026-04-06T08:49:09Z</time></trkpt><trkpt lat="45.4378306345956" lon="10.497755536943915"><ele>207.0</ele><time>2026-04-06T08:49:12Z</time></trkpt><trkpt lat="45.43784738972006" lon="10.497634270041935"><ele>211.33333333333331</ele><time>2026-04-06T08:49:15Z</time></trkpt><trkpt lat="45.43785122444671" lon="10.49754391098731"><ele>215.66666666666666</ele><time>2026-04-06T08:49:17Z</time></trkpt><trkpt lat="45.437856014083245" lon="10.497447134252761"><ele>220.0</ele><time>2026-04-06T08:49:19Z</time></trkpt><trkpt lat="45.43785339386257" lon="10.497346606839224"><ele>220.0</ele><time>2026-04-06T08:49:21Z</time></trkpt><trkpt lat="45.43784748891082" lon="10.497250777161709"><ele>220.0</ele><time>2026-04-06T08:49:23Z</time></trkpt><trkpt lat="45.437834994181244" lon="10.497155412861035"><ele>220.0</ele><time>2026-04-06T08:49:25Z</time></trkpt><trkpt lat="45.437794474880604" lon="10.497032119975673"><ele>220.0</ele><time>2026-04-06T08:49:28Z</time></trkpt><trkpt lat="45.43777942421501" lon="10.496933886287662"><ele>220.0</ele><time>2026-04-06T08:49:30Z</time></trkpt><trkpt lat="45.43785954272471" lon="10.496748977210085"><ele>220.14285714285714</ele><time>2026-04-06T08:49:33Z</time></trkpt><trkpt lat="45.43782570672254" lon="10.496659677548047"><ele>220.28571428571428</ele><time>2026-04-06T08:49:37Z</time></trkpt><trkpt lat="45.43778239683155" lon="10.496589423659337"><ele>220.42857142857144</ele><time>2026-04-06T08:49:39Z</time></trkpt><trkpt lat="45.43777051059486" lon="10.49650037360185"><ele>220.57142857142856</ele><time>2026-04-06T08:49:41Z</time></trkpt><trkpt lat="45.437749931075025" lon="10.496414765060019"><ele>220.71428571428572</ele><time>2026-04-06T08:49:43Z</time></trkpt><trkpt lat="45.43772322691465" lon="10.496319277889265"><ele>220.85714285714286</ele><time>2026-04-06T08:49:45Z</time></trkpt><trkpt lat="45.437687714742204" lon="10.4962263974985"><ele>221.0</ele><time>2026-04-06T08:49:47Z</time></trkpt><trkpt lat="45.437692960966544" lon="10.496126191208463"><ele>221.00000000000003</ele><time>2026-04-06T08:49:49Z</time></trkpt><trkpt lat="45.43769026876776" lon="10.496022775661919"><ele>221.0</ele><time>2026-04-06T08:49:51Z</time></trkpt><trkpt lat="45.43770224829521" lon="10.495923809157206"><ele>221.0</ele><time>2026-04-06T08:49:53Z</time></trkpt><trkpt lat="45.437731640346236" lon="10.495817197569016"><ele>221.0</ele><time>2026-04-06T08:49:55Z</time></trkpt><trkpt lat="45.4377569727902" lon="10.495708553444501"><ele>221.00000000000003</ele><time>2026-04-06T08:49:57Z</time></trkpt><trkpt lat="45.43777416600889" lon="10.495608266294791"><ele>221.0</ele><time>2026-04-06T08:49:59Z</time></trkpt><trkpt lat="45.43777053386447" lon="10.495465132163286"><ele>221.00000000000003</ele><time>2026-04-06T08:50:02Z</time></trkpt><trkpt lat="45.437760744849115" lon="10.495373069372457"><ele>221.0</ele><time>2026-04-06T08:50:04Z</time></trkpt><trkpt lat="45.43771691008836" lon="10.49528614593761"><ele>221.0</ele><time>2026-04-06T08:50:09Z</time></trkpt><trkpt lat="45.43763757550371" lon="10.495305890652057"><ele>221.0</ele><time>2026-04-06T08:50:14Z</time></trkpt><trkpt lat="45.43755457900883" lon="10.495310656381026"><ele>221.0</ele><time>2026-04-06T08:50:17Z</time></trkpt><trkpt lat="45.437497285904065" lon="10.49534890399093"><ele>221.00000000000003</ele><time>2026-04-06T08:50:19Z</time></trkpt><trkpt lat="45.437434464092505" lon="10.49540391450215"><ele>221.0</ele><time>2026-04-06T08:50:21Z</time></trkpt><trkpt lat="45.43736756387427" lon="10.495450052458597"><ele>221.00000000000003</ele><time>2026-04-06T08:50:23.001Z</time></trkpt><trkpt lat="45.43730282086723" lon="10.49549270702547"><ele>221.0</ele><time>2026-04-06T08:50:25.001Z</time></trkpt><trkpt lat="45.4372311829887" lon="10.49552801213658"><ele>221.0</ele><time>2026-04-06T08:50:27.001Z</time></trkpt><trkpt lat="45.43716208219344" lon="10.49555501264673"><ele>221.0</ele><time>2026-04-06T08:50:29.001Z</time></trkpt><trkpt lat="45.437085010685124" lon="10.495586801604196"><ele>221.00000000000003</ele><time>2026-04-06T08:50:32.001Z</time></trkpt><trkpt lat="45.43701126634108" lon="10.495652410151575"><ele>221.0</ele><time>2026-04-06T08:50:36Z</time></trkpt><trkpt lat="45.436925842571" lon="10.495661448363297"><ele>221.50000000000003</ele><time>2026-04-06T08:50:39Z</time></trkpt><trkpt lat="45.436873866507185" lon="10.495597461229663"><ele>222.0</ele><time>2026-04-06T08:50:41Z</time></trkpt><trkpt lat="45.436802637873626" lon="10.495512122300724"><ele>222.5</ele><time>2026-04-06T08:50:44Z</time></trkpt><trkpt lat="45.436747555675396" lon="10.495417107687137"><ele>223.0</ele><time>2026-04-06T08:50:47Z</time></trkpt><trkpt lat="45.43668858010665" lon="10.495373396024021"><ele>223.50000000000003</ele><time>2026-04-06T08:50:50Z</time></trkpt><trkpt lat="45.436631001915586" lon="10.495283468682286"><ele>224.0</ele><time>2026-04-06T08:51:10Z</time></trkpt><trkpt lat="45.43656177813459" lon="10.49522730492439"><ele>224.00000000000003</ele><time>2026-04-06T08:51:13Z</time></trkpt><trkpt lat="45.436493097775156" lon="10.495166142642073"><ele>224.0</ele><time>2026-04-06T08:51:16Z</time></trkpt><trkpt lat="45.43644459244474" lon="10.495104776344368"><ele>224.0</ele><time>2026-04-06T08:51:18Z</time></trkpt><trkpt lat="45.43637927442572" lon="10.495069314920395"><ele>224.0</ele><time>2026-04-06T08:51:20Z</time></trkpt><trkpt lat="45.43629371419391" lon="10.495048437402867"><ele>224.00000000000003</ele><time>2026-04-06T08:51:23Z</time></trkpt><trkpt lat="45.43622301423755" lon="10.495054422565529"><ele>224.0</ele><time>2026-04-06T08:51:26Z</time></trkpt><trkpt lat="45.436139620096164" lon="10.495091292445377"><ele>224.00000000000003</ele><time>2026-04-06T08:51:29Z</time></trkpt><trkpt lat="45.43607491920068" lon="10.495099632900514"><ele>224.0</ele><time>2026-04-06T08:51:31Z</time></trkpt><trkpt lat="45.43600080179984" lon="10.495139764465698"><ele>224.0</ele><time>2026-04-06T08:51:33Z</time></trkpt><trkpt lat="45.43592090937828" lon="10.495202882068861"><ele>224.0</ele><time>2026-04-06T08:51:35Z</time></trkpt><trkpt lat="45.43584520112248" lon="10.495260228984153"><ele>224.00000000000003</ele><time>2026-04-06T08:51:37Z</time></trkpt><trkpt lat="45.435773099595785" lon="10.495308262466212"><ele>224.0</ele><time>2026-04-06T08:51:39Z</time></trkpt><trkpt lat="45.43568412432108" lon="10.49533191695635"><ele>224.00000000000003</ele><time>2026-04-06T08:51:41Z</time></trkpt><trkpt lat="45.435603019637256" lon="10.495365861221929"><ele>224.0</ele><time>2026-04-06T08:51:43Z</time></trkpt><trkpt lat="45.43553586325314" lon="10.495369188149393"><ele>224.0</ele><time>2026-04-06T08:51:45Z</time></trkpt><trkpt lat="45.435443640111096" lon="10.495338590587782"><ele>224.0</ele><time>2026-04-06T08:51:47Z</time></trkpt><trkpt lat="45.43532678096291" lon="10.495338703169889"><ele>224.00000000000003</ele><time>2026-04-06T08:51:49Z</time></trkpt><trkpt lat="45.435274931029674" lon="10.49528729687552"><ele>224.0</ele><time>2026-04-06T08:51:50Z</time></trkpt><trkpt lat="45.43521815553075" lon="10.495245509394227"><ele>224.39999999999998</ele><time>2026-04-06T08:51:51Z</time></trkpt><trkpt lat="45.435129341029494" lon="10.495133660150115"><ele>224.79999999999998</ele><time>2026-04-06T08:51:53Z</time></trkpt><trkpt lat="45.435030739950506" lon="10.495063532263984"><ele>225.20000000000002</ele><time>2026-04-06T08:51:55Z</time></trkpt><trkpt lat="45.43498886730627" lon="10.4949738063323"><ele>225.60000000000002</ele><time>2026-04-06T08:51:57Z</time></trkpt><trkpt lat="45.43491864956479" lon="10.494849669370092"><ele>226.0</ele><time>2026-04-06T08:51:59Z</time></trkpt><trkpt lat="45.43484867411545" lon="10.494786010197947"><ele>225.99999999999997</ele><time>2026-04-06T08:52:01Z</time></trkpt><trkpt lat="45.43481624392001" lon="10.494683809376234"><ele>226.0</ele><time>2026-04-06T08:52:03Z</time></trkpt><trkpt lat="45.434745402875976" lon="10.494617125787057"><ele>226.0</ele><time>2026-04-06T08:52:06Z</time></trkpt><trkpt lat="45.43467965681308" lon="10.494574591677027"><ele>226.0</ele><time>2026-04-06T08:52:10Z</time></trkpt><trkpt lat="45.434611822078246" lon="10.494525245870593"><ele>225.99999999999997</ele><time>2026-04-06T08:52:13Z</time></trkpt><trkpt lat="45.434546859867375" lon="10.494485907266744"><ele>226.0</ele><time>2026-04-06T08:52:17Z</time></trkpt><trkpt lat="45.43447665980381" lon="10.494459915204034"><ele>224.66666666666666</ele><time>2026-04-06T08:52:20Z</time></trkpt><trkpt lat="45.43441069400672" lon="10.494409176427482"><ele>223.33333333333331</ele><time>2026-04-06T08:52:23Z</time></trkpt><trkpt lat="45.434313602782055" lon="10.494366562813976"><ele>222.0</ele><time>2026-04-06T08:52:26Z</time></trkpt><trkpt lat="45.434231513329976" lon="10.494317083997393"><ele>220.66666666666669</ele><time>2026-04-06T08:52:29.001Z</time></trkpt><trkpt lat="45.4341587307976" lon="10.494241630065279"><ele>219.33333333333334</ele><time>2026-04-06T08:52:32.001Z</time></trkpt><trkpt lat="45.434086119960796" lon="10.494187350500662"><ele>218.0</ele><time>2026-04-06T08:52:34.001Z</time></trkpt><trkpt lat="45.43399914765571" lon="10.494119518074871"><ele>218.00000000000003</ele><time>2026-04-06T08:52:36.001Z</time></trkpt><trkpt lat="45.43393676548502" lon="10.49409419053522"><ele>218.0</ele><time>2026-04-06T08:52:37.001Z</time></trkpt><trkpt lat="45.4338534364704" lon="10.49400693095903"><ele>218.0</ele><time>2026-04-06T08:52:39.001Z</time></trkpt><trkpt lat="45.43377445219914" lon="10.493957592587662"><ele>218.0</ele><time>2026-04-06T08:52:41.001Z</time></trkpt><trkpt lat="45.43370698456416" lon="10.49389070365304"><ele>218.00000000000003</ele><time>2026-04-06T08:52:43Z</time></trkpt><trkpt lat="45.43364120472098" lon="10.493853918856024"><ele>218.0</ele><time>2026-04-06T08:52:45Z</time></trkpt><trkpt lat="45.43357820511445" lon="10.493819912673022"><ele>218.66666666666669</ele><time>2026-04-06T08:52:47Z</time></trkpt><trkpt lat="45.433503750196195" lon="10.493789061071704"><ele>219.33333333333334</ele><time>2026-04-06T08:52:49Z</time></trkpt><trkpt lat="45.433440624482095" lon="10.493725521219954"><ele>220.0</ele><time>2026-04-06T08:52:51Z</time></trkpt><trkpt lat="45.43337816321565" lon="10.493669305559537"><ele>220.66666666666669</ele><time>2026-04-06T08:52:54Z</time></trkpt><trkpt lat="45.433295984822394" lon="10.493606149193862"><ele>221.33333333333334</ele><time>2026-04-06T08:52:58Z</time></trkpt><trkpt lat="45.43323098901245" lon="10.493550240033915"><ele>222.0</ele><time>2026-04-06T08:53:00Z</time></trkpt><trkpt lat="45.43313747749812" lon="10.49346847378944"><ele>222.0</ele><time>2026-04-06T08:53:02Z</time></trkpt><trkpt lat="45.43304951048036" lon="10.493401180269993"><ele>222.0</ele><time>2026-04-06T08:53:04Z</time></trkpt><trkpt lat="45.432995342916044" lon="10.49327328585571"><ele>222.0</ele><time>2026-04-06T08:53:06Z</time></trkpt><trkpt lat="45.43296771606064" lon="10.493189295396668"><ele>222.0</ele><time>2026-04-06T08:53:07Z</time></trkpt><trkpt lat="45.43291367267219" lon="10.49310539092551"><ele>222.0</ele><time>2026-04-06T08:53:09Z</time></trkpt><trkpt lat="45.43283545730931" lon="10.493063210619338"><ele>222.0</ele><time>2026-04-06T08:53:11Z</time></trkpt><trkpt lat="45.432786946270255" lon="10.492976636604327"><ele>221.0</ele><time>2026-04-06T08:53:13Z</time></trkpt><trkpt lat="45.43273051492869" lon="10.492866922665103"><ele>220.0</ele><time>2026-04-06T08:53:16Z</time></trkpt><trkpt lat="45.43267633869122" lon="10.492802258659927"><ele>219.0</ele><time>2026-04-06T08:53:18Z</time></trkpt><trkpt lat="45.43263192668552" lon="10.492685043955298"><ele>218.0</ele><time>2026-04-06T08:53:21Z</time></trkpt><trkpt lat="45.4325834545727" lon="10.492574502833426"><ele>217.0</ele><time>2026-04-06T08:53:24Z</time></trkpt><trkpt lat="45.432540280001206" lon="10.492480256717375"><ele>216.0</ele><time>2026-04-06T08:53:27Z</time></trkpt><trkpt lat="45.43245950422267" lon="10.492399759766958"><ele>216.0</ele><time>2026-04-06T08:53:29Z</time></trkpt><trkpt lat="45.432391302586005" lon="10.492297356668917"><ele>216.0</ele><time>2026-04-06T08:53:31Z</time></trkpt><trkpt lat="45.432334998132085" lon="10.492240711244756"><ele>216.0</ele><time>2026-04-06T08:53:33Z</time></trkpt><trkpt lat="45.43226938173636" lon="10.492191314407224"><ele>216.0</ele><time>2026-04-06T08:53:35Z</time></trkpt><trkpt lat="45.432219498561636" lon="10.492124743264014"><ele>216.0</ele><time>2026-04-06T08:53:37Z</time></trkpt><trkpt lat="45.432158759470596" lon="10.49207490975125"><ele>216.0</ele><time>2026-04-06T08:53:39Z</time></trkpt><trkpt lat="45.43208647143867" lon="10.491982375790382"><ele>215.5</ele><time>2026-04-06T08:53:42Z</time></trkpt><trkpt lat="45.43202157897006" lon="10.491905830843255"><ele>215.0</ele><time>2026-04-06T08:53:44Z</time></trkpt><trkpt lat="45.43196017322581" lon="10.491825818089401"><ele>214.5</ele><time>2026-04-06T08:53:46Z</time></trkpt><trkpt lat="45.431882751736175" lon="10.491734622821095"><ele>214.0</ele><time>2026-04-06T08:53:48Z</time></trkpt><trkpt lat="45.43183195245698" lon="10.491660461746331"><ele>213.5</ele><time>2026-04-06T08:53:50Z</time></trkpt><trkpt lat="45.43178011525651" lon="10.491602052483614"><ele>213.0</ele><time>2026-04-06T08:53:53Z</time></trkpt><trkpt lat="45.431733938642324" lon="10.491533170907354"><ele>212.99999999999997</ele><time>2026-04-06T08:53:56Z</time></trkpt><trkpt lat="45.431679756618905" lon="10.49145873211652"><ele>213.0</ele><time>2026-04-06T08:53:59Z</time></trkpt><trkpt lat="45.43163651110066" lon="10.49137354105682"><ele>213.0</ele><time>2026-04-06T08:54:02Z</time></trkpt><trkpt lat="45.43158532302959" lon="10.491280519921704"><ele>213.0</ele><time>2026-04-06T08:54:06Z</time></trkpt><trkpt lat="45.431532027709636" lon="10.491206154012659"><ele>213.0</ele><time>2026-04-06T08:54:09Z</time></trkpt><trkpt lat="45.43147219340615" lon="10.491136790499045"><ele>212.99999999999997</ele><time>2026-04-06T08:54:12Z</time></trkpt><trkpt lat="45.431422643937665" lon="10.491081384359294"><ele>213.0</ele><time>2026-04-06T08:54:16Z</time></trkpt><trkpt lat="45.431535699885245" lon="10.490915148472963"><ele>212.16666666666666</ele><time>2026-04-06T08:57:20Z</time></trkpt><trkpt lat="45.43153888031651" lon="10.490779939432777"><ele>211.33333333333331</ele><time>2026-04-06T08:57:23Z</time></trkpt><trkpt lat="45.431468950207595" lon="10.49073245591256"><ele>210.5</ele><time>2026-04-06T08:57:26Z</time></trkpt><trkpt lat="45.431412150035854" lon="10.490660527663797"><ele>209.66666666666666</ele><time>2026-04-06T08:57:31Z</time></trkpt><trkpt lat="45.43135225195993" lon="10.490600002902477"><ele>208.83333333333331</ele><time>2026-04-06T08:57:35Z</time></trkpt><trkpt lat="45.43133848560679" lon="10.490511014780354"><ele>208.0</ele><time>2026-04-06T08:57:40Z</time></trkpt><trkpt lat="45.43125901459455" lon="10.490423505781363"><ele>206.57142857142856</ele><time>2026-04-06T08:57:43Z</time></trkpt><trkpt lat="45.43130059259046" lon="10.490355973920975"><ele>205.14285714285717</ele><time>2026-04-06T08:57:48Z</time></trkpt><trkpt lat="45.43136093129055" lon="10.49032653981861"><ele>203.71428571428572</ele><time>2026-04-06T08:57:50Z</time></trkpt><trkpt lat="45.43133329190104" lon="10.490212582559899"><ele>202.28571428571428</ele><time>2026-04-06T08:57:53Z</time></trkpt><trkpt lat="45.43125445219921" lon="10.490179594879157"><ele>200.85714285714283</ele><time>2026-04-06T08:57:55Z</time></trkpt><trkpt lat="45.43121202300838" lon="10.49010655328365"><ele>199.42857142857144</ele><time>2026-04-06T08:57:57Z</time></trkpt><trkpt lat="45.431147038537574" lon="10.490072115212111"><ele>198.0</ele><time>2026-04-06T08:57:59Z</time></trkpt><trkpt lat="45.43110558078629" lon="10.489963463100631"><ele>198.0</ele><time>2026-04-06T08:58:01Z</time></trkpt><trkpt lat="45.43106221139857" lon="10.489895826480241"><ele>198.0</ele><time>2026-04-06T08:58:02Z</time></trkpt><trkpt lat="45.43100721444686" lon="10.489786976592898"><ele>198.0</ele><time>2026-04-06T08:58:04Z</time></trkpt><trkpt lat="45.43096299267294" lon="10.489700327824993"><ele>198.0</ele><time>2026-04-06T08:58:05Z</time></trkpt><trkpt lat="45.43090501680434" lon="10.489599366375389"><ele>198.0</ele><time>2026-04-06T08:58:08Z</time></trkpt><trkpt lat="45.43087600853865" lon="10.48951839219678"><ele>198.0</ele><time>2026-04-06T08:58:10Z</time></trkpt><trkpt lat="45.430857747004424" lon="10.489412089257204"><ele>196.33333333333334</ele><time>2026-04-06T08:58:12Z</time></trkpt><trkpt lat="45.43081058176979" lon="10.489318193842278"><ele>194.66666666666666</ele><time>2026-04-06T08:58:14Z</time></trkpt><trkpt lat="45.43073312859333" lon="10.489260869532448"><ele>193.0</ele><time>2026-04-06T08:58:16Z</time></trkpt><trkpt lat="45.4306743534306" lon="10.489176926103843"><ele>191.33333333333331</ele><time>2026-04-06T08:58:18Z</time></trkpt><trkpt lat="45.430602714552286" lon="10.489126616900403"><ele>189.66666666666666</ele><time>2026-04-06T08:58:21Z</time></trkpt><trkpt lat="45.43053969973693" lon="10.489128910127919"><ele>188.0</ele><time>2026-04-06T08:58:23Z</time></trkpt><trkpt lat="45.430464162708894" lon="10.489039800264218"><ele>187.83333333333331</ele><time>2026-04-06T08:58:26Z</time></trkpt><trkpt lat="45.43037997643568" lon="10.488981459863071"><ele>187.66666666666666</ele><time>2026-04-06T08:58:28Z</time></trkpt><trkpt lat="45.43030177240735" lon="10.488930174527619"><ele>187.5</ele><time>2026-04-06T08:58:30Z</time></trkpt><trkpt lat="45.43024869447711" lon="10.48884337712743"><ele>187.33333333333334</ele><time>2026-04-06T08:58:34Z</time></trkpt><trkpt lat="45.430236707142456" lon="10.488749284911187"><ele>187.16666666666669</ele><time>2026-04-06T08:58:37Z</time></trkpt><trkpt lat="45.43014777656268" lon="10.488709313785476"><ele>187.0</ele><time>2026-04-06T08:58:41.001Z</time></trkpt><trkpt lat="45.43008819363966" lon="10.488617118004772"><ele>185.16666666666669</ele><time>2026-04-06T08:58:44.001Z</time></trkpt><trkpt lat="45.43002551060561" lon="10.488538909839827"><ele>183.33333333333334</ele><time>2026-04-06T08:58:47.001Z</time></trkpt><trkpt lat="45.430015829428456" lon="10.488447834368149"><ele>181.5</ele><time>2026-04-06T08:58:54.001Z</time></trkpt><trkpt lat="45.43006914921087" lon="10.488378842630109"><ele>179.66666666666666</ele><time>2026-04-06T08:58:57.001Z</time></trkpt><trkpt lat="45.43004988886757" lon="10.488246643528475"><ele>177.83333333333331</ele><time>2026-04-06T08:59:00Z</time></trkpt><trkpt lat="45.430066865368055" lon="10.488146756615725"><ele>176.0</ele><time>2026-04-06T08:59:03Z</time></trkpt><trkpt lat="45.43004538570803" lon="10.488061182980386"><ele>176.0</ele><time>2026-04-06T08:59:08Z</time></trkpt><trkpt lat="45.43027189879386" lon="10.48800703621618"><ele>176.0</ele><time>2026-04-06T08:59:12Z</time></trkpt><trkpt lat="45.430341947489126" lon="10.487949463160371"><ele>176.0</ele><time>2026-04-06T08:59:14Z</time></trkpt><trkpt lat="45.43044277611259" lon="10.4878970743477"><ele>176.0</ele><time>2026-04-06T08:59:17Z</time></trkpt><trkpt lat="45.43047989640814" lon="10.487822126099061"><ele>173.8</ele><time>2026-04-06T08:59:19Z</time></trkpt><trkpt lat="45.43050723263608" lon="10.48770536716032"><ele>171.60000000000002</ele><time>2026-04-06T08:59:22Z</time></trkpt><trkpt lat="45.43055869330839" lon="10.487641243149353"><ele>169.4</ele><time>2026-04-06T08:59:26Z</time></trkpt><trkpt lat="45.43065334874884" lon="10.487592738228528"><ele>167.2</ele><time>2026-04-06T08:59:29Z</time></trkpt><trkpt lat="45.43073599164588" lon="10.487509240053365"><ele>165.0</ele><time>2026-04-06T08:59:32Z</time></trkpt><trkpt lat="45.43084587313244" lon="10.487448816199276"><ele>165.0</ele><time>2026-04-06T08:59:34Z</time></trkpt><trkpt lat="45.43093138206704" lon="10.487425941453603"><ele>165.0</ele><time>2026-04-06T08:59:36Z</time></trkpt><trkpt lat="45.43090672985641" lon="10.487323643234538"><ele>165.0</ele><time>2026-04-06T08:59:40Z</time></trkpt><trkpt lat="45.43081664905622" lon="10.487311005478142"><ele>165.0</ele><time>2026-04-06T08:59:43Z</time></trkpt><trkpt lat="45.430732520558834" lon="10.487276238352326"><ele>165.0</ele><time>2026-04-06T08:59:46Z</time></trkpt><trkpt lat="45.430669693425855" lon="10.487246547530537"><ele>165.0</ele><time>2026-04-06T08:59:48Z</time></trkpt><trkpt lat="45.43060230862571" lon="10.487241443727608"><ele>165.00000000000003</ele><time>2026-04-06T08:59:50Z</time></trkpt><trkpt lat="45.43052586068057" lon="10.487185252996515"><ele>165.0</ele><time>2026-04-06T08:59:53Z</time></trkpt><trkpt lat="45.43044302550212" lon="10.487125622301049"><ele>165.0</ele><time>2026-04-06T08:59:56Z</time></trkpt><trkpt lat="45.43038278726538" lon="10.48708445277529"><ele>165.0</ele><time>2026-04-06T08:59:58Z</time></trkpt><trkpt lat="45.43031990605767" lon="10.487053987265297"><ele>165.0</ele><time>2026-04-06T09:00:00Z</time></trkpt><trkpt lat="45.43025117174088" lon="10.487055577655035"><ele>165.00000000000003</ele><time>2026-04-06T09:00:02Z</time></trkpt><trkpt lat="45.430183415036055" lon="10.487058270909221"><ele>165.0</ele><time>2026-04-06T09:00:04Z</time></trkpt><trkpt lat="45.43009456238223" lon="10.487057156937782"><ele>164.83333333333334</ele><time>2026-04-06T09:00:07Z</time></trkpt><trkpt lat="45.43000885758683" lon="10.487086640001673"><ele>164.66666666666666</ele><time>2026-04-06T09:00:10Z</time></trkpt><trkpt lat="45.429920357087624" lon="10.487096816473178"><ele>164.5</ele><time>2026-04-06T09:00:13Z</time></trkpt><trkpt lat="45.42984651767968" lon="10.487115153303705"><ele>164.33333333333331</ele><time>2026-04-06T09:00:16Z</time></trkpt><trkpt lat="45.42976798285872" lon="10.487095889822351"><ele>164.16666666666666</ele><time>2026-04-06T09:00:19Z</time></trkpt><trkpt lat="45.42968501335722" lon="10.487067569003452"><ele>164.0</ele><time>2026-04-06T09:00:22Z</time></trkpt><trkpt lat="45.429624046764786" lon="10.487117781013454"><ele>165.14285714285714</ele><time>2026-04-06T09:00:24Z</time></trkpt><trkpt lat="45.42956231743464" lon="10.487141459547582"><ele>166.28571428571428</ele><time>2026-04-06T09:00:26Z</time></trkpt><trkpt lat="45.42949239610415" lon="10.487174625299865"><ele>167.42857142857144</ele><time>2026-04-06T09:00:29Z</time></trkpt><trkpt lat="45.42941410666833" lon="10.48717894512788"><ele>168.57142857142856</ele><time>2026-04-06T09:00:32Z</time></trkpt><trkpt lat="45.42935148334092" lon="10.487206263981806"><ele>169.71428571428572</ele><time>2026-04-06T09:00:34Z</time></trkpt><trkpt lat="45.42927476600272" lon="10.487218245542229"><ele>170.85714285714286</ele><time>2026-04-06T09:00:38Z</time></trkpt><trkpt lat="45.42920929437284" lon="10.48722901535282"><ele>172.0</ele><time>2026-04-06T09:00:41Z</time></trkpt><trkpt lat="45.42913479699765" lon="10.487220858970808"><ele>172.0</ele><time>2026-04-06T09:00:44Z</time></trkpt><trkpt lat="45.42905542648085" lon="10.487207556019666"><ele>172.0</ele><time>2026-04-06T09:00:48Z</time></trkpt><trkpt lat="45.42898978666864" lon="10.487232210068957"><ele>172.0</ele><time>2026-04-06T09:00:52Z</time></trkpt><trkpt lat="45.428966723234076" lon="10.486751226469579"><ele>172.16666666666669</ele><time>2026-04-06T09:00:56.001Z</time></trkpt><trkpt lat="45.428961845107004" lon="10.486658962732628"><ele>172.33333333333334</ele><time>2026-04-06T09:00:58.001Z</time></trkpt><trkpt lat="45.428953358028245" lon="10.486529929040007"><ele>172.5</ele><time>2026-04-06T09:01:01.001Z</time></trkpt><trkpt lat="45.42892235684791" lon="10.486399491937412"><ele>172.66666666666666</ele><time>2026-04-06T09:01:04.001Z</time></trkpt><trkpt lat="45.4289279920328" lon="10.486302921393508"><ele>172.83333333333331</ele><time>2026-04-06T09:01:06Z</time></trkpt><trkpt lat="45.42893928530537" lon="10.48621246070298"><ele>173.0</ele><time>2026-04-06T09:01:09Z</time></trkpt><trkpt lat="45.42894572168519" lon="10.48611393885755"><ele>173.5</ele><time>2026-04-06T09:01:11Z</time></trkpt><trkpt lat="45.42899020484987" lon="10.486020511855148"><ele>174.0</ele><time>2026-04-06T09:01:14Z</time></trkpt><trkpt lat="45.42905228837278" lon="10.485959833699857"><ele>174.5</ele><time>2026-04-06T09:01:17Z</time></trkpt><trkpt lat="45.42913010759485" lon="10.48589225175375"><ele>175.0</ele><time>2026-04-06T09:01:20Z</time></trkpt><trkpt lat="45.42911287256935" lon="10.485793854764708"><ele>175.5</ele><time>2026-04-06T09:01:22Z</time></trkpt><trkpt lat="45.429056132555" lon="10.48573587656341"><ele>176.0</ele><time>2026-04-06T09:01:24Z</time></trkpt><trkpt lat="45.42900913971488" lon="10.485653951984672"><ele>176.0</ele><time>2026-04-06T09:01:26Z</time></trkpt><trkpt lat="45.42896929827798" lon="10.485547746507736"><ele>176.0</ele><time>2026-04-06T09:01:29Z</time></trkpt><trkpt lat="45.428906476883135" lon="10.485505477659608"><ele>176.0</ele><time>2026-04-06T09:01:32Z</time></trkpt><trkpt lat="45.42882567786517" lon="10.485451845506002"><ele>176.0</ele><time>2026-04-06T09:01:35Z</time></trkpt><trkpt lat="45.42873350516301" lon="10.485407823876315"><ele>176.0</ele><time>2026-04-06T09:01:38Z</time></trkpt><trkpt lat="45.42865722563135" lon="10.485361301833285"><ele>176.0</ele><time>2026-04-06T09:01:40Z</time></trkpt><trkpt lat="45.42858883477499" lon="10.485322301784528"><ele>175.66666666666666</ele><time>2026-04-06T09:01:42Z</time></trkpt><trkpt lat="45.428531076561484" lon="10.485268841741293"><ele>175.33333333333331</ele><time>2026-04-06T09:01:44Z</time></trkpt><trkpt lat="45.42845787043267" lon="10.485192934862463"><ele>175.0</ele><time>2026-04-06T09:01:47Z</time></trkpt><trkpt lat="45.428401955112335" lon="10.485140824945617"><ele>174.66666666666666</ele><time>2026-04-06T09:01:49Z</time></trkpt><trkpt lat="45.42833243886898" lon="10.485090863394056"><ele>174.33333333333334</ele><time>2026-04-06T09:01:51Z</time></trkpt><trkpt lat="45.42826380289824" lon="10.48506583587508"><ele>174.0</ele><time>2026-04-06T09:01:53Z</time></trkpt><trkpt lat="45.42818742474639" lon="10.485033335818855"><ele>174.0</ele><time>2026-04-06T09:01:56Z</time></trkpt><trkpt lat="45.42810827791413" lon="10.484975429516446"><ele>174.0</ele><time>2026-04-06T09:02:00Z</time></trkpt><trkpt lat="45.42802584070436" lon="10.484940894398482"><ele>174.0</ele><time>2026-04-06T09:02:02Z</time></trkpt><trkpt lat="45.42792220859503" lon="10.484900801147768"><ele>174.0</ele><time>2026-04-06T09:02:04Z</time></trkpt><trkpt lat="45.42782268472601" lon="10.484841507578206"><ele>174.0</ele><time>2026-04-06T09:02:06Z</time></trkpt><trkpt lat="45.42773464105013" lon="10.484813183740815"><ele>174.0</ele><time>2026-04-06T09:02:08Z</time></trkpt><trkpt lat="45.42766644045157" lon="10.48475751022897"><ele>174.0</ele><time>2026-04-06T09:02:13Z</time></trkpt><trkpt lat="45.427582315295695" lon="10.484714457174428"><ele>174.0</ele><time>2026-04-06T09:02:16Z</time></trkpt><trkpt lat="45.42752475370725" lon="10.484664273974268"><ele>174.0</ele><time>2026-04-06T09:02:18Z</time></trkpt><trkpt lat="45.42745977931957" lon="10.484625388291533"><ele>174.0</ele><time>2026-04-06T09:02:20Z</time></trkpt><trkpt lat="45.42738471967418" lon="10.484587133866613"><ele>174.0</ele><time>2026-04-06T09:02:22Z</time></trkpt><trkpt lat="45.427314590350605" lon="10.484533688915699"><ele>173.6</ele><time>2026-04-06T09:02:24Z</time></trkpt><trkpt lat="45.42722576050846" lon="10.484466578823273"><ele>173.2</ele><time>2026-04-06T09:02:26Z</time></trkpt><trkpt lat="45.42717841030717" lon="10.484334779051595"><ele>172.79999999999998</ele><time>2026-04-06T09:02:28Z</time></trkpt><trkpt lat="45.42709363669832" lon="10.484227145574195"><ele>172.39999999999998</ele><time>2026-04-06T09:02:30Z</time></trkpt><trkpt lat="45.4269973643387" lon="10.48411093377126"><ele>172.0</ele><time>2026-04-06T09:02:32Z</time></trkpt><trkpt lat="45.42692773597171" lon="10.483975308136468"><ele>172.66666666666669</ele><time>2026-04-06T09:02:34Z</time></trkpt><trkpt lat="45.42685824026859" lon="10.48389946478346"><ele>173.33333333333334</ele><time>2026-04-06T09:02:36Z</time></trkpt><trkpt lat="45.42678455032564" lon="10.483961942643516"><ele>174.0</ele><time>2026-04-06T09:02:38Z</time></trkpt><trkpt lat="45.426707966075135" lon="10.483930686894112"><ele>174.66666666666666</ele><time>2026-04-06T09:02:40Z</time></trkpt><trkpt lat="45.42662820852428" lon="10.48390629788226"><ele>175.33333333333331</ele><time>2026-04-06T09:02:42Z</time></trkpt><trkpt lat="45.42655836590983" lon="10.483851213820373"><ele>176.0</ele><time>2026-04-06T09:02:44Z</time></trkpt><trkpt lat="45.42647912945119" lon="10.483867583288609"><ele>176.0</ele><time>2026-04-06T09:02:46Z</time></trkpt><trkpt lat="45.42639770375108" lon="10.48392074740097"><ele>176.0</ele><time>2026-04-06T09:02:48Z</time></trkpt><trkpt lat="45.42630215135931" lon="10.48392619650352"><ele>176.0</ele><time>2026-04-06T09:02:50Z</time></trkpt><trkpt lat="45.42619396186761" lon="10.483936173179847"><ele>176.0</ele><time>2026-04-06T09:02:52Z</time></trkpt><trkpt lat="45.42609255209934" lon="10.483930309918794"><ele>176.0</ele><time>2026-04-06T09:02:54Z</time></trkpt><trkpt lat="45.4260130967676" lon="10.483920030472039"><ele>175.71428571428572</ele><time>2026-04-06T09:02:56Z</time></trkpt><trkpt lat="45.42594052961647" lon="10.483910063945254"><ele>175.42857142857142</ele><time>2026-04-06T09:02:58Z</time></trkpt><trkpt lat="45.42586072451352" lon="10.483909646439011"><ele>175.14285714285714</ele><time>2026-04-06T09:03:00.001Z</time></trkpt><trkpt lat="45.42579122606725" lon="10.483913761814927"><ele>174.85714285714286</ele><time>2026-04-06T09:03:02.001Z</time></trkpt><trkpt lat="45.42572781157052" lon="10.483947089450483"><ele>174.57142857142858</ele><time>2026-04-06T09:03:04.001Z</time></trkpt><trkpt lat="45.42565978645159" lon="10.48402967176712"><ele>174.28571428571428</ele><time>2026-04-06T09:03:07.001Z</time></trkpt><trkpt lat="45.425624086157484" lon="10.484106683443947"><ele>174.0</ele><time>2026-04-06T09:03:09.001Z</time></trkpt><trkpt lat="45.42556165492083" lon="10.484199080497353"><ele>174.0</ele><time>2026-04-06T09:03:12Z</time></trkpt><trkpt lat="45.42550223452907" lon="10.484231879787844"><ele>174.0</ele><time>2026-04-06T09:03:14Z</time></trkpt><trkpt lat="45.42541004233208" lon="10.484239457729762"><ele>174.0</ele><time>2026-04-06T09:03:17Z</time></trkpt><trkpt lat="45.42534885627989" lon="10.484205764101656"><ele>174.0</ele><time>2026-04-06T09:03:19Z</time></trkpt><trkpt lat="45.42526451753116" lon="10.484130727171319"><ele>174.0</ele><time>2026-04-06T09:03:22Z</time></trkpt><trkpt lat="45.42519119082818" lon="10.48407149493858"><ele>174.0</ele><time>2026-04-06T09:03:24Z</time></trkpt><trkpt lat="45.42510850661063" lon="10.48400341692793"><ele>173.25</ele><time>2026-04-06T09:03:26Z</time></trkpt><trkpt lat="45.42501919776483" lon="10.4839278745674"><ele>172.5</ele><time>2026-04-06T09:03:28Z</time></trkpt><trkpt lat="45.42491999114262" lon="10.483849786945393"><ele>171.75</ele><time>2026-04-06T09:03:30Z</time></trkpt><trkpt lat="45.42481261214292" lon="10.483788152169524"><ele>171.0</ele><time>2026-04-06T09:03:32Z</time></trkpt><trkpt lat="45.42469777177212" lon="10.483742895128902"><ele>170.25</ele><time>2026-04-06T09:03:34Z</time></trkpt><trkpt lat="45.42458675730334" lon="10.483685455808894"><ele>169.5</ele><time>2026-04-06T09:03:36Z</time></trkpt><trkpt lat="45.42447563494257" lon="10.483657039996606"><ele>168.75</ele><time>2026-04-06T09:03:38Z</time></trkpt><trkpt lat="45.42436830539082" lon="10.483656320746661"><ele>168.0</ele><time>2026-04-06T09:03:40Z</time></trkpt><trkpt lat="45.424248208962894" lon="10.483668535000369"><ele>168.0</ele><time>2026-04-06T09:03:42Z</time></trkpt><trkpt lat="45.424128075805406" lon="10.483678672129768"><ele>168.0</ele><time>2026-04-06T09:03:44Z</time></trkpt><trkpt lat="45.42401144328792" lon="10.48366720943919"><ele>168.0</ele><time>2026-04-06T09:03:46Z</time></trkpt><trkpt lat="45.42390198815281" lon="10.483655702688617"><ele>168.0</ele><time>2026-04-06T09:03:48Z</time></trkpt><trkpt lat="45.42380535158106" lon="10.483646026772828"><ele>168.0</ele><time>2026-04-06T09:03:50Z</time></trkpt><trkpt lat="45.423699002824904" lon="10.4835942266299"><ele>167.16666666666666</ele><time>2026-04-06T09:03:52Z</time></trkpt><trkpt lat="45.42360377189788" lon="10.483500511488561"><ele>166.33333333333334</ele><time>2026-04-06T09:03:54Z</time></trkpt><trkpt lat="45.42354907213933" lon="10.483446466136996"><ele>165.5</ele><time>2026-04-06T09:03:55Z</time></trkpt><trkpt lat="45.42349245714508" lon="10.48340151906417"><ele>164.66666666666669</ele><time>2026-04-06T09:03:56Z</time></trkpt><trkpt lat="45.42343556911249" lon="10.483343624163677"><ele>163.83333333333334</ele><time>2026-04-06T09:03:57Z</time></trkpt><trkpt lat="45.423374671454326" lon="10.483283779062194"><ele>163.0</ele><time>2026-04-06T09:03:58Z</time></trkpt><trkpt lat="45.42331419145176" lon="10.483215885306585"><ele>163.0</ele><time>2026-04-06T09:03:59Z</time></trkpt><trkpt lat="45.423262536037235" lon="10.483139977927433"><ele>163.0</ele><time>2026-04-06T09:04:00Z</time></trkpt><trkpt lat="45.423215738146055" lon="10.483053967135703"><ele>163.0</ele><time>2026-04-06T09:04:01Z</time></trkpt><trkpt lat="45.423167225599116" lon="10.482975207226179"><ele>163.0</ele><time>2026-04-06T09:04:02Z</time></trkpt><trkpt lat="45.42310777319737" lon="10.482883742811563"><ele>163.0</ele><time>2026-04-06T09:04:03Z</time></trkpt><trkpt lat="45.423056324957805" lon="10.482804749965144"><ele>163.0</ele><time>2026-04-06T09:04:04Z</time></trkpt><trkpt lat="45.42300786576715" lon="10.482738082990705"><ele>162.0</ele><time>2026-04-06T09:04:05Z</time></trkpt><trkpt lat="45.42291725381112" lon="10.482643696413085"><ele>161.0</ele><time>2026-04-06T09:04:07Z</time></trkpt><trkpt lat="45.42283381657163" lon="10.482568665782127"><ele>160.0</ele><time>2026-04-06T09:04:09Z</time></trkpt><trkpt lat="45.42274085969975" lon="10.482485091815475"><ele>159.0</ele><time>2026-04-06T09:04:11Z</time></trkpt><trkpt lat="45.42264401297943" lon="10.482390893798136"><ele>158.0</ele><time>2026-04-06T09:04:13Z</time></trkpt><trkpt lat="45.42255493592359" lon="10.482306877841554"><ele>158.0</ele><time>2026-04-06T09:04:15Z</time></trkpt><trkpt lat="45.42245504746352" lon="10.482223238534452"><ele>158.0</ele><time>2026-04-06T09:04:17Z</time></trkpt><trkpt lat="45.42237387723701" lon="10.482185014632469"><ele>158.0</ele><time>2026-04-06T09:04:18Z</time></trkpt><trkpt lat="45.422297689961376" lon="10.482131337593142"><ele>158.0</ele><time>2026-04-06T09:04:19Z</time></trkpt><trkpt lat="45.422234221958824" lon="10.482083050637362"><ele>158.0</ele><time>2026-04-06T09:04:20Z</time></trkpt><trkpt lat="45.42214764623182" lon="10.482083232049376"><ele>158.0</ele><time>2026-04-06T09:04:22Z</time></trkpt><trkpt lat="45.42211092471237" lon="10.482010331280886"><ele>157.66666666666666</ele><time>2026-04-06T09:04:25Z</time></trkpt><trkpt lat="45.42204711341442" lon="10.481970094431254"><ele>157.33333333333331</ele><time>2026-04-06T09:04:27Z</time></trkpt><trkpt lat="45.42198555345205" lon="10.481936124137613"><ele>157.0</ele><time>2026-04-06T09:04:29Z</time></trkpt><trkpt lat="45.421915336037934" lon="10.481880828443837"><ele>156.66666666666666</ele><time>2026-04-06T09:04:31Z</time></trkpt><trkpt lat="45.4218338627493" lon="10.481903798226547"><ele>156.33333333333334</ele><time>2026-04-06T09:04:33Z</time></trkpt><trkpt lat="45.42176411590932" lon="10.481858504343702"><ele>156.0</ele><time>2026-04-06T09:04:35Z</time></trkpt><trkpt lat="45.4216697828854" lon="10.481844012250267"><ele>156.0</ele><time>2026-04-06T09:04:37Z</time></trkpt><trkpt lat="45.42156698665289" lon="10.481782293440922"><ele>156.0</ele><time>2026-04-06T09:04:39Z</time></trkpt><trkpt lat="45.42150441721468" lon="10.481758912740057"><ele>156.0</ele><time>2026-04-06T09:04:40Z</time></trkpt><trkpt lat="45.42144185387759" lon="10.481702458954288"><ele>156.0</ele><time>2026-04-06T09:04:41Z</time></trkpt><trkpt lat="45.42136881651894" lon="10.481681220008488"><ele>156.0</ele><time>2026-04-06T09:04:43Z</time></trkpt><trkpt lat="45.42132727095032" lon="10.481560269106012"><ele>156.0</ele><time>2026-04-06T09:04:46Z</time></trkpt><trkpt lat="45.421243879931936" lon="10.481522578853404"><ele>155.0</ele><time>2026-04-06T09:04:48Z</time></trkpt><trkpt lat="45.42116749591266" lon="10.481519049460701"><ele>154.0</ele><time>2026-04-06T09:04:50Z</time></trkpt><trkpt lat="45.42109625283407" lon="10.481487873339763"><ele>153.0</ele><time>2026-04-06T09:04:52Z</time></trkpt><trkpt lat="45.4210492391066" lon="10.481423416807838"><ele>152.0</ele><time>2026-04-06T09:04:56Z</time></trkpt><trkpt lat="45.42102891786873" lon="10.481336285393125"><ele>151.0</ele><time>2026-04-06T09:05:00Z</time></trkpt><trkpt lat="45.42099316706601" lon="10.481261048596199"><ele>150.0</ele><time>2026-04-06T09:05:03Z</time></trkpt><trkpt lat="45.42095027281981" lon="10.481184816366936"><ele>149.0</ele><time>2026-04-06T09:05:09Z</time></trkpt><trkpt lat="45.420899172334835" lon="10.481244455554267"><ele>148.66666666666666</ele><time>2026-04-06T09:05:12Z</time></trkpt><trkpt lat="45.42088454227126" lon="10.481334659094859"><ele>148.33333333333331</ele><time>2026-04-06T09:05:14Z</time></trkpt><trkpt lat="45.42089900170321" lon="10.481447053053717"><ele>148.0</ele><time>2026-04-06T09:05:28Z</time></trkpt><trkpt lat="45.420904331255464" lon="10.481545410504511"><ele>147.66666666666666</ele><time>2026-04-06T09:05:30Z</time></trkpt><trkpt lat="45.42093774910827" lon="10.481670849874893"><ele>147.33333333333334</ele><time>2026-04-06T09:05:32Z</time></trkpt><trkpt lat="45.42099010321036" lon="10.481812021721623"><ele>147.0</ele><time>2026-04-06T09:05:34Z</time></trkpt><trkpt lat="45.42106013520594" lon="10.481939296906472"><ele>147.0</ele><time>2026-04-06T09:05:36Z</time></trkpt><trkpt lat="45.42114236109409" lon="10.482077504743348"><ele>147.0</ele><time>2026-04-06T09:05:38Z</time></trkpt><trkpt lat="45.42119226403584" lon="10.48215576051609"><ele>147.0</ele><time>2026-04-06T09:05:39Z</time></trkpt><trkpt lat="45.42124147743447" lon="10.482240019237258"><ele>147.0</ele><time>2026-04-06T09:05:40Z</time></trkpt><trkpt lat="45.42129299651473" lon="10.48232226544656"><ele>147.0</ele><time>2026-04-06T09:05:41Z</time></trkpt><trkpt lat="45.42134309895317" lon="10.482394923245653"><ele>147.0</ele><time>2026-04-06T09:05:42Z</time></trkpt><trkpt lat="45.4213938320403" lon="10.482448801003919"><ele>148.0</ele><time>2026-04-06T09:05:43Z</time></trkpt><trkpt lat="45.42146761841165" lon="10.482569648798783"><ele>149.0</ele><time>2026-04-06T09:05:45Z</time></trkpt><trkpt lat="45.42149820754552" lon="10.482675997357859"><ele>150.0</ele><time>2026-04-06T09:05:46Z</time></trkpt><trkpt lat="45.421561735197045" lon="10.48280033195155"><ele>151.0</ele><time>2026-04-06T09:05:48Z</time></trkpt><trkpt lat="45.42160457027168" lon="10.48289328444979"><ele>152.0</ele><time>2026-04-06T09:05:49Z</time></trkpt><trkpt lat="45.42165400335385" lon="10.482967552867187"><ele>150.0</ele><time>2026-04-06T09:05:50Z</time></trkpt><trkpt lat="45.42172982420946" lon="10.483090042323884"><ele>148.0</ele><time>2026-04-06T09:05:52Z</time></trkpt><trkpt lat="45.42180776287301" lon="10.483211642542406"><ele>146.0</ele><time>2026-04-06T09:05:54Z</time></trkpt><trkpt lat="45.421893367181966" lon="10.483348739728681"><ele>144.0</ele><time>2026-04-06T09:05:56Z</time></trkpt><trkpt lat="45.42194888331756" lon="10.48339427806005"><ele>142.0</ele><time>2026-04-06T09:05:57Z</time></trkpt><trkpt lat="45.4220236592549" lon="10.483494538871478"><ele>142.0</ele><time>2026-04-06T09:05:59Z</time></trkpt><trkpt lat="45.422016988115416" lon="10.483606003872639"><ele>142.0</ele><time>2026-04-06T09:06:02Z</time></trkpt><trkpt lat="45.42195937076747" lon="10.483711238974946"><ele>142.0</ele><time>2026-04-06T09:06:04Z</time></trkpt><trkpt lat="45.42192299295618" lon="10.483813406068192"><ele>142.0</ele><time>2026-04-06T09:06:06Z</time></trkpt><trkpt lat="45.421877113595606" lon="10.48392797477138"><ele>142.0</ele><time>2026-04-06T09:06:08Z</time></trkpt><trkpt lat="45.421824295191165" lon="10.484029867068267"><ele>142.0</ele><time>2026-04-06T09:06:10Z</time></trkpt><trkpt lat="45.42178129652033" lon="10.484137088972185"><ele>140.79999999999998</ele><time>2026-04-06T09:06:12Z</time></trkpt><trkpt lat="45.42174328997354" lon="10.484230479813508"><ele>139.6</ele><time>2026-04-06T09:06:14Z</time></trkpt><trkpt lat="45.42169081999532" lon="10.484356391164495"><ele>138.39999999999998</ele><time>2026-04-06T09:06:16Z</time></trkpt><trkpt lat="45.42165063184585" lon="10.484497959196261"><ele>137.2</ele><time>2026-04-06T09:06:18Z</time></trkpt><trkpt lat="45.4216073618411" lon="10.484643027874672"><ele>136.0</ele><time>2026-04-06T09:06:20Z</time></trkpt><trkpt lat="45.4215718682628" lon="10.48479517134412"><ele>135.6</ele><time>2026-04-06T09:06:22Z</time></trkpt><trkpt lat="45.42159170161326" lon="10.484937054939813"><ele>135.2</ele><time>2026-04-06T09:06:24Z</time></trkpt><trkpt lat="45.4216707460681" lon="10.485022244454944"><ele>134.8</ele><time>2026-04-06T09:06:26Z</time></trkpt><trkpt lat="45.421767764210855" lon="10.48509437120414"><ele>134.4</ele><time>2026-04-06T09:06:28Z</time></trkpt><trkpt lat="45.42185894414281" lon="10.485162947118964"><ele>134.0</ele><time>2026-04-06T09:06:30Z</time></trkpt><trkpt lat="45.421943629317894" lon="10.485243230872339"><ele>134.0</ele><time>2026-04-06T09:06:32Z</time></trkpt><trkpt lat="45.42200827315582" lon="10.485329429687704"><ele>134.0</ele><time>2026-04-06T09:06:34Z</time></trkpt><trkpt lat="45.422023812856736" lon="10.485426850588334"><ele>134.0</ele><time>2026-04-06T09:06:36Z</time></trkpt><trkpt lat="45.42200987224032" lon="10.485533504893295"><ele>134.0</ele><time>2026-04-06T09:06:38Z</time></trkpt><trkpt lat="45.42199132417338" lon="10.485634444466937"><ele>134.0</ele><time>2026-04-06T09:06:41Z</time></trkpt><trkpt lat="45.42198915138792" lon="10.4857516765695"><ele>134.0</ele><time>2026-04-06T09:06:44Z</time></trkpt><trkpt lat="45.422056166466135" lon="10.485828037904263"><ele>135.0</ele><time>2026-04-06T09:06:47Z</time></trkpt><trkpt lat="45.422132643389205" lon="10.485906971216531"><ele>136.0</ele><time>2026-04-06T09:06:50Z</time></trkpt><trkpt lat="45.42219115698044" lon="10.485978103590211"><ele>137.0</ele><time>2026-04-06T09:06:52Z</time></trkpt><trkpt lat="45.42224299842468" lon="10.486058908779206"><ele>138.0</ele><time>2026-04-06T09:06:54Z</time></trkpt><trkpt lat="45.42229665206199" lon="10.486148763141417"><ele>139.0</ele><time>2026-04-06T09:06:56Z</time></trkpt><trkpt lat="45.42233533468326" lon="10.4862378429425"><ele>140.0</ele><time>2026-04-06T09:06:58Z</time></trkpt><trkpt lat="45.42237189769064" lon="10.486337464460194"><ele>140.66666666666666</ele><time>2026-04-06T09:07:00Z</time></trkpt><trkpt lat="45.422392180664936" lon="10.4864501032289"><ele>141.33333333333331</ele><time>2026-04-06T09:07:02Z</time></trkpt><trkpt lat="45.4224155348043" lon="10.486551812549855"><ele>142.0</ele><time>2026-04-06T09:07:04Z</time></trkpt><trkpt lat="45.42242005341846" lon="10.486664112890413"><ele>142.66666666666666</ele><time>2026-04-06T09:07:06Z</time></trkpt><trkpt lat="45.42241256506741" lon="10.48678271712247"><ele>143.33333333333334</ele><time>2026-04-06T09:07:08Z</time></trkpt><trkpt lat="45.422410900441456" lon="10.486906565758465"><ele>144.0</ele><time>2026-04-06T09:07:10.001Z</time></trkpt><trkpt lat="45.422392600970724" lon="10.487026933899571"><ele>144.5</ele><time>2026-04-06T09:07:12.001Z</time></trkpt><trkpt lat="45.42238373887417" lon="10.487145846028268"><ele>145.0</ele><time>2026-04-06T09:07:14.001Z</time></trkpt><trkpt lat="45.42237395312648" lon="10.487277078046152"><ele>145.5</ele><time>2026-04-06T09:07:16.001Z</time></trkpt><trkpt lat="45.42237182187232" lon="10.487402022785236"><ele>146.0</ele><time>2026-04-06T09:07:18.001Z</time></trkpt><trkpt lat="45.42236816178525" lon="10.48752364113865"><ele>146.5</ele><time>2026-04-06T09:07:20.001Z</time></trkpt><trkpt lat="45.42237403356771" lon="10.487652585357537"><ele>147.0</ele><time>2026-04-06T09:07:22.001Z</time></trkpt><trkpt lat="45.42240188248528" lon="10.487773263041637"><ele>147.0</ele><time>2026-04-06T09:07:24Z</time></trkpt><trkpt lat="45.42243329264561" lon="10.487892861066339"><ele>147.0</ele><time>2026-04-06T09:07:26Z</time></trkpt><trkpt lat="45.422456673619685" lon="10.488006391828407"><ele>147.0</ele><time>2026-04-06T09:07:28Z</time></trkpt><trkpt lat="45.42249971230918" lon="10.488101339259085"><ele>147.0</ele><time>2026-04-06T09:07:30Z</time></trkpt><trkpt lat="45.42254598081241" lon="10.48819965755992"><ele>147.0</ele><time>2026-04-06T09:07:32Z</time></trkpt><trkpt lat="45.4226126525086" lon="10.488270589127415"><ele>147.0</ele><time>2026-04-06T09:07:34Z</time></trkpt><trkpt lat="45.422677342465086" lon="10.48835142948033"><ele>147.5</ele><time>2026-04-06T09:07:36Z</time></trkpt><trkpt lat="45.42275715489098" lon="10.488413785129465"><ele>148.0</ele><time>2026-04-06T09:07:38Z</time></trkpt><trkpt lat="45.42282076673148" lon="10.488479463840314"><ele>148.5</ele><time>2026-04-06T09:07:40Z</time></trkpt><trkpt lat="45.42290251567857" lon="10.488541025847995"><ele>149.0</ele><time>2026-04-06T09:07:42Z</time></trkpt><trkpt lat="45.422978039099334" lon="10.488615043034455"><ele>149.5</ele><time>2026-04-06T09:07:44Z</time></trkpt><trkpt lat="45.42305553707865" lon="10.488693362910151"><ele>150.0</ele><time>2026-04-06T09:07:46Z</time></trkpt><trkpt lat="45.42314243735034" lon="10.4887607832697"><ele>150.6</ele><time>2026-04-06T09:07:48Z</time></trkpt><trkpt lat="45.42322643324818" lon="10.488826423109582"><ele>151.2</ele><time>2026-04-06T09:07:50Z</time></trkpt><trkpt lat="45.42331168537957" lon="10.488890662479136"><ele>151.8</ele><time>2026-04-06T09:07:52Z</time></trkpt><trkpt lat="45.423389907624056" lon="10.488952473487643"><ele>152.4</ele><time>2026-04-06T09:07:54Z</time></trkpt><trkpt lat="45.42346697656244" lon="10.489023806829941"><ele>153.0</ele><time>2026-04-06T09:07:56Z</time></trkpt><trkpt lat="45.42353528346373" lon="10.489072176735426"><ele>153.0</ele><time>2026-04-06T09:07:58Z</time></trkpt><trkpt lat="45.42361064039742" lon="10.489135588936076"><ele>153.0</ele><time>2026-04-06T09:08:00Z</time></trkpt><trkpt lat="45.42368225527269" lon="10.489192993801923"><ele>153.0</ele><time>2026-04-06T09:08:02Z</time></trkpt><trkpt lat="45.42374655140662" lon="10.489272008462864"><ele>153.0</ele><time>2026-04-06T09:08:04Z</time></trkpt><trkpt lat="45.42380644931898" lon="10.489337058115327"><ele>153.0</ele><time>2026-04-06T09:08:06Z</time></trkpt><trkpt lat="45.42386161731443" lon="10.48942582191235"><ele>153.0</ele><time>2026-04-06T09:08:08Z</time></trkpt><trkpt lat="45.4239242985486" lon="10.489500114070463"><ele>152.83333333333334</ele><time>2026-04-06T09:08:10Z</time></trkpt><trkpt lat="45.423990224484406" lon="10.489596434020418"><ele>152.66666666666666</ele><time>2026-04-06T09:08:12Z</time></trkpt><trkpt lat="45.424054366274184" lon="10.489676477962178"><ele>152.5</ele><time>2026-04-06T09:08:14Z</time></trkpt><trkpt lat="45.424114835265016" lon="10.489764126222235"><ele>152.33333333333331</ele><time>2026-04-06T09:08:16Z</time></trkpt><trkpt lat="45.42418476271361" lon="10.48986522114279"><ele>152.16666666666666</ele><time>2026-04-06T09:08:18Z</time></trkpt><trkpt lat="45.424249307901185" lon="10.489939300287574"><ele>152.0</ele><time>2026-04-06T09:08:20Z</time></trkpt><trkpt lat="45.42431606354066" lon="10.4900337528116"><ele>152.0</ele><time>2026-04-06T09:08:22Z</time></trkpt><trkpt lat="45.42437034627008" lon="10.490128492375252"><ele>152.0</ele><time>2026-04-06T09:08:24Z</time></trkpt><trkpt lat="45.424426015006276" lon="10.49021489270333"><ele>152.0</ele><time>2026-04-06T09:08:26Z</time></trkpt><trkpt lat="45.424495128432646" lon="10.490298728154201"><ele>152.0</ele><time>2026-04-06T09:08:28Z</time></trkpt><trkpt lat="45.42456543578606" lon="10.490384686894222"><ele>152.0</ele><time>2026-04-06T09:08:30Z</time></trkpt><trkpt lat="45.42463912916268" lon="10.490477042940553"><ele>152.83333333333331</ele><time>2026-04-06T09:08:32Z</time></trkpt><trkpt lat="45.42471030668724" lon="10.490564964118883"><ele>153.66666666666666</ele><time>2026-04-06T09:08:34Z</time></trkpt><trkpt lat="45.4247829006034" lon="10.490647714844856"><ele>154.5</ele><time>2026-04-06T09:08:36Z</time></trkpt><trkpt lat="45.4248589788619" lon="10.490725953496053"><ele>155.33333333333334</ele><time>2026-04-06T09:08:38Z</time></trkpt><trkpt lat="45.424924586260474" lon="10.490811435941545"><ele>156.16666666666669</ele><time>2026-04-06T09:08:40Z</time></trkpt><trkpt lat="45.42496006221863" lon="10.490907277064569"><ele>157.0</ele><time>2026-04-06T09:08:42Z</time></trkpt><trkpt lat="45.4249917320862" lon="10.490987879012895"><ele>157.0</ele><time>2026-04-06T09:08:44Z</time></trkpt><trkpt lat="45.425010020491115" lon="10.491092521740592"><ele>157.0</ele><time>2026-04-06T09:08:46Z</time></trkpt><trkpt lat="45.4250235253368" lon="10.49118539753366"><ele>157.0</ele><time>2026-04-06T09:08:48Z</time></trkpt><trkpt lat="45.42501724628047" lon="10.491300871023856"><ele>157.0</ele><time>2026-04-06T09:08:50Z</time></trkpt><trkpt lat="45.42502011915693" lon="10.491423885561872"><ele>157.0</ele><time>2026-04-06T09:08:53Z</time></trkpt><trkpt lat="45.42501930074212" lon="10.491525279741113"><ele>157.0</ele><time>2026-04-06T09:08:55Z</time></trkpt><trkpt lat="45.42500455403341" lon="10.491629209545051"><ele>156.33333333333334</ele><time>2026-04-06T09:08:57Z</time></trkpt><trkpt lat="45.425002016995656" lon="10.491741902807547"><ele>155.66666666666669</ele><time>2026-04-06T09:08:59Z</time></trkpt><trkpt lat="45.42500447169641" lon="10.491852293906337"><ele>155.0</ele><time>2026-04-06T09:09:01Z</time></trkpt><trkpt lat="45.42500655854523" lon="10.491981047651734"><ele>154.33333333333334</ele><time>2026-04-06T09:09:03Z</time></trkpt><trkpt lat="45.425011342731224" lon="10.492122873037006"><ele>153.66666666666666</ele><time>2026-04-06T09:09:05Z</time></trkpt><trkpt lat="45.42502643649284" lon="10.492255235156204"><ele>153.0</ele><time>2026-04-06T09:09:07Z</time></trkpt><trkpt lat="45.424998177384204" lon="10.49240249876028"><ele>152.0</ele><time>2026-04-06T09:09:09Z</time></trkpt><trkpt lat="45.42488108109099" lon="10.492424970237181"><ele>151.0</ele><time>2026-04-06T09:09:12Z</time></trkpt><trkpt lat="45.42480318830448" lon="10.492407425439755"><ele>150.0</ele><time>2026-04-06T09:09:14Z</time></trkpt><trkpt lat="45.4247282774965" lon="10.492349682003729"><ele>149.0</ele><time>2026-04-06T09:09:16Z</time></trkpt><trkpt lat="45.42463880764569" lon="10.492338366975503"><ele>148.0</ele><time>2026-04-06T09:09:18Z</time></trkpt><trkpt lat="45.42456372990408" lon="10.492372807736357"><ele>147.83333333333334</ele><time>2026-04-06T09:09:20Z</time></trkpt><trkpt lat="45.42448440710757" lon="10.492458351007658"><ele>147.66666666666669</ele><time>2026-04-06T09:09:22Z</time></trkpt><trkpt lat="45.424442394443744" lon="10.49261606946453"><ele>147.5</ele><time>2026-04-06T09:09:24Z</time></trkpt><trkpt lat="45.42440656588488" lon="10.49269495550093"><ele>147.33333333333334</ele><time>2026-04-06T09:09:25.001Z</time></trkpt><trkpt lat="45.42438399802926" lon="10.492789523837038"><ele>147.16666666666666</ele><time>2026-04-06T09:09:26.001Z</time></trkpt><trkpt lat="45.424372629728886" lon="10.49287938246982"><ele>147.0</ele><time>2026-04-06T09:09:27.001Z</time></trkpt><trkpt lat="45.42434021331606" lon="10.492972709259162"><ele>145.66666666666666</ele><time>2026-04-06T09:09:28.001Z</time></trkpt><trkpt lat="45.424315079732224" lon="10.493064807079751"><ele>144.33333333333334</ele><time>2026-04-06T09:09:29.001Z</time></trkpt><trkpt lat="45.42428830974745" lon="10.493154360833064"><ele>143.0</ele><time>2026-04-06T09:09:30Z</time></trkpt><trkpt lat="45.42426487808203" lon="10.493238337297335"><ele>141.66666666666669</ele><time>2026-04-06T09:09:31Z</time></trkpt><trkpt lat="45.424238266250924" lon="10.49332099526801"><ele>140.33333333333334</ele><time>2026-04-06T09:09:32Z</time></trkpt><trkpt lat="45.424197597988346" lon="10.493478608203874"><ele>139.0</ele><time>2026-04-06T09:09:34Z</time></trkpt><trkpt lat="45.42415316534974" lon="10.49362935702303"><ele>138.2</ele><time>2026-04-06T09:09:36Z</time></trkpt><trkpt lat="45.42411588824645" lon="10.493769760213455"><ele>137.4</ele><time>2026-04-06T09:09:38Z</time></trkpt><trkpt lat="45.424066245841246" lon="10.493902310349858"><ele>136.6</ele><time>2026-04-06T09:09:40Z</time></trkpt><trkpt lat="45.42404359991296" lon="10.494039641492945"><ele>135.8</ele><time>2026-04-06T09:09:42Z</time></trkpt><trkpt lat="45.424005974891074" lon="10.494172127553764"><ele>135.0</ele><time>2026-04-06T09:09:44Z</time></trkpt><trkpt lat="45.42396854239803" lon="10.494310191486969"><ele>135.0</ele><time>2026-04-06T09:09:46Z</time></trkpt><trkpt lat="45.42393195145249" lon="10.494453877833053"><ele>135.0</ele><time>2026-04-06T09:09:48Z</time></trkpt><trkpt lat="45.42389188009312" lon="10.494596920410215"><ele>135.0</ele><time>2026-04-06T09:09:50Z</time></trkpt><trkpt lat="45.423853851556935" lon="10.49473673944101"><ele>135.0</ele><time>2026-04-06T09:09:52Z</time></trkpt><trkpt lat="45.423819494012974" lon="10.49487301354913"><ele>135.0</ele><time>2026-04-06T09:09:54Z</time></trkpt><trkpt lat="45.42378736802357" lon="10.49500621090977"><ele>135.0</ele><time>2026-04-06T09:09:56Z</time></trkpt><trkpt lat="45.42375588145581" lon="10.495146010050002"><ele>135.0</ele><time>2026-04-06T09:09:58Z</time></trkpt><trkpt lat="45.423728952966826" lon="10.495261864287402"><ele>135.0</ele><time>2026-04-06T09:10:00Z</time></trkpt><trkpt lat="45.42368678794178" lon="10.495392230020261"><ele>135.0</ele><time>2026-04-06T09:10:02Z</time></trkpt><trkpt lat="45.42364912869981" lon="10.495533187744314"><ele>135.0</ele><time>2026-04-06T09:10:04Z</time></trkpt><trkpt lat="45.42356415176473" lon="10.495634204782515"><ele>135.8</ele><time>2026-04-06T09:10:06Z</time></trkpt><trkpt lat="45.42345862439895" lon="10.495639648535676"><ele>136.6</ele><time>2026-04-06T09:10:08Z</time></trkpt><trkpt lat="45.42336810859756" lon="10.495619924819662"><ele>137.4</ele><time>2026-04-06T09:10:10Z</time></trkpt><trkpt lat="45.42328498197366" lon="10.495598762016547"><ele>138.2</ele><time>2026-04-06T09:10:12Z</time></trkpt><trkpt lat="45.42319608846617" lon="10.49560531080752"><ele>139.0</ele><time>2026-04-06T09:10:14Z</time></trkpt><trkpt lat="45.423096739432495" lon="10.4955855568262"><ele>139.0</ele><time>2026-04-06T09:10:16Z</time></trkpt><trkpt lat="45.42300636609969" lon="10.49560789184594"><ele>139.0</ele><time>2026-04-06T09:10:18Z</time></trkpt><trkpt lat="45.42290492285702" lon="10.495541040054434"><ele>139.0</ele><time>2026-04-06T09:10:20Z</time></trkpt><trkpt lat="45.4227915667489" lon="10.495528694382823"><ele>139.0</ele><time>2026-04-06T09:10:22Z</time></trkpt><trkpt lat="45.422676752709606" lon="10.495527864330477"><ele>139.0</ele><time>2026-04-06T09:10:24Z</time></trkpt><trkpt lat="45.42258261484964" lon="10.495451482564283"><ele>138.6</ele><time>2026-04-06T09:10:26Z</time></trkpt><trkpt lat="45.422550649415975" lon="10.495372899873235"><ele>138.2</ele><time>2026-04-06T09:10:27Z</time></trkpt><trkpt lat="45.4225727422924" lon="10.495277258672711"><ele>137.79999999999998</ele><time>2026-04-06T09:10:28Z</time></trkpt><trkpt lat="45.42254544244811" lon="10.49510422052571"><ele>137.4</ele><time>2026-04-06T09:10:30Z</time></trkpt><trkpt lat="45.422512065560745" lon="10.494938163132813"><ele>137.0</ele><time>2026-04-06T09:10:32Z</time></trkpt><trkpt lat="45.42247173334801" lon="10.494856597532065"><ele>137.0</ele><time>2026-04-06T09:10:33Z</time></trkpt><trkpt lat="45.422368983253925" lon="10.494748936112005"><ele>137.0</ele><time>2026-04-06T09:10:35Z</time></trkpt><trkpt lat="45.42230543774068" lon="10.494709286775759"><ele>137.0</ele><time>2026-04-06T09:10:36Z</time></trkpt><trkpt lat="45.422239526326166" lon="10.494699060619581"><ele>137.0</ele><time>2026-04-06T09:10:37Z</time></trkpt><trkpt lat="45.422180831648475" lon="10.494662894850071"><ele>137.0</ele><time>2026-04-06T09:10:38Z</time></trkpt><trkpt lat="45.42206450601031" lon="10.494615105922698"><ele>137.0</ele><time>2026-04-06T09:10:40Z</time></trkpt><trkpt lat="45.42196811330582" lon="10.494606457282995"><ele>137.4</ele><time>2026-04-06T09:10:42Z</time></trkpt><trkpt lat="45.421867691825945" lon="10.494604029007832"><ele>137.79999999999998</ele><time>2026-04-06T09:10:44Z</time></trkpt><trkpt lat="45.42175974474741" lon="10.494581623011316"><ele>138.2</ele><time>2026-04-06T09:10:46Z</time></trkpt><trkpt lat="45.42164468197321" lon="10.494598328916537"><ele>138.6</ele><time>2026-04-06T09:10:48Z</time></trkpt><trkpt lat="45.42152823671028" lon="10.4945943649724"><ele>139.0</ele><time>2026-04-06T09:10:50Z</time></trkpt><trkpt lat="45.42140783722449" lon="10.494603321253804"><ele>138.0</ele><time>2026-04-06T09:10:52Z</time></trkpt><trkpt lat="45.42129232591302" lon="10.49464055585887"><ele>137.0</ele><time>2026-04-06T09:10:54Z</time></trkpt><trkpt lat="45.42118066331856" lon="10.494705434715737"><ele>136.0</ele><time>2026-04-06T09:10:56Z</time></trkpt><trkpt lat="45.42107209750923" lon="10.494771008731416"><ele>135.0</ele><time>2026-04-06T09:10:58Z</time></trkpt><trkpt lat="45.42094888077039" lon="10.494785207908697"><ele>135.0</ele><time>2026-04-06T09:11:00Z</time></trkpt><trkpt lat="45.420882407463615" lon="10.494780049064502"><ele>135.0</ele><time>2026-04-06T09:11:01Z</time></trkpt><trkpt lat="45.42076163509735" lon="10.494749570910356"><ele>135.0</ele><time>2026-04-06T09:11:03Z</time></trkpt><trkpt lat="45.420638468485116" lon="10.49474851950376"><ele>135.0</ele><time>2026-04-06T09:11:05Z</time></trkpt><trkpt lat="45.42057547592656" lon="10.494718989963971"><ele>135.0</ele><time>2026-04-06T09:11:06Z</time></trkpt><trkpt lat="45.42051181123705" lon="10.494710548320871"><ele>135.0</ele><time>2026-04-06T09:11:07Z</time></trkpt><trkpt lat="45.42044817002286" lon="10.494702109785925"><ele>134.5</ele><time>2026-04-06T09:11:08Z</time></trkpt><trkpt lat="45.42038340810731" lon="10.494693522656123"><ele>134.0</ele><time>2026-04-06T09:11:09Z</time></trkpt><trkpt lat="45.420259926306215" lon="10.494677149538962"><ele>133.5</ele><time>2026-04-06T09:11:11Z</time></trkpt><trkpt lat="45.42019218235729" lon="10.494690642860874"><ele>133.0</ele><time>2026-04-06T09:11:12Z</time></trkpt><trkpt lat="45.420076412742354" lon="10.494645476154377"><ele>132.5</ele><time>2026-04-06T09:11:14Z</time></trkpt><trkpt lat="45.42001222083649" lon="10.494628203473534"><ele>132.0</ele><time>2026-04-06T09:11:15Z</time></trkpt><trkpt lat="45.41988455190276" lon="10.494603434406969"><ele>132.0</ele><time>2026-04-06T09:11:17Z</time></trkpt><trkpt lat="45.41981860739245" lon="10.49456281149817"><ele>132.0</ele><time>2026-04-06T09:11:18Z</time></trkpt><trkpt lat="45.41975562339914" lon="10.494543866452197"><ele>132.0</ele><time>2026-04-06T09:11:19Z</time></trkpt><trkpt lat="45.41968915280192" lon="10.494548924899968"><ele>132.0</ele><time>2026-04-06T09:11:20Z</time></trkpt><trkpt lat="45.41961939096351" lon="10.49452718114222"><ele>132.0</ele><time>2026-04-06T09:11:21Z</time></trkpt><trkpt lat="45.41955627943241" lon="10.49451703040286"><ele>132.0</ele><time>2026-04-06T09:11:22Z</time></trkpt><trkpt lat="45.41948860623429" lon="10.494514265547243"><ele>132.0</ele><time>2026-04-06T09:11:23Z</time></trkpt><trkpt lat="45.41942538610902" lon="10.494496923627088"><ele>132.0</ele><time>2026-04-06T09:11:24Z</time></trkpt><trkpt lat="45.419363237967694" lon="10.494478248608049"><ele>132.0</ele><time>2026-04-06T09:11:25Z</time></trkpt><trkpt lat="45.419287397913365" lon="10.494353105658915"><ele>132.0</ele><time>2026-04-06T09:11:27Z</time></trkpt><trkpt lat="45.41926184170442" lon="10.49426352325378"><ele>132.0</ele><time>2026-04-06T09:11:28Z</time></trkpt><trkpt lat="45.41923107476647" lon="10.494185181744841"><ele>132.0</ele><time>2026-04-06T09:11:29Z</time></trkpt><trkpt lat="45.41918568695565" lon="10.494121651796675"><ele>132.0</ele><time>2026-04-06T09:11:30Z</time></trkpt><trkpt lat="45.419092843346604" lon="10.494011647578667"><ele>132.0</ele><time>2026-04-06T09:11:32Z</time></trkpt><trkpt lat="45.41902977515114" lon="10.493986620744698"><ele>132.0</ele><time>2026-04-06T09:11:33Z</time></trkpt><trkpt lat="45.418964104323756" lon="10.493976870653317"><ele>132.0</ele><time>2026-04-06T09:11:34Z</time></trkpt><trkpt lat="45.418848820883646" lon="10.493984542366887"><ele>132.0</ele><time>2026-04-06T09:11:36Z</time></trkpt><trkpt lat="45.41878456292295" lon="10.494017662930474"><ele>132.0</ele><time>2026-04-06T09:11:37Z</time></trkpt><trkpt lat="45.41866208967043" lon="10.49401639667005"><ele>132.0</ele><time>2026-04-06T09:11:39Z</time></trkpt><trkpt lat="45.418538193383874" lon="10.494023045647738"><ele>131.6</ele><time>2026-04-06T09:11:41Z</time></trkpt><trkpt lat="45.41847532895895" lon="10.494027836272117"><ele>131.2</ele><time>2026-04-06T09:11:42Z</time></trkpt><trkpt lat="45.41835147730806" lon="10.49404288301406"><ele>130.8</ele><time>2026-04-06T09:11:44Z</time></trkpt><trkpt lat="45.41823217821339" lon="10.494081983126158"><ele>130.4</ele><time>2026-04-06T09:11:46Z</time></trkpt><trkpt lat="45.41812120344588" lon="10.49413546867675"><ele>130.0</ele><time>2026-04-06T09:11:48Z</time></trkpt><trkpt lat="45.41800888659253" lon="10.494209192626842"><ele>129.66666666666669</ele><time>2026-04-06T09:11:50Z</time></trkpt><trkpt lat="45.41795333663347" lon="10.494255155405265"><ele>129.33333333333334</ele><time>2026-04-06T09:11:51Z</time></trkpt><trkpt lat="45.417900520621394" lon="10.49430465980773"><ele>129.0</ele><time>2026-04-06T09:11:52Z</time></trkpt><trkpt lat="45.41784613710406" lon="10.494355755915647"><ele>128.66666666666666</ele><time>2026-04-06T09:11:53Z</time></trkpt><trkpt lat="45.41777063362413" lon="10.49447214593677"><ele>128.33333333333331</ele><time>2026-04-06T09:11:55Z</time></trkpt><trkpt lat="45.41773873047821" lon="10.494617704092374"><ele>128.0</ele><time>2026-04-06T09:11:57Z</time></trkpt><trkpt lat="45.41771302299331" lon="10.494767594772963"><ele>128.0</ele><time>2026-04-06T09:11:59Z</time></trkpt><trkpt lat="45.417663040930556" lon="10.494907286171712"><ele>128.0</ele><time>2026-04-06T09:12:01Z</time></trkpt><trkpt lat="45.4175587933074" lon="10.494995093069395"><ele>128.0</ele><time>2026-04-06T09:12:03Z</time></trkpt><trkpt lat="45.41743679593742" lon="10.49503581106298"><ele>128.0</ele><time>2026-04-06T09:12:05Z</time></trkpt><trkpt lat="45.41738068503985" lon="10.494978177443233"><ele>128.0</ele><time>2026-04-06T09:12:06Z</time></trkpt><trkpt lat="45.417316590276904" lon="10.49496394898599"><ele>128.0</ele><time>2026-04-06T09:12:07Z</time></trkpt><trkpt lat="45.41719765123431" lon="10.49490404803142"><ele>128.0</ele><time>2026-04-06T09:12:09Z</time></trkpt><trkpt lat="45.4170840604998" lon="10.494859930390867"><ele>128.0</ele><time>2026-04-06T09:12:11Z</time></trkpt><trkpt lat="45.416966599309404" lon="10.494832090934628"><ele>128.0</ele><time>2026-04-06T09:12:13Z</time></trkpt><trkpt lat="45.41684393075654" lon="10.494791380382452"><ele>127.4</ele><time>2026-04-06T09:12:15Z</time></trkpt><trkpt lat="45.416729591993146" lon="10.49474293837491"><ele>126.80000000000001</ele><time>2026-04-06T09:12:17Z</time></trkpt><trkpt lat="45.41666661753761" lon="10.494742710249518"><ele>126.2</ele><time>2026-04-06T09:12:18Z</time></trkpt><trkpt lat="45.41655317453419" lon="10.494718484554578"><ele>125.6</ele><time>2026-04-06T09:12:20Z</time></trkpt><trkpt lat="45.41645338855492" lon="10.494691827158455"><ele>125.0</ele><time>2026-04-06T09:12:22Z</time></trkpt><trkpt lat="45.41636885962616" lon="10.494735417549949"><ele>125.0</ele><time>2026-04-06T09:12:24Z</time></trkpt><trkpt lat="45.41638217783326" lon="10.49489906754263"><ele>125.0</ele><time>2026-04-06T09:12:27Z</time></trkpt><trkpt lat="45.41644255399472" lon="10.494996683908433"><ele>125.0</ele><time>2026-04-06T09:12:29Z</time></trkpt><trkpt lat="45.41649867598498" lon="10.49509031547872"><ele>125.0</ele><time>2026-04-06T09:12:31Z</time></trkpt><trkpt lat="45.41655175718539" lon="10.495196301992342"><ele>125.0</ele><time>2026-04-06T09:12:33Z</time></trkpt><trkpt lat="45.416606194585306" lon="10.495312834714364"><ele>125.2</ele><time>2026-04-06T09:12:35Z</time></trkpt><trkpt lat="45.41666065572016" lon="10.495431170054347"><ele>125.4</ele><time>2026-04-06T09:12:37Z</time></trkpt><trkpt lat="45.41671413424317" lon="10.495554134368573"><ele>125.6</ele><time>2026-04-06T09:12:39Z</time></trkpt><trkpt lat="45.41675294918828" lon="10.49568411819335"><ele>125.8</ele><time>2026-04-06T09:12:41Z</time></trkpt><trkpt lat="45.416754123875336" lon="10.495793794074473"><ele>126.0</ele><time>2026-04-06T09:12:43Z</time></trkpt><trkpt lat="45.416658210655875" lon="10.495861509012274"><ele>126.0</ele><time>2026-04-06T09:12:44Z</time></trkpt><trkpt lat="45.4165789732196" lon="10.49593735286815"><ele>126.0</ele><time>2026-04-06T09:12:46Z</time></trkpt><trkpt lat="45.416502704111394" lon="10.495997348438117"><ele>126.0</ele><time>2026-04-06T09:12:48Z</time></trkpt><trkpt lat="45.41641402108539" lon="10.496032407708482"><ele>126.0</ele><time>2026-04-06T09:12:50Z</time></trkpt><trkpt lat="45.41635569810657" lon="10.4959954591935"><ele>126.0</ele><time>2026-04-06T09:12:51Z</time></trkpt><trkpt lat="45.41631092193358" lon="10.49592426890692"><ele>126.0</ele><time>2026-04-06T09:12:52Z</time></trkpt><trkpt lat="45.41627536039861" lon="10.495847239020835"><ele>126.0</ele><time>2026-04-06T09:12:53Z</time></trkpt><trkpt lat="45.41620915911713" lon="10.495697172477543"><ele>126.0</ele><time>2026-04-06T09:12:55Z</time></trkpt><trkpt lat="45.41616799282391" lon="10.495623964479025"><ele>126.0</ele><time>2026-04-06T09:12:56Z</time></trkpt><trkpt lat="45.416082359892656" lon="10.49548495227359"><ele>126.0</ele><time>2026-04-06T09:12:58Z</time></trkpt><trkpt lat="45.41599616238579" lon="10.495358684550652"><ele>126.0</ele><time>2026-04-06T09:13:00Z</time></trkpt><trkpt lat="45.41591036377355" lon="10.495224830685508"><ele>126.0</ele><time>2026-04-06T09:13:02Z</time></trkpt><trkpt lat="45.41581042054292" lon="10.49516755514467"><ele>126.0</ele><time>2026-04-06T09:13:04Z</time></trkpt><trkpt lat="45.41573934357123" lon="10.495276590648489"><ele>126.0</ele><time>2026-04-06T09:13:06Z</time></trkpt><trkpt lat="45.415751496119476" lon="10.495436831332471"><ele>126.0</ele><time>2026-04-06T09:13:08Z</time></trkpt><trkpt lat="45.41576102124782" lon="10.495594031917864"><ele>126.0</ele><time>2026-04-06T09:13:10Z</time></trkpt><trkpt lat="45.41578709994098" lon="10.495753573592141"><ele>126.0</ele><time>2026-04-06T09:13:12Z</time></trkpt><trkpt lat="45.41580565439749" lon="10.495916257308322"><ele>126.0</ele><time>2026-04-06T09:13:14Z</time></trkpt><trkpt lat="45.41582999197651" lon="10.496079753633405"><ele>126.0</ele><time>2026-04-06T09:13:16Z</time></trkpt><trkpt lat="45.41584688743775" lon="10.496228959248375"><ele>126.0</ele><time>2026-04-06T09:13:18Z</time></trkpt><trkpt lat="45.41587446382949" lon="10.496375415926092"><ele>126.0</ele><time>2026-04-06T09:13:20Z</time></trkpt><trkpt lat="45.41591554629276" lon="10.496519984764584"><ele>126.0</ele><time>2026-04-06T09:13:22Z</time></trkpt><trkpt lat="45.41593220789661" lon="10.496650766446997"><ele>126.0</ele><time>2026-04-06T09:13:24Z</time></trkpt><trkpt lat="45.415845816957" lon="10.496717868624572"><ele>126.0</ele><time>2026-04-06T09:13:26Z</time></trkpt><trkpt lat="45.415745095234335" lon="10.496705695760228"><ele>126.0</ele><time>2026-04-06T09:13:28Z</time></trkpt><trkpt lat="45.415643324351564" lon="10.496702987050801"><ele>126.0</ele><time>2026-04-06T09:13:30Z</time></trkpt><trkpt lat="45.41554174467793" lon="10.496708954603742"><ele>126.4</ele><time>2026-04-06T09:13:32Z</time></trkpt><trkpt lat="45.41543548519543" lon="10.496713150202687"><ele>126.8</ele><time>2026-04-06T09:13:34Z</time></trkpt><trkpt lat="45.41533198686032" lon="10.496723102107866"><ele>127.20000000000002</ele><time>2026-04-06T09:13:36Z</time></trkpt><trkpt lat="45.41524548421735" lon="10.496720308215158"><ele>127.60000000000001</ele><time>2026-04-06T09:13:38Z</time></trkpt><trkpt lat="45.415154392511226" lon="10.496721214374368"><ele>128.0</ele><time>2026-04-06T09:13:40Z</time></trkpt><trkpt lat="45.41507006342056" lon="10.496731081106201"><ele>127.99999999999999</ele><time>2026-04-06T09:13:42Z</time></trkpt><trkpt lat="45.41498466796398" lon="10.496756598221396"><ele>128.0</ele><time>2026-04-06T09:13:44Z</time></trkpt><trkpt lat="45.41492046325174" lon="10.49673301437873"><ele>128.0</ele><time>2026-04-06T09:13:48Z</time></trkpt><trkpt lat="45.414899153297945" lon="10.496617625737187"><ele>128.0</ele><time>2026-04-06T09:13:51Z</time></trkpt><trkpt lat="45.414909401586215" lon="10.496492310508335"><ele>127.99999999999999</ele><time>2026-04-06T09:13:54Z</time></trkpt><trkpt lat="45.414897527271286" lon="10.496348027061149"><ele>128.0</ele><time>2026-04-06T09:13:57Z</time></trkpt><trkpt lat="45.414892515531626" lon="10.496219582318966"><ele>127.80000000000001</ele><time>2026-04-06T09:13:59Z</time></trkpt><trkpt lat="45.414889352165794" lon="10.496086681917856"><ele>127.60000000000001</ele><time>2026-04-06T09:14:01Z</time></trkpt><trkpt lat="45.414883728004945" lon="10.495945274860143"><ele>127.39999999999999</ele><time>2026-04-06T09:14:03Z</time></trkpt><trkpt lat="45.41488159084047" lon="10.49581657160501"><ele>127.19999999999999</ele><time>2026-04-06T09:14:05Z</time></trkpt><trkpt lat="45.41487274608346" lon="10.495687843500901"><ele>127.0</ele><time>2026-04-06T09:14:07Z</time></trkpt><trkpt lat="45.414865122899556" lon="10.49556546019531"><ele>127.00000000000001</ele><time>2026-04-06T09:14:09Z</time></trkpt><trkpt lat="45.414827598117974" lon="10.495454920049971"><ele>127.0</ele><time>2026-04-06T09:14:11Z</time></trkpt><trkpt lat="45.414810433357445" lon="10.495330040344161"><ele>127.0</ele><time>2026-04-06T09:14:13Z</time></trkpt><trkpt lat="45.41479015052318" lon="10.49520929598621"><ele>127.0</ele><time>2026-04-06T09:14:15Z</time></trkpt><trkpt lat="45.41476282653489" lon="10.495097748748238"><ele>127.00000000000001</ele><time>2026-04-06T09:14:17Z</time></trkpt><trkpt lat="45.4147190331066" lon="10.49499812620923"><ele>127.0</ele><time>2026-04-06T09:14:19Z</time></trkpt><trkpt lat="45.41470213409201" lon="10.494897302052424"><ele>127.0</ele><time>2026-04-06T09:14:21Z</time></trkpt><trkpt lat="45.41471867887518" lon="10.494795057746181"><ele>127.0</ele><time>2026-04-06T09:14:23Z</time></trkpt><trkpt lat="45.41475219228619" lon="10.494702149486006"><ele>127.0</ele><time>2026-04-06T09:14:25Z</time></trkpt><trkpt lat="45.41477401180625" lon="10.49461449259405"><ele>127.0</ele><time>2026-04-06T09:14:27Z</time></trkpt><trkpt lat="45.4148161190967" lon="10.49450884001925"><ele>127.0</ele><time>2026-04-06T09:14:30Z</time></trkpt><trkpt lat="45.414850602706515" lon="10.49442742642461"><ele>127.0</ele><time>2026-04-06T09:14:32Z</time></trkpt><trkpt lat="45.414889965678775" lon="10.4943310004153"><ele>127.0</ele><time>2026-04-06T09:14:35Z</time></trkpt><trkpt lat="45.41489755885961" lon="10.49423650395238"><ele>126.8</ele><time>2026-04-06T09:14:37Z</time></trkpt><trkpt lat="45.41482645128436" lon="10.494157153391201"><ele>126.6</ele><time>2026-04-06T09:14:39Z</time></trkpt><trkpt lat="45.41472808987975" lon="10.494173794043302"><ele>126.39999999999999</ele><time>2026-04-06T09:14:41Z</time></trkpt><trkpt lat="45.41463490692913" lon="10.494176680514691"><ele>126.19999999999999</ele><time>2026-04-06T09:14:43Z</time></trkpt><trkpt lat="45.414534920171654" lon="10.494180126471877"><ele>126.0</ele><time>2026-04-06T09:14:45Z</time></trkpt><trkpt lat="45.41442448753253" lon="10.494181056536242"><ele>126.0</ele><time>2026-04-06T09:14:47Z</time></trkpt><trkpt lat="45.414308065028436" lon="10.494190057165929"><ele>126.0</ele><time>2026-04-06T09:14:49Z</time></trkpt><trkpt lat="45.41419678863417" lon="10.494198511499068"><ele>126.0</ele><time>2026-04-06T09:14:51Z</time></trkpt><trkpt lat="45.41408224064836" lon="10.49419846415065"><ele>126.0</ele><time>2026-04-06T09:14:53Z</time></trkpt><trkpt lat="45.413964995553535" lon="10.494206127778002"><ele>126.0</ele><time>2026-04-06T09:14:55Z</time></trkpt><trkpt lat="45.41385288863324" lon="10.494219476261403"><ele>126.0</ele><time>2026-04-06T09:14:57Z</time></trkpt><trkpt lat="45.41374919260871" lon="10.494227813224263"><ele>126.0</ele><time>2026-04-06T09:14:59Z</time></trkpt><trkpt lat="45.413639993454446" lon="10.494232921758215"><ele>126.0</ele><time>2026-04-06T09:15:01Z</time></trkpt><trkpt lat="45.41355081504455" lon="10.494240557029576"><ele>126.0</ele><time>2026-04-06T09:15:03Z</time></trkpt><trkpt lat="45.413461891719436" lon="10.494227474029096"><ele>125.8</ele><time>2026-04-06T09:15:05Z</time></trkpt><trkpt lat="45.41337719408335" lon="10.494221520405484"><ele>125.6</ele><time>2026-04-06T09:15:07Z</time></trkpt><trkpt lat="45.41328362638071" lon="10.494225913973393"><ele>125.4</ele><time>2026-04-06T09:15:09Z</time></trkpt><trkpt lat="45.41318355597563" lon="10.49422330777749"><ele>125.2</ele><time>2026-04-06T09:15:11Z</time></trkpt><trkpt lat="45.413086692757105" lon="10.494222704137913"><ele>125.0</ele><time>2026-04-06T09:15:13Z</time></trkpt><trkpt lat="45.41299509783674" lon="10.4942223420197"><ele>125.49999999999999</ele><time>2026-04-06T09:15:15Z</time></trkpt><trkpt lat="45.412914542616065" lon="10.494234175863346"><ele>126.0</ele><time>2026-04-06T09:15:17Z</time></trkpt><trkpt lat="45.412840455874225" lon="10.494238915656002"><ele>126.5</ele><time>2026-04-06T09:15:19Z</time></trkpt><trkpt lat="45.412767998610505" lon="10.494282923475636"><ele>127.0</ele><time>2026-04-06T09:15:21Z</time></trkpt><trkpt lat="45.41270793590768" lon="10.494348630253333"><ele>127.49999999999999</ele><time>2026-04-06T09:15:23Z</time></trkpt><trkpt lat="45.41264095782701" lon="10.494414676817259"><ele>128.0</ele><time>2026-04-06T09:15:25Z</time></trkpt><trkpt lat="45.41257792300978" lon="10.49447506579574"><ele>127.99999999999999</ele><time>2026-04-06T09:15:27Z</time></trkpt><trkpt lat="45.41251623749885" lon="10.494532375751374"><ele>128.0</ele><time>2026-04-06T09:15:29Z</time></trkpt><trkpt lat="45.41245562641327" lon="10.494608815856775"><ele>128.0</ele><time>2026-04-06T09:15:31Z</time></trkpt><trkpt lat="45.41240161738891" lon="10.494681035394963"><ele>128.0</ele><time>2026-04-06T09:15:33Z</time></trkpt><trkpt lat="45.41236611585629" lon="10.4947724452408"><ele>127.99999999999999</ele><time>2026-04-06T09:15:35Z</time></trkpt><trkpt lat="45.412355589697576" lon="10.49487106628054"><ele>128.0</ele><time>2026-04-06T09:15:37Z</time></trkpt><trkpt lat="45.41235372858738" lon="10.494989210287526"><ele>128.6</ele><time>2026-04-06T09:15:39Z</time></trkpt><trkpt lat="45.412361593389676" lon="10.495104397488662"><ele>129.20000000000002</ele><time>2026-04-06T09:15:41Z</time></trkpt><trkpt lat="45.41233678419728" lon="10.495228791378086"><ele>129.8</ele><time>2026-04-06T09:15:43Z</time></trkpt><trkpt lat="45.41227145667495" lon="10.495341152719806"><ele>130.4</ele><time>2026-04-06T09:15:45Z</time></trkpt><trkpt lat="45.41221312483109" lon="10.495452536184267"><ele>131.0</ele><time>2026-04-06T09:15:47Z</time></trkpt><trkpt lat="45.412149843512374" lon="10.495557958419079"><ele>131.16666666666666</ele><time>2026-04-06T09:15:49Z</time></trkpt><trkpt lat="45.412092653756176" lon="10.495662426698685"><ele>131.33333333333331</ele><time>2026-04-06T09:15:51Z</time></trkpt><trkpt lat="45.41202945766182" lon="10.495759023413495"><ele>131.5</ele><time>2026-04-06T09:15:53Z</time></trkpt><trkpt lat="45.411976459757355" lon="10.495850748244415"><ele>131.66666666666666</ele><time>2026-04-06T09:15:55Z</time></trkpt><trkpt lat="45.41192050792347" lon="10.495945156036475"><ele>131.83333333333334</ele><time>2026-04-06T09:15:57Z</time></trkpt><trkpt lat="45.41187075354134" lon="10.4960196193718"><ele>132.0</ele><time>2026-04-06T09:15:59Z</time></trkpt><trkpt lat="45.41181918292068" lon="10.49610834572249"><ele>132.0</ele><time>2026-04-06T09:16:01Z</time></trkpt><trkpt lat="45.41176453397953" lon="10.49618309744864"><ele>132.0</ele><time>2026-04-06T09:16:03Z</time></trkpt><trkpt lat="45.411706425637995" lon="10.496268406019965"><ele>132.0</ele><time>2026-04-06T09:16:05Z</time></trkpt><trkpt lat="45.41165373753813" lon="10.496330020863262"><ele>132.0</ele><time>2026-04-06T09:16:07Z</time></trkpt><trkpt lat="45.41160006455236" lon="10.49640472245428"><ele>132.0</ele><time>2026-04-06T09:16:09Z</time></trkpt><trkpt lat="45.41154583536374" lon="10.496479001126099"><ele>132.0</ele><time>2026-04-06T09:16:11Z</time></trkpt><trkpt lat="45.41148505054932" lon="10.496553103327237"><ele>132.71428571428572</ele><time>2026-04-06T09:16:13Z</time></trkpt><trkpt lat="45.41142984574173" lon="10.496623639806726"><ele>133.42857142857144</ele><time>2026-04-06T09:16:15Z</time></trkpt><trkpt lat="45.411378266327894" lon="10.496703247040884"><ele>134.14285714285717</ele><time>2026-04-06T09:16:17Z</time></trkpt><trkpt lat="45.411324821674576" lon="10.496775011563786"><ele>134.85714285714286</ele><time>2026-04-06T09:16:19Z</time></trkpt><trkpt lat="45.41127772200652" lon="10.496848006673055"><ele>135.57142857142858</ele><time>2026-04-06T09:16:21Z</time></trkpt><trkpt lat="45.41122372799705" lon="10.496924272510812"><ele>136.2857142857143</ele><time>2026-04-06T09:16:23Z</time></trkpt><trkpt lat="45.41116723149149" lon="10.497003234470982"><ele>137.0</ele><time>2026-04-06T09:16:25Z</time></trkpt><trkpt lat="45.41111995837671" lon="10.497086370026594"><ele>137.85714285714286</ele><time>2026-04-06T09:16:27Z</time></trkpt><trkpt lat="45.41107125889527" lon="10.497161229636536"><ele>138.71428571428572</ele><time>2026-04-06T09:16:29Z</time></trkpt><trkpt lat="45.411017081981136" lon="10.497228563873536"><ele>139.57142857142856</ele><time>2026-04-06T09:16:31Z</time></trkpt><trkpt lat="45.41095510117741" lon="10.4972873218862"><ele>140.42857142857144</ele><time>2026-04-06T09:16:33Z</time></trkpt><trkpt lat="45.410900357907586" lon="10.497334292702751"><ele>141.28571428571428</ele><time>2026-04-06T09:16:35Z</time></trkpt><trkpt lat="45.41084262821323" lon="10.497375953135347"><ele>142.14285714285714</ele><time>2026-04-06T09:16:37Z</time></trkpt><trkpt lat="45.41080219914027" lon="10.49744716084507"><ele>143.0</ele><time>2026-04-06T09:16:40Z</time></trkpt><trkpt lat="45.41079794266921" lon="10.497557980879424"><ele>143.0</ele><time>2026-04-06T09:16:44Z</time></trkpt><trkpt lat="45.41081766414259" lon="10.497643430972854"><ele>143.0</ele><time>2026-04-06T09:16:46Z</time></trkpt><trkpt lat="45.410843800004095" lon="10.497747337223133"><ele>143.0</ele><time>2026-04-06T09:16:48Z</time></trkpt><trkpt lat="45.41083798232657" lon="10.497857209717077"><ele>143.0</ele><time>2026-04-06T09:16:50Z</time></trkpt><trkpt lat="45.410781682325094" lon="10.49792166185694"><ele>143.0</ele><time>2026-04-06T09:16:52Z</time></trkpt><trkpt lat="45.41070347338553" lon="10.497970250693935"><ele>143.0</ele><time>2026-04-06T09:16:55Z</time></trkpt><trkpt lat="45.41063659487831" lon="10.498020094173572"><ele>142.99999999999997</ele><time>2026-04-06T09:16:58Z</time></trkpt><trkpt lat="45.410576036492195" lon="10.498044737154773"><ele>143.0</ele><time>2026-04-06T09:17:00Z</time></trkpt><trkpt lat="45.41048714461008" lon="10.498083136364913"><ele>143.0</ele><time>2026-04-06T09:17:03Z</time></trkpt><trkpt lat="45.41042241430251" lon="10.498125265445472"><ele>143.0</ele><time>2026-04-06T09:17:05Z</time></trkpt><trkpt lat="45.41036591908006" lon="10.498165639885649"><ele>143.0</ele><time>2026-04-06T09:17:07Z</time></trkpt><trkpt lat="45.41030580841353" lon="10.498205961432912"><ele>142.99999999999997</ele><time>2026-04-06T09:17:09Z</time></trkpt><trkpt lat="45.410243155072635" lon="10.498248810345467"><ele>143.0</ele><time>2026-04-06T09:17:11Z</time></trkpt><trkpt lat="45.41018488091341" lon="10.498291104590496"><ele>142.66666666666666</ele><time>2026-04-06T09:17:13Z</time></trkpt><trkpt lat="45.41010383014112" lon="10.498341751201846"><ele>142.33333333333331</ele><time>2026-04-06T09:17:16Z</time></trkpt><trkpt lat="45.41001638854859" lon="10.498392688604632"><ele>142.0</ele><time>2026-04-06T09:17:19Z</time></trkpt><trkpt lat="45.409945562450645" lon="10.498438124324215"><ele>141.66666666666666</ele><time>2026-04-06T09:17:21Z</time></trkpt><trkpt lat="45.40987754695008" lon="10.498483563401065"><ele>141.33333333333334</ele><time>2026-04-06T09:17:23Z</time></trkpt><trkpt lat="45.4097890729666" lon="10.498488328537729"><ele>141.0</ele><time>2026-04-06T09:17:26Z</time></trkpt><trkpt lat="45.40973301659404" lon="10.49842538180068"><ele>141.0</ele><time>2026-04-06T09:17:28Z</time></trkpt><trkpt lat="45.409674933172006" lon="10.498311517396582"><ele>141.0</ele><time>2026-04-06T09:17:30Z</time></trkpt><trkpt lat="45.40957528419982" lon="10.49825972718779"><ele>141.0</ele><time>2026-04-06T09:17:32Z</time></trkpt><trkpt lat="45.40946715670813" lon="10.49835010231604"><ele>141.0</ele><time>2026-04-06T09:17:34Z</time></trkpt><trkpt lat="45.40939471728175" lon="10.498478680969479"><ele>141.0</ele><time>2026-04-06T09:17:36Z</time></trkpt><trkpt lat="45.40931533756025" lon="10.498601114391056"><ele>140.5</ele><time>2026-04-06T09:17:38Z</time></trkpt><trkpt lat="45.40922514236551" lon="10.498706664982349"><ele>140.0</ele><time>2026-04-06T09:17:40Z</time></trkpt><trkpt lat="45.40910443706451" lon="10.498715404842802"><ele>139.5</ele><time>2026-04-06T09:17:42Z</time></trkpt><trkpt lat="45.409044763045586" lon="10.498672138497819"><ele>139.0</ele><time>2026-04-06T09:17:43Z</time></trkpt><trkpt lat="45.40902646412721" lon="10.498571058265979"><ele>138.5</ele><time>2026-04-06T09:17:44Z</time></trkpt><trkpt lat="45.40899042966972" lon="10.498492347918907"><ele>138.0</ele><time>2026-04-06T09:17:45Z</time></trkpt><trkpt lat="45.408939654431485" lon="10.498433607327287"><ele>138.0</ele><time>2026-04-06T09:17:46Z</time></trkpt><trkpt lat="45.408880657186806" lon="10.498288148569141"><ele>138.0</ele><time>2026-04-06T09:17:48Z</time></trkpt><trkpt lat="45.408765401244175" lon="10.498361248921068"><ele>138.0</ele><time>2026-04-06T09:17:49Z</time></trkpt><trkpt lat="45.4087098887116" lon="10.498414545378191"><ele>138.0</ele><time>2026-04-06T09:17:50Z</time></trkpt><trkpt lat="45.408624615404506" lon="10.498443248223884"><ele>138.0</ele><time>2026-04-06T09:17:52Z</time></trkpt><trkpt lat="45.40854446892949" lon="10.498488756100125"><ele>138.5</ele><time>2026-04-06T09:17:54Z</time></trkpt><trkpt lat="45.408515166401564" lon="10.49875463449452"><ele>139.0</ele><time>2026-04-06T09:17:56Z</time></trkpt><trkpt lat="45.408447250569296" lon="10.498862394756562"><ele>139.5</ele><time>2026-04-06T09:17:58Z</time></trkpt><trkpt lat="45.40838227864226" lon="10.498977103664707"><ele>140.0</ele><time>2026-04-06T09:18:00Z</time></trkpt><trkpt lat="45.40830823926535" lon="10.49908988036975"><ele>140.0</ele><time>2026-04-06T09:18:02Z</time></trkpt><trkpt lat="45.40823761678512" lon="10.499181003265997"><ele>140.0</ele><time>2026-04-06T09:18:04Z</time></trkpt><trkpt lat="45.40816956572026" lon="10.499287001192133"><ele>140.0</ele><time>2026-04-06T09:18:06Z</time></trkpt><trkpt lat="45.40811004686029" lon="10.499406579355277"><ele>140.0</ele><time>2026-04-06T09:18:08Z</time></trkpt><trkpt lat="45.40803542777416" lon="10.499500183728918"><ele>140.0</ele><time>2026-04-06T09:18:10Z</time></trkpt><trkpt lat="45.407978072520635" lon="10.499608289603874"><ele>140.66666666666666</ele><time>2026-04-06T09:18:12Z</time></trkpt><trkpt lat="45.40792225394784" lon="10.499690904332867"><ele>141.33333333333331</ele><time>2026-04-06T09:18:14Z</time></trkpt><trkpt lat="45.40786427067362" lon="10.499777845948554"><ele>142.0</ele><time>2026-04-06T09:18:16Z</time></trkpt><trkpt lat="45.40781864561106" lon="10.499875642602886"><ele>142.66666666666666</ele><time>2026-04-06T09:18:18Z</time></trkpt><trkpt lat="45.4077690809033" lon="10.4999537047785"><ele>143.33333333333334</ele><time>2026-04-06T09:18:20Z</time></trkpt><trkpt lat="45.407715723849414" lon="10.500041436663775"><ele>144.0</ele><time>2026-04-06T09:18:22Z</time></trkpt><trkpt lat="45.407654283688004" lon="10.500131890670131"><ele>144.0</ele><time>2026-04-06T09:18:24Z</time></trkpt><trkpt lat="45.407595755227696" lon="10.500205911006631"><ele>144.0</ele><time>2026-04-06T09:18:26Z</time></trkpt><trkpt lat="45.40752864845204" lon="10.500272119269665"><ele>144.0</ele><time>2026-04-06T09:18:28Z</time></trkpt><trkpt lat="45.4074455139076" lon="10.500327335162764"><ele>144.0</ele><time>2026-04-06T09:18:30Z</time></trkpt><trkpt lat="45.40735036823994" lon="10.500378227707722"><ele>144.0</ele><time>2026-04-06T09:18:32Z</time></trkpt><trkpt lat="45.40724486801355" lon="10.50040923829526"><ele>143.8</ele><time>2026-04-06T09:18:34Z</time></trkpt><trkpt lat="45.40714293040143" lon="10.5004560637724"><ele>143.60000000000002</ele><time>2026-04-06T09:18:36Z</time></trkpt><trkpt lat="45.40703982409527" lon="10.500511532148378"><ele>143.4</ele><time>2026-04-06T09:18:38Z</time></trkpt><trkpt lat="45.406939601887515" lon="10.500571097593678"><ele>143.20000000000002</ele><time>2026-04-06T09:18:40Z</time></trkpt><trkpt lat="45.40684120441045" lon="10.500647558859749"><ele>143.0</ele><time>2026-04-06T09:18:42Z</time></trkpt><trkpt lat="45.40676592749792" lon="10.500777207694123"><ele>143.0</ele><time>2026-04-06T09:18:44Z</time></trkpt><trkpt lat="45.406731085954654" lon="10.500858072792342"><ele>143.0</ele><time>2026-04-06T09:18:45Z</time></trkpt><trkpt lat="45.406693652794885" lon="10.501031300137672"><ele>143.0</ele><time>2026-04-06T09:18:47Z</time></trkpt><trkpt lat="45.406673358618086" lon="10.50112395414938"><ele>143.0</ele><time>2026-04-06T09:18:48Z</time></trkpt><trkpt lat="45.40664413100869" lon="10.501213825634164"><ele>143.0</ele><time>2026-04-06T09:18:49Z</time></trkpt><trkpt lat="45.406617870164126" lon="10.501297982537386"><ele>143.0</ele><time>2026-04-06T09:18:50Z</time></trkpt><trkpt lat="45.40657277227459" lon="10.501453423704255"><ele>142.8</ele><time>2026-04-06T09:18:52Z</time></trkpt><trkpt lat="45.40653211634199" lon="10.501594096765956"><ele>142.60000000000002</ele><time>2026-04-06T09:18:54Z</time></trkpt><trkpt lat="45.406521723251714" lon="10.50173549248065"><ele>142.39999999999998</ele><time>2026-04-06T09:18:56Z</time></trkpt><trkpt lat="45.40658214227995" lon="10.501866728248501"><ele>142.2</ele><time>2026-04-06T09:18:58Z</time></trkpt><trkpt lat="45.406678578347666" lon="10.501939450869308"><ele>142.0</ele><time>2026-04-06T09:19:00Z</time></trkpt><trkpt lat="45.406762145276566" lon="10.502031318902745"><ele>142.4</ele><time>2026-04-06T09:19:02Z</time></trkpt><trkpt lat="45.406849526211914" lon="10.50213036223368"><ele>142.79999999999998</ele><time>2026-04-06T09:19:04Z</time></trkpt><trkpt lat="45.406937098293824" lon="10.50222640933413"><ele>143.2</ele><time>2026-04-06T09:19:06Z</time></trkpt><trkpt lat="45.407023682714275" lon="10.502329026136849"><ele>143.6</ele><time>2026-04-06T09:19:08Z</time></trkpt><trkpt lat="45.40712131146075" lon="10.502346268680286"><ele>144.0</ele><time>2026-04-06T09:19:10Z</time></trkpt><trkpt lat="45.4072075450911" lon="10.502278801698676"><ele>144.0</ele><time>2026-04-06T09:19:12Z</time></trkpt><trkpt lat="45.40728461922529" lon="10.50224240073654"><ele>144.0</ele><time>2026-04-06T09:19:14Z</time></trkpt><trkpt lat="45.40736585574974" lon="10.50221802589187"><ele>144.0</ele><time>2026-04-06T09:19:16Z</time></trkpt><trkpt lat="45.407440381789044" lon="10.50222222232667"><ele>144.0</ele><time>2026-04-06T09:19:18Z</time></trkpt><trkpt lat="45.40751909837162" lon="10.502241035472393"><ele>144.0</ele><time>2026-04-06T09:19:20Z</time></trkpt><trkpt lat="45.40760836450168" lon="10.502274954293755"><ele>144.0</ele><time>2026-04-06T09:19:22Z</time></trkpt><trkpt lat="45.40770359096709" lon="10.502312493488741"><ele>144.0</ele><time>2026-04-06T09:19:24Z</time></trkpt><trkpt lat="45.40780081827347" lon="10.502351816619528"><ele>144.0</ele><time>2026-04-06T09:19:26Z</time></trkpt><trkpt lat="45.40789884179341" lon="10.502367698172106"><ele>144.0</ele><time>2026-04-06T09:19:28Z</time></trkpt><trkpt lat="45.407991425644376" lon="10.502399863076977"><ele>144.0</ele><time>2026-04-06T09:19:30Z</time></trkpt><trkpt lat="45.40808133708015" lon="10.502454450294755"><ele>144.0</ele><time>2026-04-06T09:19:32Z</time></trkpt><trkpt lat="45.40817229360372" lon="10.502509244257276"><ele>143.5</ele><time>2026-04-06T09:19:34Z</time></trkpt><trkpt lat="45.40826477620595" lon="10.502599107857014"><ele>143.0</ele><time>2026-04-06T09:19:36Z</time></trkpt><trkpt lat="45.40832393978197" lon="10.502642454002528"><ele>142.5</ele><time>2026-04-06T09:19:37Z</time></trkpt><trkpt lat="45.40838216179546" lon="10.50268785624089"><ele>142.0</ele><time>2026-04-06T09:19:38Z</time></trkpt><trkpt lat="45.408441146771224" lon="10.502729636407588"><ele>141.5</ele><time>2026-04-06T09:19:39Z</time></trkpt><trkpt lat="45.40851581550153" lon="10.50278479364117"><ele>141.0</ele><time>2026-04-06T09:19:40Z</time></trkpt><trkpt lat="45.40859425679655" lon="10.502800476369325"><ele>141.0</ele><time>2026-04-06T09:19:41Z</time></trkpt><trkpt lat="45.4086737270491" lon="10.502791023163702"><ele>141.0</ele><time>2026-04-06T09:19:42Z</time></trkpt><trkpt lat="45.40875478879377" lon="10.502799651865503"><ele>141.0</ele><time>2026-04-06T09:19:43Z</time></trkpt><trkpt lat="45.40883934589648" lon="10.502824599182999"><ele>141.0</ele><time>2026-04-06T09:19:44Z</time></trkpt><trkpt lat="45.40891651046667" lon="10.502865124900707"><ele>141.0</ele><time>2026-04-06T09:19:45Z</time></trkpt><trkpt lat="45.40898733017113" lon="10.502928950830494"><ele>141.0</ele><time>2026-04-06T09:19:46Z</time></trkpt><trkpt lat="45.40904771442691" lon="10.50300908860218"><ele>139.83333333333334</ele><time>2026-04-06T09:19:47Z</time></trkpt><trkpt lat="45.409102774786525" lon="10.503090102587958"><ele>138.66666666666666</ele><time>2026-04-06T09:19:48Z</time></trkpt><trkpt lat="45.40915263529542" lon="10.503178913653253"><ele>137.5</ele><time>2026-04-06T09:19:49Z</time></trkpt><trkpt lat="45.40920913778775" lon="10.503249951112123"><ele>136.33333333333331</ele><time>2026-04-06T09:19:50Z</time></trkpt><trkpt lat="45.40926374394626" lon="10.503323214696634"><ele>135.16666666666666</ele><time>2026-04-06T09:19:51Z</time></trkpt><trkpt lat="45.40931359947616" lon="10.50338574011939"><ele>134.0</ele><time>2026-04-06T09:19:52Z</time></trkpt><trkpt lat="45.409366380245004" lon="10.503460064323706"><ele>134.0</ele><time>2026-04-06T09:19:53Z</time></trkpt><trkpt lat="45.409403390633095" lon="10.503545210424985"><ele>134.0</ele><time>2026-04-06T09:19:54Z</time></trkpt><trkpt lat="45.40942656033993" lon="10.503632698847646"><ele>134.0</ele><time>2026-04-06T09:19:55Z</time></trkpt><trkpt lat="45.40944138080783" lon="10.503730831269497"><ele>134.0</ele><time>2026-04-06T09:19:56Z</time></trkpt><trkpt lat="45.40946317857587" lon="10.50382893479428"><ele>134.0</ele><time>2026-04-06T09:19:57Z</time></trkpt><trkpt lat="45.40948122111316" lon="10.504014199954668"><ele>134.0</ele><time>2026-04-06T09:19:59Z</time></trkpt><trkpt lat="45.409503491428445" lon="10.504112740353401"><ele>134.2</ele><time>2026-04-06T09:20:00Z</time></trkpt><trkpt lat="45.40953725384861" lon="10.504269656108963"><ele>134.4</ele><time>2026-04-06T09:20:02Z</time></trkpt><trkpt lat="45.409560567605155" lon="10.504361888150369"><ele>134.6</ele><time>2026-04-06T09:20:03Z</time></trkpt><trkpt lat="45.40958747804078" lon="10.504518444003388"><ele>134.8</ele><time>2026-04-06T09:20:05Z</time></trkpt><trkpt lat="45.409619196797955" lon="10.504662149274287"><ele>135.0</ele><time>2026-04-06T09:20:07Z</time></trkpt><trkpt lat="45.40971232743541" lon="10.504753273861708"><ele>135.0</ele><time>2026-04-06T09:20:09Z</time></trkpt><trkpt lat="45.40979260277018" lon="10.504805473276175"><ele>135.0</ele><time>2026-04-06T09:20:11Z</time></trkpt><trkpt lat="45.40987060074865" lon="10.504891723855255"><ele>135.0</ele><time>2026-04-06T09:20:13Z</time></trkpt><trkpt lat="45.40995160689958" lon="10.504978386965039"><ele>135.0</ele><time>2026-04-06T09:20:15Z</time></trkpt><trkpt lat="45.4100304531675" lon="10.505067754564942"><ele>135.0</ele><time>2026-04-06T09:20:17Z</time></trkpt><trkpt lat="45.410101664376626" lon="10.505160170621158"><ele>135.0</ele><time>2026-04-06T09:20:19Z</time></trkpt><trkpt lat="45.41017198661438" lon="10.505230823225734"><ele>135.0</ele><time>2026-04-06T09:20:21Z</time></trkpt><trkpt lat="45.41022308168714" lon="10.505302597382569"><ele>135.0</ele><time>2026-04-06T09:20:23Z</time></trkpt><trkpt lat="45.41026829633828" lon="10.505397723732225"><ele>135.0</ele><time>2026-04-06T09:20:26Z</time></trkpt><trkpt lat="45.41030972776392" lon="10.505479482746955"><ele>135.0</ele><time>2026-04-06T09:20:30Z</time></trkpt><trkpt lat="45.41030440240517" lon="10.505579317491566"><ele>135.0</ele><time>2026-04-06T09:20:34Z</time></trkpt><trkpt lat="45.410286565295735" lon="10.505703337757163"><ele>135.0</ele><time>2026-04-06T09:20:36Z</time></trkpt><trkpt lat="45.41022523805622" lon="10.505814975342476"><ele>135.0</ele><time>2026-04-06T09:20:38Z</time></trkpt><trkpt lat="45.41016104909387" lon="10.505931563852442"><ele>135.0</ele><time>2026-04-06T09:20:40Z</time></trkpt><trkpt lat="45.41010515912218" lon="10.506065410067553"><ele>135.0</ele><time>2026-04-06T09:20:42Z</time></trkpt><trkpt lat="45.41005249801474" lon="10.506210405154318"><ele>135.0</ele><time>2026-04-06T09:20:44Z</time></trkpt><trkpt lat="45.410000670225536" lon="10.506354012945398"><ele>133.4</ele><time>2026-04-06T09:20:46Z</time></trkpt><trkpt lat="45.40995151321484" lon="10.506492506213194"><ele>131.8</ele><time>2026-04-06T09:20:48Z</time></trkpt><trkpt lat="45.40990808618337" lon="10.506612549042867"><ele>130.2</ele><time>2026-04-06T09:20:50Z</time></trkpt><trkpt lat="45.4098513279095" lon="10.50673662069308"><ele>128.6</ele><time>2026-04-06T09:20:52Z</time></trkpt><trkpt lat="45.40979401841286" lon="10.506859464911818"><ele>127.0</ele><time>2026-04-06T09:20:54Z</time></trkpt><trkpt lat="45.40974154904516" lon="10.506997369273217"><ele>126.6</ele><time>2026-04-06T09:20:56Z</time></trkpt><trkpt lat="45.40967486174897" lon="10.507132409545155"><ele>126.19999999999999</ele><time>2026-04-06T09:20:58Z</time></trkpt><trkpt lat="45.40961939446476" lon="10.507259763173982"><ele>125.8</ele><time>2026-04-06T09:21:00Z</time></trkpt><trkpt lat="45.40956021457181" lon="10.507396697471089"><ele>125.4</ele><time>2026-04-06T09:21:02Z</time></trkpt><trkpt lat="45.409508987521754" lon="10.507524363427699"><ele>125.0</ele><time>2026-04-06T09:21:04Z</time></trkpt><trkpt lat="45.40946481293997" lon="10.507650292741106"><ele>126.5</ele><time>2026-04-06T09:21:06Z</time></trkpt><trkpt lat="45.40940370154837" lon="10.507775055506414"><ele>128.0</ele><time>2026-04-06T09:21:08Z</time></trkpt><trkpt lat="45.40938570603966" lon="10.507944883274243"><ele>129.5</ele><time>2026-04-06T09:21:10Z</time></trkpt><trkpt lat="45.40940325774136" lon="10.508118533136834"><ele>131.0</ele><time>2026-04-06T09:21:12Z</time></trkpt><trkpt lat="45.40942727851127" lon="10.508279736170774"><ele>131.0</ele><time>2026-04-06T09:21:14Z</time></trkpt><trkpt lat="45.40941548315071" lon="10.508430803483352"><ele>131.0</ele><time>2026-04-06T09:21:16Z</time></trkpt><trkpt lat="45.4093350925376" lon="10.508538713752365"><ele>131.0</ele><time>2026-04-06T09:21:18Z</time></trkpt><trkpt lat="45.409252085005136" lon="10.508623894940266"><ele>131.0</ele><time>2026-04-06T09:21:20Z</time></trkpt><trkpt lat="45.40917826701967" lon="10.508702412554175"><ele>131.0</ele><time>2026-04-06T09:21:22Z</time></trkpt><trkpt lat="45.40911277227521" lon="10.50879878441163"><ele>129.83333333333331</ele><time>2026-04-06T09:21:24Z</time></trkpt><trkpt lat="45.40910411229287" lon="10.50895772800497"><ele>128.66666666666666</ele><time>2026-04-06T09:21:26Z</time></trkpt><trkpt lat="45.40911807498946" lon="10.509099784811445"><ele>127.5</ele><time>2026-04-06T09:21:28Z</time></trkpt><trkpt lat="45.40912968603592" lon="10.509228790323236"><ele>126.33333333333334</ele><time>2026-04-06T09:21:30Z</time></trkpt><trkpt lat="45.40915038582461" lon="10.509328995712876"><ele>125.16666666666667</ele><time>2026-04-06T09:21:32Z</time></trkpt><trkpt lat="45.409148465476534" lon="10.509422384941887"><ele>124.0</ele><time>2026-04-06T09:21:36Z</time></trkpt><trkpt lat="45.409197235322914" lon="10.509499548630144"><ele>124.00000000000001</ele><time>2026-04-06T09:21:46Z</time></trkpt><trkpt lat="45.409264253819465" lon="10.509493691320648"><ele>124.0</ele><time>2026-04-06T09:21:48Z</time></trkpt><trkpt lat="45.409336072354385" lon="10.509478219669184"><ele>124.0</ele><time>2026-04-06T09:21:50Z</time></trkpt><trkpt lat="45.40927510771772" lon="10.50940187375445"><ele>124.0</ele><time>2026-04-06T09:21:56Z</time></trkpt><trkpt lat="45.4092051753303" lon="10.509421913940916"><ele>124.00000000000001</ele><time>2026-04-06T09:21:58Z</time></trkpt><trkpt lat="45.40912841052712" lon="10.509443912160112"><ele>124.0</ele><time>2026-04-06T09:22:00Z</time></trkpt><trkpt lat="45.40904565341449" lon="10.509467627410164"><ele>124.00000000000001</ele><time>2026-04-06T09:22:02Z</time></trkpt><trkpt lat="45.40894543687036" lon="10.50949634599781"><ele>124.0</ele><time>2026-04-06T09:22:04Z</time></trkpt><trkpt lat="45.40887943653925" lon="10.509515259422619"><ele>124.0</ele><time>2026-04-06T09:22:06Z</time></trkpt><trkpt lat="45.40880940263782" lon="10.509535328693884"><ele>124.0</ele><time>2026-04-06T09:22:10Z</time></trkpt><trkpt lat="45.40871084301303" lon="10.509563572479268"><ele>124.00000000000001</ele><time>2026-04-06T09:22:13Z</time></trkpt><trkpt lat="45.40864527936605" lon="10.509582360736484"><ele>124.0</ele><time>2026-04-06T09:22:15Z</time></trkpt><trkpt lat="45.40858175035986" lon="10.509600565925199"><ele>123.66666666666667</ele><time>2026-04-06T09:22:17Z</time></trkpt><trkpt lat="45.40850806361369" lon="10.509621682013568"><ele>123.33333333333334</ele><time>2026-04-06T09:22:20Z</time></trkpt><trkpt lat="45.40844269458377" lon="10.509640757627844"><ele>123.0</ele><time>2026-04-06T09:22:22Z</time></trkpt><trkpt lat="45.40837514390912" lon="10.509660544659281"><ele>122.66666666666666</ele><time>2026-04-06T09:22:25Z</time></trkpt><trkpt lat="45.40830758090943" lon="10.509680335353645"><ele>122.33333333333333</ele><time>2026-04-06T09:22:27Z</time></trkpt><trkpt lat="45.408219681977336" lon="10.509705957751372"><ele>122.0</ele><time>2026-04-06T09:22:29Z</time></trkpt><trkpt lat="45.40811867509145" lon="10.509734437776185"><ele>122.0</ele><time>2026-04-06T09:22:32Z</time></trkpt><trkpt lat="45.408051838675085" lon="10.509753119759944"><ele>121.99999999999999</ele><time>2026-04-06T09:22:34Z</time></trkpt><trkpt lat="45.40797925122703" lon="10.509772128342625"><ele>121.99999999999999</ele><time>2026-04-06T09:22:36Z</time></trkpt><trkpt lat="45.4079045786055" lon="10.509791333437951"><ele>122.0</ele><time>2026-04-06T09:22:38Z</time></trkpt><trkpt lat="45.40782927310517" lon="10.50980894111771"><ele>122.0</ele><time>2026-04-06T09:22:40Z</time></trkpt><trkpt lat="45.40780297009895" lon="10.5101240046172"><ele>122.0</ele><time>2026-04-06T09:22:43Z</time></trkpt><trkpt lat="45.40775617704645" lon="10.510269099065424"><ele>121.99999999999999</ele><time>2026-04-06T09:22:45Z</time></trkpt><trkpt lat="45.407705948440146" lon="10.510435074042999"><ele>121.99999999999999</ele><time>2026-04-06T09:22:47Z</time></trkpt><trkpt lat="45.40767632756699" lon="10.510523658294884"><ele>122.0</ele><time>2026-04-06T09:22:48Z</time></trkpt><trkpt lat="45.40764653992445" lon="10.510618799691956"><ele>122.0</ele><time>2026-04-06T09:22:49Z</time></trkpt><trkpt lat="45.40761362344649" lon="10.510716077359604"><ele>121.99999999999999</ele><time>2026-04-06T09:22:50Z</time></trkpt><trkpt lat="45.40756615401287" lon="10.510812545904766"><ele>122.0</ele><time>2026-04-06T09:22:51Z</time></trkpt><trkpt lat="45.407540251897004" lon="10.510923681333946"><ele>122.0</ele><time>2026-04-06T09:22:52Z</time></trkpt><trkpt lat="45.40749733979979" lon="10.511022742422854"><ele>122.0</ele><time>2026-04-06T09:22:53Z</time></trkpt><trkpt lat="45.407452112015186" lon="10.511117278853478"><ele>121.99999999999999</ele><time>2026-04-06T09:22:54Z</time></trkpt><trkpt lat="45.40739901535925" lon="10.51121452817806"><ele>122.0</ele><time>2026-04-06T09:22:55Z</time></trkpt><trkpt lat="45.40736226509116" lon="10.511319383224997"><ele>121.33333333333333</ele><time>2026-04-06T09:22:56Z</time></trkpt><trkpt lat="45.40732118106011" lon="10.51142181726229"><ele>120.66666666666666</ele><time>2026-04-06T09:22:57Z</time></trkpt><trkpt lat="45.407275222758344" lon="10.511513556818011"><ele>120.0</ele><time>2026-04-06T09:22:58Z</time></trkpt><trkpt lat="45.40722499838165" lon="10.51160036213669"><ele>119.33333333333334</ele><time>2026-04-06T09:22:59Z</time></trkpt><trkpt lat="45.40717654621997" lon="10.51169256121992"><ele>118.66666666666667</ele><time>2026-04-06T09:23:00Z</time></trkpt><trkpt lat="45.40713184433087" lon="10.51178851940157"><ele>118.0</ele><time>2026-04-06T09:23:01Z</time></trkpt><trkpt lat="45.40710259344939" lon="10.511891069638551"><ele>118.0</ele><time>2026-04-06T09:23:02Z</time></trkpt><trkpt lat="45.40707279695366" lon="10.511988611113818"><ele>118.0</ele><time>2026-04-06T09:23:03Z</time></trkpt><trkpt lat="45.40704685104058" lon="10.512087378530685"><ele>118.0</ele><time>2026-04-06T09:23:04Z</time></trkpt><trkpt lat="45.40702020543527" lon="10.512189800121803"><ele>118.0</ele><time>2026-04-06T09:23:05Z</time></trkpt><trkpt lat="45.40699335512393" lon="10.512287640625301"><ele>118.0</ele><time>2026-04-06T09:23:06Z</time></trkpt><trkpt lat="45.40696200456345" lon="10.512385307185268"><ele>118.0</ele><time>2026-04-06T09:23:07Z</time></trkpt><trkpt lat="45.40693537910561" lon="10.51248217821145"><ele>118.0</ele><time>2026-04-06T09:23:08Z</time></trkpt><trkpt lat="45.406913982028925" lon="10.512580503088065"><ele>117.85714285714286</ele><time>2026-04-06T09:23:09Z</time></trkpt><trkpt lat="45.406892769742754" lon="10.512676530824145"><ele>117.71428571428572</ele><time>2026-04-06T09:23:10Z</time></trkpt><trkpt lat="45.40687487198028" lon="10.51278138857688"><ele>117.57142857142858</ele><time>2026-04-06T09:23:11Z</time></trkpt><trkpt lat="45.40686511193164" lon="10.512884599351413"><ele>117.42857142857143</ele><time>2026-04-06T09:23:12Z</time></trkpt><trkpt lat="45.40687411799811" lon="10.51298669977741"><ele>117.2857142857143</ele><time>2026-04-06T09:23:13Z</time></trkpt><trkpt lat="45.40689895380037" lon="10.513079519883938"><ele>117.14285714285715</ele><time>2026-04-06T09:23:14Z</time></trkpt><trkpt lat="45.40693608340032" lon="10.5131636114602"><ele>117.0</ele><time>2026-04-06T09:23:15Z</time></trkpt><trkpt lat="45.40698043655069" lon="10.513251258837668"><ele>117.0</ele><time>2026-04-06T09:23:16Z</time></trkpt><trkpt lat="45.407009977479525" lon="10.513332314404776"><ele>117.0</ele><time>2026-04-06T09:23:17Z</time></trkpt><trkpt lat="45.407032146918624" lon="10.513429673135041"><ele>117.0</ele><time>2026-04-06T09:23:18Z</time></trkpt><trkpt lat="45.40703453255791" lon="10.51352510500988"><ele>117.0</ele><time>2026-04-06T09:23:19Z</time></trkpt><trkpt lat="45.4070435599436" lon="10.513697842292201"><ele>117.0</ele><time>2026-04-06T09:23:21Z</time></trkpt><trkpt lat="45.40704414407039" lon="10.513787940374277"><ele>117.0</ele><time>2026-04-06T09:23:22Z</time></trkpt><trkpt lat="45.40702677056353" lon="10.51394987359343"><ele>117.25</ele><time>2026-04-06T09:23:24Z</time></trkpt><trkpt lat="45.40699410538957" lon="10.514107096430507"><ele>117.5</ele><time>2026-04-06T09:23:26Z</time></trkpt><trkpt lat="45.40695943924011" lon="10.514263174755753"><ele>117.75</ele><time>2026-04-06T09:23:28Z</time></trkpt><trkpt lat="45.40691934263288" lon="10.514410200850467"><ele>118.0</ele><time>2026-04-06T09:23:30Z</time></trkpt><trkpt lat="45.40687136430684" lon="10.514559491103089"><ele>118.2</ele><time>2026-04-06T09:23:32Z</time></trkpt><trkpt lat="45.40682507693126" lon="10.514711221807902"><ele>118.4</ele><time>2026-04-06T09:23:34Z</time></trkpt><trkpt lat="45.40675683781258" lon="10.514838692774436"><ele>118.60000000000001</ele><time>2026-04-06T09:23:36Z</time></trkpt><trkpt lat="45.406687448594965" lon="10.514942281716483"><ele>118.80000000000001</ele><time>2026-04-06T09:23:38Z</time></trkpt><trkpt lat="45.406609584238446" lon="10.515022271596466"><ele>119.0</ele><time>2026-04-06T09:23:40Z</time></trkpt><trkpt lat="45.4065330979342" lon="10.515107558549833"><ele>119.0</ele><time>2026-04-06T09:23:42Z</time></trkpt><trkpt lat="45.40645941621274" lon="10.5151962832013"><ele>119.0</ele><time>2026-04-06T09:23:44Z</time></trkpt><trkpt lat="45.40639331194997" lon="10.515291653587468"><ele>119.0</ele><time>2026-04-06T09:23:46Z</time></trkpt><trkpt lat="45.406367856427266" lon="10.51543899163032"><ele>119.0</ele><time>2026-04-06T09:23:48Z</time></trkpt><trkpt lat="45.406365618073515" lon="10.515591209355392"><ele>119.0</ele><time>2026-04-06T09:23:50Z</time></trkpt><trkpt lat="45.406378765989835" lon="10.515744489634764"><ele>119.0</ele><time>2026-04-06T09:23:52Z</time></trkpt><trkpt lat="45.40637863980639" lon="10.51589650046858"><ele>119.0</ele><time>2026-04-06T09:23:54Z</time></trkpt><trkpt lat="45.406385599293436" lon="10.516051861185183"><ele>119.0</ele><time>2026-04-06T09:23:56Z</time></trkpt><trkpt lat="45.40636841128798" lon="10.51620117775802"><ele>119.0</ele><time>2026-04-06T09:23:58Z</time></trkpt><trkpt lat="45.40631911535589" lon="10.516347747821754"><ele>119.0</ele><time>2026-04-06T09:24:00Z</time></trkpt><trkpt lat="45.40627101700701" lon="10.516407423041167"><ele>119.2</ele><time>2026-04-06T09:24:01Z</time></trkpt><trkpt lat="45.40617248813991" lon="10.516473427111606"><ele>119.4</ele><time>2026-04-06T09:24:03Z</time></trkpt><trkpt lat="45.40606897247968" lon="10.516523856253936"><ele>119.6</ele><time>2026-04-06T09:24:05Z</time></trkpt><trkpt lat="45.40596647525809" lon="10.516572765724264"><ele>119.8</ele><time>2026-04-06T09:24:07Z</time></trkpt><trkpt lat="45.40586882073378" lon="10.516619312402389"><ele>120.0</ele><time>2026-04-06T09:24:09Z</time></trkpt><trkpt lat="45.40577896524061" lon="10.516661511452769"><ele>120.0</ele><time>2026-04-06T09:24:11Z</time></trkpt><trkpt lat="45.405702583050505" lon="10.516696863009912"><ele>120.0</ele><time>2026-04-06T09:24:13Z</time></trkpt><trkpt lat="45.40561504374304" lon="10.516739206948678"><ele>120.0</ele><time>2026-04-06T09:24:15Z</time></trkpt><trkpt lat="45.405526897085636" lon="10.516791716970937"><ele>120.0</ele><time>2026-04-06T09:24:17Z</time></trkpt><trkpt lat="45.4054340144079" lon="10.516858533736965"><ele>120.0</ele><time>2026-04-06T09:24:19Z</time></trkpt><trkpt lat="45.40534126500757" lon="10.516927682002956"><ele>119.8</ele><time>2026-04-06T09:24:21Z</time></trkpt><trkpt lat="45.40524959830754" lon="10.517001597972813"><ele>119.6</ele><time>2026-04-06T09:24:23Z</time></trkpt><trkpt lat="45.40515941998474" lon="10.517068202229416"><ele>119.4</ele><time>2026-04-06T09:24:25Z</time></trkpt><trkpt lat="45.40506496843964" lon="10.517142065571221"><ele>119.2</ele><time>2026-04-06T09:24:27Z</time></trkpt><trkpt lat="45.40496167807673" lon="10.517216075791701"><ele>119.0</ele><time>2026-04-06T09:24:29Z</time></trkpt><trkpt lat="45.404856891020245" lon="10.517288019287816"><ele>118.75</ele><time>2026-04-06T09:24:31Z</time></trkpt><trkpt lat="45.40475533122136" lon="10.517371535415688"><ele>118.5</ele><time>2026-04-06T09:24:33Z</time></trkpt><trkpt lat="45.40464550989014" lon="10.517424969987632"><ele>118.25</ele><time>2026-04-06T09:24:35Z</time></trkpt><trkpt lat="45.404542399626884" lon="10.517500171779087"><ele>118.0</ele><time>2026-04-06T09:24:37Z</time></trkpt><trkpt lat="45.40444138956792" lon="10.517598261402796"><ele>118.0</ele><time>2026-04-06T09:24:39Z</time></trkpt><trkpt lat="45.40433982614294" lon="10.517672508869722"><ele>118.0</ele><time>2026-04-06T09:24:41Z</time></trkpt><trkpt lat="45.404237199935906" lon="10.517743101446468"><ele>118.0</ele><time>2026-04-06T09:24:43Z</time></trkpt><trkpt lat="45.40413197092574" lon="10.517817821363264"><ele>118.0</ele><time>2026-04-06T09:24:45Z</time></trkpt><trkpt lat="45.40403006352329" lon="10.517893569333552"><ele>117.80000000000001</ele><time>2026-04-06T09:24:47Z</time></trkpt><trkpt lat="45.40392966214349" lon="10.517965171470072"><ele>117.60000000000001</ele><time>2026-04-06T09:24:49Z</time></trkpt><trkpt lat="45.40383079260242" lon="10.518035141608044"><ele>117.39999999999999</ele><time>2026-04-06T09:24:51Z</time></trkpt><trkpt lat="45.40373126361424" lon="10.518097817352997"><ele>117.19999999999999</ele><time>2026-04-06T09:24:53Z</time></trkpt><trkpt lat="45.40363529554887" lon="10.518161719506491"><ele>117.0</ele><time>2026-04-06T09:24:55Z</time></trkpt><trkpt lat="45.40353872912493" lon="10.518231038423304"><ele>117.0</ele><time>2026-04-06T09:24:57Z</time></trkpt><trkpt lat="45.403445837057426" lon="10.51830890758258"><ele>116.99999999999999</ele><time>2026-04-06T09:24:59Z</time></trkpt><trkpt lat="45.40335080525386" lon="10.51837704372702"><ele>116.99999999999999</ele><time>2026-04-06T09:25:01Z</time></trkpt><trkpt lat="45.40326121540547" lon="10.518438933662111"><ele>117.0</ele><time>2026-04-06T09:25:03Z</time></trkpt><trkpt lat="45.40317345870743" lon="10.51850080656974"><ele>117.0</ele><time>2026-04-06T09:25:05Z</time></trkpt><trkpt lat="45.403085297910636" lon="10.518566994959068"><ele>117.0</ele><time>2026-04-06T09:25:07Z</time></trkpt><trkpt lat="45.40299380883561" lon="10.518637044610182"><ele>116.99999999999999</ele><time>2026-04-06T09:25:09Z</time></trkpt><trkpt lat="45.4028876139004" lon="10.51868290186402"><ele>116.99999999999999</ele><time>2026-04-06T09:25:11Z</time></trkpt><trkpt lat="45.40279345664796" lon="10.51876180760351"><ele>117.0</ele><time>2026-04-06T09:25:13Z</time></trkpt><trkpt lat="45.40268989524704" lon="10.518805730284933"><ele>117.0</ele><time>2026-04-06T09:25:15Z</time></trkpt><trkpt lat="45.402590799553046" lon="10.518887654286305"><ele>117.0</ele><time>2026-04-06T09:25:17Z</time></trkpt><trkpt lat="45.40248346491638" lon="10.518951273292286"><ele>117.0</ele><time>2026-04-06T09:25:19Z</time></trkpt><trkpt lat="45.402376218133405" lon="10.51902222062408"><ele>117.0</ele><time>2026-04-06T09:25:21Z</time></trkpt><trkpt lat="45.402267308343966" lon="10.519077209523067"><ele>117.0</ele><time>2026-04-06T09:25:23Z</time></trkpt><trkpt lat="45.40215711783423" lon="10.519132164723036"><ele>116.75</ele><time>2026-04-06T09:25:25Z</time></trkpt><trkpt lat="45.40205234756884" lon="10.519204554707438"><ele>116.5</ele><time>2026-04-06T09:25:27Z</time></trkpt><trkpt lat="45.40194540577193" lon="10.519271114576556"><ele>116.25</ele><time>2026-04-06T09:25:29Z</time></trkpt><trkpt lat="45.40183165229782" lon="10.519341166345761"><ele>116.0</ele><time>2026-04-06T09:25:31Z</time></trkpt><trkpt lat="45.40172153761705" lon="10.519417680817332"><ele>116.0</ele><time>2026-04-06T09:25:33Z</time></trkpt><trkpt lat="45.40160563798307" lon="10.519478174547997"><ele>116.0</ele><time>2026-04-06T09:25:35Z</time></trkpt><trkpt lat="45.40154533048306" lon="10.519503931840354"><ele>116.0</ele><time>2026-04-06T09:25:36Z</time></trkpt><trkpt lat="45.401434470548104" lon="10.519571635017316"><ele>116.0</ele><time>2026-04-06T09:25:38Z</time></trkpt><trkpt lat="45.40132768876867" lon="10.519656436809706"><ele>116.0</ele><time>2026-04-06T09:25:40Z</time></trkpt><trkpt lat="45.401228659168915" lon="10.519742832388065"><ele>116.5</ele><time>2026-04-06T09:25:42Z</time></trkpt><trkpt lat="45.40112778698579" lon="10.519836381337097"><ele>117.0</ele><time>2026-04-06T09:25:44Z</time></trkpt><trkpt lat="45.40102365392448" lon="10.519920764426864"><ele>117.5</ele><time>2026-04-06T09:25:46Z</time></trkpt><trkpt lat="45.400930970171906" lon="10.520017587267944"><ele>118.0</ele><time>2026-04-06T09:25:48Z</time></trkpt><trkpt lat="45.40083614947792" lon="10.520103907306362"><ele>118.0</ele><time>2026-04-06T09:25:50Z</time></trkpt><trkpt lat="45.40074478873295" lon="10.520188769180708"><ele>118.00000000000001</ele><time>2026-04-06T09:25:52Z</time></trkpt><trkpt lat="45.40065752433107" lon="10.520273876672624"><ele>118.00000000000001</ele><time>2026-04-06T09:25:54Z</time></trkpt><trkpt lat="45.400569645900866" lon="10.520350711359306"><ele>118.0</ele><time>2026-04-06T09:25:56Z</time></trkpt><trkpt lat="45.40048472414273" lon="10.520426645847506"><ele>118.0</ele><time>2026-04-06T09:25:58Z</time></trkpt><trkpt lat="45.40039773586045" lon="10.520491485874437"><ele>118.33333333333334</ele><time>2026-04-06T09:26:00Z</time></trkpt><trkpt lat="45.40031080351449" lon="10.520544124032059"><ele>118.66666666666667</ele><time>2026-04-06T09:26:02Z</time></trkpt><trkpt lat="45.40023127408901" lon="10.520581807181015"><ele>119.0</ele><time>2026-04-06T09:26:04Z</time></trkpt><trkpt lat="45.400153383797914" lon="10.520607211414308"><ele>119.33333333333334</ele><time>2026-04-06T09:26:06Z</time></trkpt><trkpt lat="45.40007712804012" lon="10.520633378188451"><ele>119.66666666666667</ele><time>2026-04-06T09:26:08Z</time></trkpt><trkpt lat="45.39998959076907" lon="10.520670981335961"><ele>120.0</ele><time>2026-04-06T09:26:10Z</time></trkpt><trkpt lat="45.399901548339834" lon="10.520721586235947"><ele>120.0</ele><time>2026-04-06T09:26:12Z</time></trkpt><trkpt lat="45.39980863015555" lon="10.520794480806554"><ele>120.0</ele><time>2026-04-06T09:26:14Z</time></trkpt><trkpt lat="45.399731736688686" lon="10.520896051627082"><ele>120.0</ele><time>2026-04-06T09:26:16Z</time></trkpt><trkpt lat="45.39965410782826" lon="10.521005792962224"><ele>120.0</ele><time>2026-04-06T09:26:18Z</time></trkpt><trkpt lat="45.3995701611286" lon="10.521111034657885"><ele>120.0</ele><time>2026-04-06T09:26:20Z</time></trkpt><trkpt lat="45.399494368187014" lon="10.521232346796749"><ele>119.25</ele><time>2026-04-06T09:26:22Z</time></trkpt><trkpt lat="45.39940901781761" lon="10.521348234794479"><ele>118.5</ele><time>2026-04-06T09:26:24Z</time></trkpt><trkpt lat="45.39932599795203" lon="10.521465950717785"><ele>117.75</ele><time>2026-04-06T09:26:26Z</time></trkpt><trkpt lat="45.399243345972444" lon="10.521590456794053"><ele>117.0</ele><time>2026-04-06T09:26:28Z</time></trkpt><trkpt lat="45.39916615484584" lon="10.521707629226809"><ele>117.0</ele><time>2026-04-06T09:26:30Z</time></trkpt><trkpt lat="45.39908109086449" lon="10.521815403379366"><ele>117.0</ele><time>2026-04-06T09:26:32Z</time></trkpt><trkpt lat="45.399006757602436" lon="10.52193561696202"><ele>117.0</ele><time>2026-04-06T09:26:34Z</time></trkpt><trkpt lat="45.39891159899696" lon="10.522026512563961"><ele>117.0</ele><time>2026-04-06T09:26:36Z</time></trkpt><trkpt lat="45.39880381311858" lon="10.522071847824066"><ele>117.19999999999999</ele><time>2026-04-06T09:26:38Z</time></trkpt><trkpt lat="45.398696154363684" lon="10.52209711205729"><ele>117.39999999999999</ele><time>2026-04-06T09:26:40Z</time></trkpt><trkpt lat="45.39858365842542" lon="10.522104450702509"><ele>117.60000000000001</ele><time>2026-04-06T09:26:42Z</time></trkpt><trkpt lat="45.398471837207346" lon="10.522123966055002"><ele>117.80000000000001</ele><time>2026-04-06T09:26:44Z</time></trkpt><trkpt lat="45.39836172250561" lon="10.522120590756332"><ele>118.0</ele><time>2026-04-06T09:26:46Z</time></trkpt><trkpt lat="45.398252007001155" lon="10.522114517164503"><ele>118.0</ele><time>2026-04-06T09:26:48Z</time></trkpt><trkpt lat="45.39814134940814" lon="10.522105266140501"><ele>118.00000000000001</ele><time>2026-04-06T09:26:50Z</time></trkpt><trkpt lat="45.398028180727124" lon="10.522104392440495"><ele>118.00000000000001</ele><time>2026-04-06T09:26:52Z</time></trkpt><trkpt lat="45.39790874344913" lon="10.522090762115669"><ele>118.0</ele><time>2026-04-06T09:26:54Z</time></trkpt><trkpt lat="45.39780830847016" lon="10.52209075759001"><ele>118.0</ele><time>2026-04-06T09:26:56Z</time></trkpt><trkpt lat="45.39772383162715" lon="10.522085801307918"><ele>118.0</ele><time>2026-04-06T09:26:58Z</time></trkpt><trkpt lat="45.397739630171245" lon="10.522270684779569"><ele>118.0</ele><time>2026-04-06T09:27:00Z</time></trkpt><trkpt lat="45.39775311057386" lon="10.52241317700127"><ele>118.0</ele><time>2026-04-06T09:27:02Z</time></trkpt><trkpt lat="45.39776816922602" lon="10.522533266920512"><ele>118.0</ele><time>2026-04-06T09:27:04Z</time></trkpt><trkpt lat="45.39791555162599" lon="10.52260406209569"><ele>118.0</ele><time>2026-04-06T09:27:06Z</time></trkpt><trkpt lat="45.398026499933245" lon="10.522623372415275"><ele>118.00000000000001</ele><time>2026-04-06T09:27:08Z</time></trkpt><trkpt lat="45.398123366460425" lon="10.522694485204632"><ele>118.00000000000001</ele><time>2026-04-06T09:27:10Z</time></trkpt><trkpt lat="45.398214285905254" lon="10.522782564943562"><ele>118.0</ele><time>2026-04-06T09:27:12Z</time></trkpt><trkpt lat="45.39828666326003" lon="10.522910955095227"><ele>118.0</ele><time>2026-04-06T09:27:14Z</time></trkpt><trkpt lat="45.39836227860582" lon="10.52302915453763"><ele>118.2</ele><time>2026-04-06T09:27:16Z</time></trkpt><trkpt lat="45.39843940479456" lon="10.5231318323133"><ele>118.4</ele><time>2026-04-06T09:27:18Z</time></trkpt><trkpt lat="45.39852199817898" lon="10.523220879103425"><ele>118.60000000000001</ele><time>2026-04-06T09:27:20Z</time></trkpt><trkpt lat="45.39861237716791" lon="10.52328366494976"><ele>118.80000000000001</ele><time>2026-04-06T09:27:22Z</time></trkpt><trkpt lat="45.39871069754965" lon="10.523326033998543"><ele>119.0</ele><time>2026-04-06T09:27:24Z</time></trkpt><trkpt lat="45.39880641556355" lon="10.523360823361998"><ele>119.6</ele><time>2026-04-06T09:27:26Z</time></trkpt><trkpt lat="45.39890540938755" lon="10.523368196567873"><ele>120.2</ele><time>2026-04-06T09:27:28Z</time></trkpt><trkpt lat="45.39900581342926" lon="10.523373199067809"><ele>120.79999999999998</ele><time>2026-04-06T09:27:30Z</time></trkpt><trkpt lat="45.39909949944984" lon="10.5233344932994"><ele>121.39999999999999</ele><time>2026-04-06T09:27:32Z</time></trkpt><trkpt lat="45.3991830963192" lon="10.523244549327503"><ele>122.0</ele><time>2026-04-06T09:27:34Z</time></trkpt><trkpt lat="45.39926500417541" lon="10.52316403239116"><ele>121.99999999999999</ele><time>2026-04-06T09:27:36Z</time></trkpt><trkpt lat="45.39935083400168" lon="10.52308514926177"><ele>122.0</ele><time>2026-04-06T09:27:38Z</time></trkpt><trkpt lat="45.39943702623655" lon="10.523008554832368"><ele>122.0</ele><time>2026-04-06T09:27:40Z</time></trkpt><trkpt lat="45.399510530038114" lon="10.522949749709642"><ele>122.0</ele><time>2026-04-06T09:27:42Z</time></trkpt><trkpt lat="45.399582497067" lon="10.52294505329066"><ele>121.99999999999999</ele><time>2026-04-06T09:27:45Z</time></trkpt><trkpt lat="45.39961175528989" lon="10.52303987415941"><ele>122.0</ele><time>2026-04-06T09:27:46Z</time></trkpt><trkpt lat="45.39965673593346" lon="10.523125467271031"><ele>122.57142857142856</ele><time>2026-04-06T09:27:48Z</time></trkpt><trkpt lat="45.39970296625373" lon="10.523195036307628"><ele>123.14285714285714</ele><time>2026-04-06T09:27:50Z</time></trkpt><trkpt lat="45.399745108757934" lon="10.523270328767492"><ele>123.71428571428571</ele><time>2026-04-06T09:27:52Z</time></trkpt><trkpt lat="45.39979075664655" lon="10.523356158837961"><ele>124.28571428571428</ele><time>2026-04-06T09:27:54Z</time></trkpt><trkpt lat="45.3998383356801" lon="10.523447757165275"><ele>124.85714285714286</ele><time>2026-04-06T09:27:56Z</time></trkpt><trkpt lat="45.3998752709269" lon="10.523547234427864"><ele>125.42857142857143</ele><time>2026-04-06T09:27:58Z</time></trkpt><trkpt lat="45.3999069069671" lon="10.523651289293058"><ele>126.0</ele><time>2026-04-06T09:28:00Z</time></trkpt><trkpt lat="45.3999268386633" lon="10.52375387591939"><ele>126.5</ele><time>2026-04-06T09:28:02Z</time></trkpt><trkpt lat="45.399948905298665" lon="10.523865769552732"><ele>127.0</ele><time>2026-04-06T09:28:04Z</time></trkpt><trkpt lat="45.39997727613364" lon="10.523980149572656"><ele>127.5</ele><time>2026-04-06T09:28:06Z</time></trkpt><trkpt lat="45.40001108469619" lon="10.52408953917242"><ele>128.0</ele><time>2026-04-06T09:28:08Z</time></trkpt><trkpt lat="45.400049543114996" lon="10.524201474858236"><ele>128.5</ele><time>2026-04-06T09:28:10Z</time></trkpt><trkpt lat="45.400083540246705" lon="10.52430551570826"><ele>129.0</ele><time>2026-04-06T09:28:12Z</time></trkpt><trkpt lat="45.400116853546464" lon="10.524408548566159"><ele>129.0</ele><time>2026-04-06T09:28:14Z</time></trkpt><trkpt lat="45.40014860402127" lon="10.524516773360512"><ele>129.0</ele><time>2026-04-06T09:28:16Z</time></trkpt><trkpt lat="45.40018194746385" lon="10.524623901830298"><ele>129.0</ele><time>2026-04-06T09:28:18Z</time></trkpt><trkpt lat="45.40020993344834" lon="10.52474358142646"><ele>129.0</ele><time>2026-04-06T09:28:20Z</time></trkpt><trkpt lat="45.40022505228244" lon="10.52486216812867"><ele>129.0</ele><time>2026-04-06T09:28:22Z</time></trkpt><trkpt lat="45.40022175741073" lon="10.524986916694546"><ele>129.0</ele><time>2026-04-06T09:28:24Z</time></trkpt><trkpt lat="45.4002237829371" lon="10.52510712634541"><ele>129.66666666666666</ele><time>2026-04-06T09:28:26Z</time></trkpt><trkpt lat="45.400222107219506" lon="10.525225296525365"><ele>130.33333333333334</ele><time>2026-04-06T09:28:28Z</time></trkpt><trkpt lat="45.40022077439741" lon="10.525344543676383"><ele>131.0</ele><time>2026-04-06T09:28:30Z</time></trkpt><trkpt lat="45.40022019533812" lon="10.525468068449005"><ele>131.66666666666669</ele><time>2026-04-06T09:28:32Z</time></trkpt><trkpt lat="45.40022615242893" lon="10.525586171564397"><ele>132.33333333333334</ele><time>2026-04-06T09:28:34Z</time></trkpt><trkpt lat="45.40022847811282" lon="10.525705305442495"><ele>133.0</ele><time>2026-04-06T09:28:36Z</time></trkpt><trkpt lat="45.4002292634736" lon="10.525827065704519"><ele>133.5</ele><time>2026-04-06T09:28:38Z</time></trkpt><trkpt lat="45.40023081968709" lon="10.525947546632333"><ele>134.0</ele><time>2026-04-06T09:28:40Z</time></trkpt><trkpt lat="45.4002354334123" lon="10.526063076790658"><ele>134.5</ele><time>2026-04-06T09:28:42Z</time></trkpt><trkpt lat="45.400241889923336" lon="10.526177311170624"><ele>135.0</ele><time>2026-04-06T09:28:44Z</time></trkpt><trkpt lat="45.40024128779003" lon="10.526299877391946"><ele>135.5</ele><time>2026-04-06T09:28:46Z</time></trkpt><trkpt lat="45.40024333712521" lon="10.526421695260566"><ele>136.0</ele><time>2026-04-06T09:28:48Z</time></trkpt><trkpt lat="45.4002275377091" lon="10.526549314885807"><ele>136.5</ele><time>2026-04-06T09:28:50Z</time></trkpt><trkpt lat="45.400214054977155" lon="10.526678373054777"><ele>137.0</ele><time>2026-04-06T09:28:52Z</time></trkpt><trkpt lat="45.400188293400696" lon="10.526808659615826"><ele>137.5</ele><time>2026-04-06T09:28:54Z</time></trkpt><trkpt lat="45.40015754056904" lon="10.526935825360422"><ele>138.0</ele><time>2026-04-06T09:28:56Z</time></trkpt><trkpt lat="45.40012159241252" lon="10.527049225818324"><ele>138.5</ele><time>2026-04-06T09:28:58Z</time></trkpt><trkpt lat="45.400095626016935" lon="10.52715852502661"><ele>139.0</ele><time>2026-04-06T09:29:00Z</time></trkpt><trkpt lat="45.40006987852095" lon="10.527271482093816"><ele>139.4</ele><time>2026-04-06T09:29:02Z</time></trkpt><trkpt lat="45.40004614157046" lon="10.527398504748584"><ele>139.8</ele><time>2026-04-06T09:29:04Z</time></trkpt><trkpt lat="45.40002399371377" lon="10.527521427367297"><ele>140.2</ele><time>2026-04-06T09:29:06Z</time></trkpt><trkpt lat="45.40000146097573" lon="10.52765414455383"><ele>140.6</ele><time>2026-04-06T09:29:08Z</time></trkpt><trkpt lat="45.39997397298382" lon="10.527803572340419"><ele>141.0</ele><time>2026-04-06T09:29:10Z</time></trkpt><trkpt lat="45.39992006274686" lon="10.527942648300813"><ele>141.0</ele><time>2026-04-06T09:29:12Z</time></trkpt><trkpt lat="45.399861549469925" lon="10.528059670486405"><ele>141.0</ele><time>2026-04-06T09:29:14Z</time></trkpt><trkpt lat="45.39990294270078" lon="10.52824436231302"><ele>141.0</ele><time>2026-04-06T09:29:16Z</time></trkpt><trkpt lat="45.399875397184324" lon="10.528367683539301"><ele>141.0</ele><time>2026-04-06T09:29:18Z</time></trkpt><trkpt lat="45.39984961078786" lon="10.528492952976022"><ele>141.0</ele><time>2026-04-06T09:29:20Z</time></trkpt><trkpt lat="45.39981753081788" lon="10.5286296966663"><ele>140.6</ele><time>2026-04-06T09:29:22Z</time></trkpt><trkpt lat="45.39978294442321" lon="10.528769985110213"><ele>140.2</ele><time>2026-04-06T09:29:24Z</time></trkpt><trkpt lat="45.39975508163827" lon="10.528917719382278"><ele>139.8</ele><time>2026-04-06T09:29:26Z</time></trkpt><trkpt lat="45.39972798275428" lon="10.529063069486643"><ele>139.4</ele><time>2026-04-06T09:29:28Z</time></trkpt><trkpt lat="45.39970010866918" lon="10.529237665690498"><ele>139.0</ele><time>2026-04-06T09:29:30Z</time></trkpt><trkpt lat="45.399699072180184" lon="10.529331834429557"><ele>139.0</ele><time>2026-04-06T09:29:31Z</time></trkpt><trkpt lat="45.39970055425822" lon="10.529436961828845"><ele>139.0</ele><time>2026-04-06T09:29:32Z</time></trkpt><trkpt lat="45.39970802788815" lon="10.529539973076824"><ele>139.0</ele><time>2026-04-06T09:29:33Z</time></trkpt><trkpt lat="45.39971857491002" lon="10.529639535088963"><ele>139.0</ele><time>2026-04-06T09:29:34Z</time></trkpt><trkpt lat="45.399729835703795" lon="10.529742879502535"><ele>139.0</ele><time>2026-04-06T09:29:35Z</time></trkpt><trkpt lat="45.399730857997554" lon="10.529853704748575"><ele>139.0</ele><time>2026-04-06T09:29:36Z</time></trkpt><trkpt lat="45.399739074133365" lon="10.529959245979104"><ele>139.0</ele><time>2026-04-06T09:29:37Z</time></trkpt><trkpt lat="45.399751103137376" lon="10.530066593584511"><ele>138.6</ele><time>2026-04-06T09:29:38Z</time></trkpt><trkpt lat="45.39976069179433" lon="10.530172914021751"><ele>138.2</ele><time>2026-04-06T09:29:39Z</time></trkpt><trkpt lat="45.39977085213991" lon="10.53026870135022"><ele>137.79999999999998</ele><time>2026-04-06T09:29:40Z</time></trkpt><trkpt lat="45.399814965699086" lon="10.530408429563705"><ele>137.4</ele><time>2026-04-06T09:29:42Z</time></trkpt><trkpt lat="45.39991607555734" lon="10.53040862479501"><ele>137.0</ele><time>2026-04-06T09:29:44Z</time></trkpt><trkpt lat="45.399999242347064" lon="10.530314734691675"><ele>137.0</ele><time>2026-04-06T09:29:46Z</time></trkpt><trkpt lat="45.40008582109568" lon="10.530228987683051"><ele>137.0</ele><time>2026-04-06T09:29:48Z</time></trkpt><trkpt lat="45.400177368599735" lon="10.530147510210995"><ele>137.0</ele><time>2026-04-06T09:29:50Z</time></trkpt><trkpt lat="45.40027639054889" lon="10.530070225825197"><ele>137.0</ele><time>2026-04-06T09:29:52Z</time></trkpt><trkpt lat="45.40036727941938" lon="10.529974775981385"><ele>137.0</ele><time>2026-04-06T09:29:54Z</time></trkpt><trkpt lat="45.4004752015134" lon="10.529919931562812"><ele>136.5</ele><time>2026-04-06T09:29:56Z</time></trkpt><trkpt lat="45.400569228055616" lon="10.529838333343223"><ele>136.0</ele><time>2026-04-06T09:29:58Z</time></trkpt><trkpt lat="45.40065015797563" lon="10.529777575193197"><ele>135.5</ele><time>2026-04-06T09:30:00Z</time></trkpt><trkpt lat="45.4007356970918" lon="10.529976471609954"><ele>135.0</ele><time>2026-04-06T09:30:03Z</time></trkpt><trkpt lat="45.400776268191635" lon="10.530124274871614"><ele>135.0</ele><time>2026-04-06T09:30:05Z</time></trkpt><trkpt lat="45.40082561137008" lon="10.530269938989235"><ele>135.0</ele><time>2026-04-06T09:30:07Z</time></trkpt><trkpt lat="45.40086661746339" lon="10.530418712179417"><ele>135.0</ele><time>2026-04-06T09:30:09Z</time></trkpt><trkpt lat="45.400904807397374" lon="10.530565790685657"><ele>135.0</ele><time>2026-04-06T09:30:11Z</time></trkpt><trkpt lat="45.400948138032824" lon="10.53070848399337"><ele>135.0</ele><time>2026-04-06T09:30:13Z</time></trkpt><trkpt lat="45.4009788000429" lon="10.530853763284162"><ele>134.8</ele><time>2026-04-06T09:30:15Z</time></trkpt><trkpt lat="45.401020346731585" lon="10.530985546254366"><ele>134.6</ele><time>2026-04-06T09:30:17Z</time></trkpt><trkpt lat="45.40105445572396" lon="10.531125396218034"><ele>134.4</ele><time>2026-04-06T09:30:19Z</time></trkpt><trkpt lat="45.40106629624238" lon="10.53127517994451"><ele>134.2</ele><time>2026-04-06T09:30:21Z</time></trkpt><trkpt lat="45.401087653565064" lon="10.531434392640664"><ele>134.0</ele><time>2026-04-06T09:30:23Z</time></trkpt><trkpt lat="45.40109457522195" lon="10.531594409674245"><ele>133.5</ele><time>2026-04-06T09:30:25Z</time></trkpt><trkpt lat="45.40109864043227" lon="10.531688387906142"><ele>133.0</ele><time>2026-04-06T09:30:26Z</time></trkpt><trkpt lat="45.40110828845336" lon="10.531777632248271"><ele>132.5</ele><time>2026-04-06T09:30:27Z</time></trkpt><trkpt lat="45.40112859559093" lon="10.53187710742288"><ele>132.0</ele><time>2026-04-06T09:30:28Z</time></trkpt><trkpt lat="45.40119626928778" lon="10.532023586354164"><ele>131.5</ele><time>2026-04-06T09:30:30Z</time></trkpt><trkpt lat="45.401246731698876" lon="10.53208904406921"><ele>131.0</ele><time>2026-04-06T09:30:31Z</time></trkpt><trkpt lat="45.40130030393707" lon="10.53215327497254"><ele>130.33333333333331</ele><time>2026-04-06T09:30:32Z</time></trkpt><trkpt lat="45.40136337234139" lon="10.532219240075092"><ele>129.66666666666666</ele><time>2026-04-06T09:30:33Z</time></trkpt><trkpt lat="45.40143139384428" lon="10.532282831087118"><ele>129.0</ele><time>2026-04-06T09:30:34Z</time></trkpt><trkpt lat="45.40148603011097" lon="10.532353127771868"><ele>128.33333333333334</ele><time>2026-04-06T09:30:35Z</time></trkpt><trkpt lat="45.40155954943114" lon="10.53240265743411"><ele>127.66666666666667</ele><time>2026-04-06T09:30:36Z</time></trkpt><trkpt lat="45.40163165740524" lon="10.532455329580413"><ele>127.0</ele><time>2026-04-06T09:30:37Z</time></trkpt><trkpt lat="45.401710737998606" lon="10.532510231912497"><ele>127.00000000000001</ele><time>2026-04-06T09:30:38Z</time></trkpt><trkpt lat="45.401786859405746" lon="10.532555478343072"><ele>127.0</ele><time>2026-04-06T09:30:39Z</time></trkpt><trkpt lat="45.40186581623618" lon="10.532599228629506"><ele>127.0</ele><time>2026-04-06T09:30:40Z</time></trkpt><trkpt lat="45.401950321582206" lon="10.532635004281204"><ele>127.0</ele><time>2026-04-06T09:30:41Z</time></trkpt><trkpt lat="45.40203328025623" lon="10.532661200261341"><ele>127.00000000000001</ele><time>2026-04-06T09:30:42Z</time></trkpt><trkpt lat="45.402119431468684" lon="10.532684149372795"><ele>127.0</ele><time>2026-04-06T09:30:43Z</time></trkpt><trkpt lat="45.40220513582281" lon="10.53270852991141"><ele>126.8</ele><time>2026-04-06T09:30:44Z</time></trkpt><trkpt lat="45.4022839734145" lon="10.53272134682259"><ele>126.6</ele><time>2026-04-06T09:30:45Z</time></trkpt><trkpt lat="45.40239886522418" lon="10.532736700820331"><ele>126.39999999999999</ele><time>2026-04-06T09:30:47Z</time></trkpt><trkpt lat="45.40248428653086" lon="10.53278439620387"><ele>126.19999999999999</ele><time>2026-04-06T09:30:49Z</time></trkpt><trkpt lat="45.402547009767666" lon="10.532889117747827"><ele>126.0</ele><time>2026-04-06T09:30:51Z</time></trkpt><trkpt lat="45.40260374032367" lon="10.533003353097548"><ele>125.6</ele><time>2026-04-06T09:30:53Z</time></trkpt><trkpt lat="45.40266680890757" lon="10.533103616772419"><ele>125.19999999999999</ele><time>2026-04-06T09:30:55Z</time></trkpt><trkpt lat="45.40273149639329" lon="10.533230778306795"><ele>124.80000000000001</ele><time>2026-04-06T09:30:57Z</time></trkpt><trkpt lat="45.40278572748987" lon="10.533348466472374"><ele>124.4</ele><time>2026-04-06T09:30:59Z</time></trkpt><trkpt lat="45.40286804018718" lon="10.533445117204458"><ele>124.0</ele><time>2026-04-06T09:31:01Z</time></trkpt><trkpt lat="45.40295275981309" lon="10.53354007887438"><ele>123.80000000000001</ele><time>2026-04-06T09:31:03Z</time></trkpt><trkpt lat="45.40303463840669" lon="10.53362948015005"><ele>123.60000000000001</ele><time>2026-04-06T09:31:05Z</time></trkpt><trkpt lat="45.40311923787509" lon="10.533721820003246"><ele>123.4</ele><time>2026-04-06T09:31:07Z</time></trkpt><trkpt lat="45.403203651045736" lon="10.533817307501636"><ele>123.2</ele><time>2026-04-06T09:31:09Z</time></trkpt><trkpt lat="45.403254154430094" lon="10.533877588244437"><ele>123.0</ele><time>2026-04-06T09:31:10Z</time></trkpt><trkpt lat="45.403340271440854" lon="10.533976878192252"><ele>122.66666666666667</ele><time>2026-04-06T09:31:12Z</time></trkpt><trkpt lat="45.403417430050595" lon="10.534071868367608"><ele>122.33333333333334</ele><time>2026-04-06T09:31:14Z</time></trkpt><trkpt lat="45.40351993476851" lon="10.53408505636722"><ele>122.0</ele><time>2026-04-06T09:31:16Z</time></trkpt><trkpt lat="45.403584315844654" lon="10.534116422103681"><ele>121.66666666666667</ele><time>2026-04-06T09:31:17Z</time></trkpt><trkpt lat="45.40365267022194" lon="10.534155747553644"><ele>121.33333333333334</ele><time>2026-04-06T09:31:18Z</time></trkpt><trkpt lat="45.40372091581071" lon="10.534186619781487"><ele>121.0</ele><time>2026-04-06T09:31:19Z</time></trkpt><trkpt lat="45.40379178483182" lon="10.53422942868196"><ele>120.57142857142857</ele><time>2026-04-06T09:31:20Z</time></trkpt><trkpt lat="45.403855899406956" lon="10.534255482570652"><ele>120.14285714285714</ele><time>2026-04-06T09:31:21Z</time></trkpt><trkpt lat="45.40393094280823" lon="10.53428231389282"><ele>119.71428571428571</ele><time>2026-04-06T09:31:22Z</time></trkpt><trkpt lat="45.40400380679312" lon="10.534316136198797"><ele>119.28571428571428</ele><time>2026-04-06T09:31:23Z</time></trkpt><trkpt lat="45.404078327989694" lon="10.534359616925194"><ele>118.85714285714286</ele><time>2026-04-06T09:31:24Z</time></trkpt><trkpt lat="45.40414994701332" lon="10.534398849257093"><ele>118.42857142857142</ele><time>2026-04-06T09:31:25Z</time></trkpt><trkpt lat="45.40421688579433" lon="10.534430692400512"><ele>118.0</ele><time>2026-04-06T09:31:26Z</time></trkpt><trkpt lat="45.4042966576577" lon="10.534461999328528"><ele>118.00000000000001</ele><time>2026-04-06T09:31:27Z</time></trkpt><trkpt lat="45.40437312381151" lon="10.534494932730045"><ele>118.0</ele><time>2026-04-06T09:31:28Z</time></trkpt><trkpt lat="45.404444431123174" lon="10.534522474264033"><ele>118.0</ele><time>2026-04-06T09:31:29Z</time></trkpt><trkpt lat="45.40451739536166" lon="10.534558845299992"><ele>118.0</ele><time>2026-04-06T09:31:30Z</time></trkpt><trkpt lat="45.40459289180386" lon="10.534590771058348"><ele>118.00000000000001</ele><time>2026-04-06T09:31:31Z</time></trkpt><trkpt lat="45.40466681899625" lon="10.534621543857487"><ele>118.0</ele><time>2026-04-06T09:31:32Z</time></trkpt><trkpt lat="45.404741112185576" lon="10.534650110420237"><ele>117.16666666666667</ele><time>2026-04-06T09:31:33Z</time></trkpt><trkpt lat="45.40481481273373" lon="10.534687977186156"><ele>116.33333333333334</ele><time>2026-04-06T09:31:34Z</time></trkpt><trkpt lat="45.40488407265632" lon="10.534712448610847"><ele>115.5</ele><time>2026-04-06T09:31:35Z</time></trkpt><trkpt lat="45.404952698599054" lon="10.534745901937564"><ele>114.66666666666666</ele><time>2026-04-06T09:31:36Z</time></trkpt><trkpt lat="45.40502873420116" lon="10.534783518331764"><ele>113.83333333333333</ele><time>2026-04-06T09:31:37Z</time></trkpt><trkpt lat="45.40510392289902" lon="10.534815628007262"><ele>113.0</ele><time>2026-04-06T09:31:38Z</time></trkpt><trkpt lat="45.405176112226684" lon="10.53484949224796"><ele>113.0</ele><time>2026-04-06T09:31:39Z</time></trkpt><trkpt lat="45.405251483624646" lon="10.534886383430257"><ele>113.0</ele><time>2026-04-06T09:31:40Z</time></trkpt><trkpt lat="45.4053243474958" lon="10.534916764867596"><ele>113.0</ele><time>2026-04-06T09:31:41Z</time></trkpt><trkpt lat="45.40539325966921" lon="10.534947176001358"><ele>113.0</ele><time>2026-04-06T09:31:42Z</time></trkpt><trkpt lat="45.40546368740089" lon="10.53497524592976"><ele>113.0</ele><time>2026-04-06T09:31:43Z</time></trkpt><trkpt lat="45.40552743706885" lon="10.535001588561318"><ele>113.0</ele><time>2026-04-06T09:31:44Z</time></trkpt><trkpt lat="45.40559691531267" lon="10.53501209918293"><ele>113.0</ele><time>2026-04-06T09:31:45Z</time></trkpt><trkpt lat="45.40566120874427" lon="10.535000366899235"><ele>112.80000000000001</ele><time>2026-04-06T09:31:46Z</time></trkpt><trkpt lat="45.40573620593125" lon="10.535001628577666"><ele>112.60000000000001</ele><time>2026-04-06T09:31:47Z</time></trkpt><trkpt lat="45.405825173925315" lon="10.53507141464014"><ele>112.39999999999999</ele><time>2026-04-06T09:31:49Z</time></trkpt><trkpt lat="45.405878156610406" lon="10.535121517147683"><ele>112.19999999999999</ele><time>2026-04-06T09:31:50Z</time></trkpt><trkpt lat="45.40597543756488" lon="10.535187469548953"><ele>112.0</ele><time>2026-04-06T09:31:52Z</time></trkpt><trkpt lat="45.406073496728425" lon="10.535256712061443"><ele>112.0</ele><time>2026-04-06T09:31:54Z</time></trkpt><trkpt lat="45.406176652269984" lon="10.535327615229827"><ele>111.99999999999999</ele><time>2026-04-06T09:31:56Z</time></trkpt><trkpt lat="45.40628572008801" lon="10.535331680631169"><ele>111.99999999999999</ele><time>2026-04-06T09:31:58Z</time></trkpt><trkpt lat="45.40634251527585" lon="10.535280104605825"><ele>112.0</ele><time>2026-04-06T09:31:59Z</time></trkpt><trkpt lat="45.406432906550194" lon="10.535171928744687"><ele>112.0</ele><time>2026-04-06T09:32:01Z</time></trkpt><trkpt lat="45.4065090026216" lon="10.535056122939388"><ele>111.6</ele><time>2026-04-06T09:32:03Z</time></trkpt><trkpt lat="45.40658421826955" lon="10.534957874310207"><ele>111.19999999999999</ele><time>2026-04-06T09:32:05Z</time></trkpt><trkpt lat="45.40665288219679" lon="10.534890435528453"><ele>110.8</ele><time>2026-04-06T09:32:07Z</time></trkpt><trkpt lat="45.40672610866296" lon="10.534946305983231"><ele>110.4</ele><time>2026-04-06T09:32:09Z</time></trkpt><trkpt lat="45.40675820602587" lon="10.53509460499292"><ele>110.0</ele><time>2026-04-06T09:32:11Z</time></trkpt><trkpt lat="45.40679011675977" lon="10.5352343168006"><ele>110.0</ele><time>2026-04-06T09:32:13Z</time></trkpt><trkpt lat="45.40682895295837" lon="10.535380356671887"><ele>110.0</ele><time>2026-04-06T09:32:15Z</time></trkpt><trkpt lat="45.406863742996194" lon="10.53553439878055"><ele>110.0</ele><time>2026-04-06T09:32:17Z</time></trkpt><trkpt lat="45.40690536498539" lon="10.535682902322975"><ele>110.0</ele><time>2026-04-06T09:32:19Z</time></trkpt><trkpt lat="45.4069488908423" lon="10.535839227687866"><ele>110.0</ele><time>2026-04-06T09:32:21Z</time></trkpt><trkpt lat="45.40698604827439" lon="10.535989758343701"><ele>110.0</ele><time>2026-04-06T09:32:23Z</time></trkpt><trkpt lat="45.40702540509376" lon="10.536134336917241"><ele>110.0</ele><time>2026-04-06T09:32:25Z</time></trkpt><trkpt lat="45.40706574682721" lon="10.536273710070434"><ele>110.0</ele><time>2026-04-06T09:32:27Z</time></trkpt><trkpt lat="45.40711256944036" lon="10.53641583875822"><ele>110.0</ele><time>2026-04-06T09:32:29Z</time></trkpt><trkpt lat="45.4071530252654" lon="10.53656201353592"><ele>110.2</ele><time>2026-04-06T09:32:31Z</time></trkpt><trkpt lat="45.40719533498184" lon="10.536711463465076"><ele>110.4</ele><time>2026-04-06T09:32:33Z</time></trkpt><trkpt lat="45.40723962881173" lon="10.536848673428787"><ele>110.6</ele><time>2026-04-06T09:32:35Z</time></trkpt><trkpt lat="45.407275383212706" lon="10.53700085813847"><ele>110.8</ele><time>2026-04-06T09:32:37Z</time></trkpt><trkpt lat="45.40731828599609" lon="10.537155798035753"><ele>111.0</ele><time>2026-04-06T09:32:39Z</time></trkpt><trkpt lat="45.40736195865474" lon="10.53731079122291"><ele>111.6</ele><time>2026-04-06T09:32:41Z</time></trkpt><trkpt lat="45.40738678581433" lon="10.537397207206796"><ele>112.19999999999999</ele><time>2026-04-06T09:32:42Z</time></trkpt><trkpt lat="45.40742080588774" lon="10.537549108205555"><ele>112.80000000000001</ele><time>2026-04-06T09:32:44Z</time></trkpt><trkpt lat="45.40746385742786" lon="10.537687651436848"><ele>113.4</ele><time>2026-04-06T09:32:46Z</time></trkpt><trkpt lat="45.40752184547529" lon="10.537805584954024"><ele>114.0</ele><time>2026-04-06T09:32:48Z</time></trkpt><trkpt lat="45.407619658922336" lon="10.537829672040253"><ele>114.0</ele><time>2026-04-06T09:32:50Z</time></trkpt><trkpt lat="45.407723788798414" lon="10.537778819262577"><ele>114.0</ele><time>2026-04-06T09:32:52Z</time></trkpt><trkpt lat="45.40781635185746" lon="10.537728766625529"><ele>114.0</ele><time>2026-04-06T09:32:54Z</time></trkpt><trkpt lat="45.40791041642714" lon="10.537651475864738"><ele>114.0</ele><time>2026-04-06T09:32:56Z</time></trkpt><trkpt lat="45.408012393573266" lon="10.537595647684432"><ele>114.0</ele><time>2026-04-06T09:32:58Z</time></trkpt><trkpt lat="45.40811626375716" lon="10.537533555606768"><ele>114.4</ele><time>2026-04-06T09:33:00Z</time></trkpt><trkpt lat="45.408220871719244" lon="10.537495253815518"><ele>114.80000000000001</ele><time>2026-04-06T09:33:02Z</time></trkpt><trkpt lat="45.408333300847445" lon="10.537429494510617"><ele>115.19999999999999</ele><time>2026-04-06T09:33:04Z</time></trkpt><trkpt lat="45.408424821392224" lon="10.537349132202404"><ele>115.6</ele><time>2026-04-06T09:33:06Z</time></trkpt><trkpt lat="45.408525426979054" lon="10.537312758254776"><ele>116.0</ele><time>2026-04-06T09:33:08Z</time></trkpt><trkpt lat="45.4086095982577" lon="10.537262957557921"><ele>115.99999999999999</ele><time>2026-04-06T09:33:10Z</time></trkpt><trkpt lat="45.40867704080996" lon="10.537233522045247"><ele>116.0</ele><time>2026-04-06T09:33:12Z</time></trkpt><trkpt lat="45.40872312600893" lon="10.537335880290504"><ele>116.0</ele><time>2026-04-06T09:33:15Z</time></trkpt><trkpt lat="45.40870336916408" lon="10.537449463556266"><ele>116.0</ele><time>2026-04-06T09:33:17Z</time></trkpt><trkpt lat="45.40869256934982" lon="10.537577322824813"><ele>115.99999999999999</ele><time>2026-04-06T09:33:20Z</time></trkpt><trkpt lat="45.40869510042873" lon="10.537675917700904"><ele>116.0</ele><time>2026-04-06T09:33:22Z</time></trkpt><trkpt lat="45.40869857387551" lon="10.537771939738729"><ele>115.99999999999999</ele><time>2026-04-06T09:33:24Z</time></trkpt><trkpt lat="45.408699854779904" lon="10.537885023120994"><ele>116.0</ele><time>2026-04-06T09:33:26Z</time></trkpt><trkpt lat="45.408711877508146" lon="10.537995200561424"><ele>116.0</ele><time>2026-04-06T09:33:28Z</time></trkpt><trkpt lat="45.40871647506041" lon="10.538109769551102"><ele>116.0</ele><time>2026-04-06T09:33:30Z</time></trkpt><trkpt lat="45.40872341577856" lon="10.538225632563137"><ele>115.99999999999999</ele><time>2026-04-06T09:33:32Z</time></trkpt><trkpt lat="45.40872698207564" lon="10.538349220458333"><ele>116.0</ele><time>2026-04-06T09:33:34Z</time></trkpt><trkpt lat="45.40873299022363" lon="10.53848306368101"><ele>116.49999999999999</ele><time>2026-04-06T09:33:36Z</time></trkpt><trkpt lat="45.408736504534986" lon="10.53861372329712"><ele>117.0</ele><time>2026-04-06T09:33:38Z</time></trkpt><trkpt lat="45.408733719377736" lon="10.53873789389388"><ele>117.5</ele><time>2026-04-06T09:33:40Z</time></trkpt><trkpt lat="45.40874594652332" lon="10.538864719322937"><ele>118.0</ele><time>2026-04-06T09:33:42Z</time></trkpt><trkpt lat="45.40878956894923" lon="10.538952998818129"><ele>118.49999999999999</ele><time>2026-04-06T09:33:44Z</time></trkpt><trkpt lat="45.408827133776015" lon="10.539042409392856"><ele>119.0</ele><time>2026-04-06T09:33:47Z</time></trkpt><trkpt lat="45.408776292366674" lon="10.539104793093156"><ele>119.66666666666666</ele><time>2026-04-06T09:33:50Z</time></trkpt><trkpt lat="45.40874422899836" lon="10.539442138751282"><ele>120.33333333333334</ele><time>2026-04-06T09:34:31Z</time></trkpt><trkpt lat="45.40873403898911" lon="10.539531625119242"><ele>121.0</ele><time>2026-04-06T09:34:34.021Z</time></trkpt><trkpt lat="45.408922801050544" lon="10.539789183274747"><ele>121.75</ele><time>2026-04-06T09:34:45.021Z</time></trkpt><trkpt lat="45.408750896199344" lon="10.539662881293124"><ele>122.5</ele><time>2026-04-06T09:34:50.018Z</time></trkpt><trkpt lat="45.408768996522575" lon="10.539752320075891"><ele>123.25</ele><time>2026-04-06T09:34:58.021Z</time></trkpt><trkpt lat="45.408809181308776" lon="10.53967052447834"><ele>124.0</ele><time>2026-04-06T09:35:04.018Z</time></trkpt><trkpt lat="45.40897266082052" lon="10.539825616055909"><ele>133.0</ele><time>2026-04-06T09:35:43.721Z</time></trkpt><trkpt lat="45.409260572588835" lon="10.539984911158806"><ele>133.0</ele><time>2026-04-06T09:36:57.02Z</time></trkpt></trkseg></trk></gpx>